GFSMA_250_rhum_000.txt.gz
RH
20 22 31 45 65 56 43 32 28 24 27 23 20 16 13 16 19 23 15 12 41 75 93 97 99 100 100 100 100 100 98 85 78 56 64 64 60 65 77 79 76 67 49
24 31 46 77 66 39 24 21 22 27 31 27 27 22 17 15 16 20 22 21 16 28 67 85 90 100 100 100 100 94 81 76 85 80 68 71 62 68 91 85 72 61 58
30 49 83 76 47 27 24 24 25 29 31 31 32 34 29 20 19 18 17 19 24 26 40 77 74 87 78 78 89 93 93 75 80 73 77 75 64 65 84 83 71 51 49
57 78 82 74 52 47 34 29 27 27 28 27 28 30 34 38 33 24 22 21 18 20 33 61 71 79 84 68 68 75 62 73 56 55 59 65 66 80 90 82 74 53 58
84 95 88 80 76 65 52 42 38 37 37 35 33 30 29 33 38 45 44 40 36 31 30 31 37 44 49 56 63 52 45 48 50 51 54 60 78 99 100 99 78 51 48
96 98 88 77 70 65 60 53 48 43 47 48 48 48 47 43 38 35 36 43 50 58 60 60 59 58 57 57 60 65 69 72 71 72 76 74 68 72 78 95 100 83 67
77 81 77 60 55 52 45 41 38 33 30 35 39 40 39 41 46 50 49 48 44 43 43 43 46 49 53 57 59 60 62 64 66 72 71 66 61 64 68 79 82 76 72
40 38 37 32 22 14 11 12 13 12 12 12 13 13 13 13 14 15 15 15 16 20 24 30 44 51 52 51 50 51 52 49 55 58 64 70 76 72 66 66 65 68 68
16 16 17 19 21 20 18 18 18 19 19 16 16 15 14 15 15 16 15 15 14 15 15 16 18 18 19 20 19 19 19 20 24 31 41 47 54 60 67 70 69 72 72
19 20 22 20 21 20 18 18 17 18 17 16 15 14 14 14 14 20 25 24 23 25 29 37 39 38 36 36 36 33 30 29 26 24 25 24 24 28 33 36 41 48 53
21 24 23 22 20 19 18 17 17 15 14 14 14 14 13 12 10 9 10 17 22 27 32 35 37 42 46 46 51 51 55 60 64 65 59 54 55 52 49 44 44 37 26
24 24 23 21 19 18 18 16 14 13 14 12 12 12 12 11 11 12 14 14 14 23 24 35 48 50 51 54 58 52 49 48 43 39 36 32 30 29 29 28 28 28 29
24 23 22 23 23 23 22 17 15 13 12 11 10 10 10 10 12 12 13 16 20 32 46 43 40 35 34 33 33 31 30 31 31 30 27 23 20 18 17 16 17 17 19
25 24 23 23 23 23 18 15 14 14 13 12 12 12 14 14 16 17 17 19 26 33 42 43 44 39 34 29 27 24 20 19 18 17 17 17 17 18 18 17 14 14 14
27 24 22 22 26 21 18 16 15 15 15 14 16 16 19 22 25 28 31 34 33 28 33 42 37 38 36 32 31 26 22 20 19 18 15 13 13 11 9 9 9 8 8
28 24 24 26 26 21 19 17 18 17 17 18 20 25 26 28 35 39 42 34 29 27 26 40 37 33 29 22 20 18 15 11 9 8 7 5 4 4 4 4 4 4 4
32 26 26 28 25 22 20 19 19 20 23 26 27 28 32 36 40 36 32 33 34 32 25 27 22 20 18 15 14 12 9 6 4 4 3 2 3 3 3 3 3 3 3
29 27 31 29 24 22 20 21 23 27 28 33 34 34 37 37 32 32 33 33 30 24 18 16 17 13 10 8 7 5 5 4 3 2 2 2 2 2 2 2 2 2 2
29 32 32 26 24 22 22 27 30 34 33 33 35 38 32 34 35 34 31 28 22 18 14 11 10 7 5 5 4 4 3 3 2 2 2 2 2 2 2 2 2 2 2
33 33 28 24 21 24 29 35 38 36 35 36 37 36 33 31 30 30 25 18 14 12 11 7 5 4 4 3 3 3 3 2 2 2 2 2 2 2 2 2 2 2 2
33 28 24 22 27 33 37 40 39 34 42 40 35 32 31 31 27 20 15 13 10 6 5 4 3 3 3 4 3 3 3 3 2 2 3 2 2 2 2 2 2 1 1
28 23 23 34 38 44 41 34 34 44 41 32 30 31 29 23 20 16 12 6 5 4 3 2 3 3 4 3 3 3 3 3 2 2 2 1 2 1 2 2 2 2 2
23 30 38 44 48 38 33 43 47 37 31 31 31 27 24 20 13 7 5 5 4 3 2 2 3 3 3 3 3 3 2 2 2 2 2 2 2 2 2 2 2 2 2
38 44 50 47 37 37 48 46 33 33 34 32 27 23 17 9 6 5 4 4 4 3 3 3 3 3 3 3 3 2 2 2 2 2 3 3 3 3 3 3 2 3 3
46 52 40 36 42 51 38 34 36 36 32 29 25 15 6 6 5 5 4 4 4 3 3 3 3 3 3 2 2 2 2 2 3 3 4 4 4 4 4 3 3 3 3
48 40 37 53 47 36 36 37 36 32 32 24 14 8 6 5 6 4 4 4 3 3 3 3 3 2 2 2 3 3 3 4 4 5 5 5 5 4 4 4 4 4 3

GFSMA_250_rhum_003.txt.gz
RH
46 42 53 51 35 20 30 50 59 44 29 27 27 30 32 32 31 32 28 21 17 18 21 22 19 16 42 83 93 97 93 96 100 100 100 100 100 100 100 100 89 78 72
46 45 48 31 19 31 47 69 62 49 35 28 27 26 28 29 31 32 33 34 29 20 20 20 22 22 16 23 65 82 96 100 100 100 100 100 100 100 100 93 91 72 77
46 54 35 20 32 64 75 79 67 61 50 42 34 34 34 33 30 27 27 32 37 38 32 25 22 23 22 20 17 20 45 81 88 83 93 100 100 99 92 99 97 94 93
59 27 18 35 60 85 87 85 73 74 68 61 54 44 40 37 38 39 39 41 37 32 35 42 44 39 32 30 28 26 26 31 56 75 74 79 72 77 89 81 80 66 60
36 16 26 63 81 99 98 87 73 59 54 50 45 41 38 34 32 34 38 38 36 39 42 43 41 37 38 42 45 45 42 36 36 44 54 57 56 50 48 51 52 54 55
15 18 50 69 56 57 64 46 34 25 19 16 16 14 13 13 13 13 13 13 13 14 14 17 22 29 37 42 41 39 41 44 46 48 47 45 46 47 48 50 52 58 66
20 27 59 34 31 27 23 22 21 21 22 22 22 20 20 20 20 20 19 18 16 16 15 14 14 14 14 14 15 17 21 28 35 43 44 44 44 42 41 39 42 46 47
28 39 24 17 18 20 22 24 23 21 20 19 18 18 19 16 16 17 16 16 15 15 15 14 15 15 16 17 19 19 20 20 20 21 23 28 32 31 32 32 31 32 32
30 26 25 22 22 23 25 24 22 22 19 18 21 22 20 22 23 23 20 17 16 16 16 16 17 16 14 14 14 14 15 14 15 16 16 17 19 23 27 31 36 40 42
26 27 26 27 26 25 25 24 22 22 21 21 21 19 17 16 18 20 28 28 26 26 26 25 24 24 25 26 26 25 24 24 24 26 24 22 20 18 18 19 21 23 24
28 28 26 26 27 25 23 23 23 22 22 22 22 20 16 14 13 12 13 18 22 25 26 26 27 27 29 31 32 31 31 32 31 31 33 34 33 33 32 28 28 28 26
29 30 28 30 30 26 24 24 21 21 21 22 23 19 15 15 14 12 10 10 12 21 22 26 29 31 32 33 34 34 34 37 38 35 36 36 34 32 29 28 28 27 27
31 34 35 32 28 26 23 23 25 24 23 24 19 17 14 13 13 12 14 14 14 16 22 25 29 31 35 40 42 43 42 42 39 36 33 31 29 26 25 23 21 20 20
37 37 35 32 30 27 26 26 30 26 24 20 17 15 16 14 14 13 13 16 20 26 33 35 37 34 33 32 30 30 31 31 29 26 24 21 20 18 16 14 14 14 13
39 36 33 32 31 29 28 30 30 24 23 20 17 18 16 16 17 20 22 24 23 25 34 36 29 30 30 29 28 26 22 19 18 17 15 13 12 11 10 10 9 8 8
37 34 32 32 30 28 29 33 26 26 24 19 20 16 17 22 28 32 32 32 32 26 22 30 29 24 21 19 20 16 14 12 10 10 9 7 6 6 6 6 6 6 5
34 33 33 32 31 32 36 29 27 26 21 21 17 22 28 30 32 34 39 34 29 26 23 24 23 23 19 15 14 14 12 9 6 5 4 3 3 3 3 3 3 3 3
35 35 36 33 34 36 32 28 29 24 21 19 26 29 32 33 38 38 32 27 25 24 20 16 18 16 13 9 6 5 4 4 4 3 3 2 2 2 2 2 2 2 2
39 38 36 37 35 34 30 29 26 21 21 28 26 30 33 38 33 28 26 27 26 21 19 15 7 6 5 4 4 4 3 3 2 2 2 2 2 2 2 2 2 2 2
40 40 38 33 34 32 30 27 21 24 31 26 29 36 36 30 26 27 29 24 19 16 10 5 4 4 4 4 3 2 3 2 2 2 2 2 2 2 2 2 2 2 2
40 35 31 35 32 32 27 22 27 32 28 32 41 35 31 28 32 28 22 16 10 5 4 4 4 4 3 3 3 3 3 3 2 2 3 2 2 2 2 2 2 2 2
35 32 36 33 35 25 23 32 28 30 36 42 34 34 37 35 29 24 14 7 6 4 3 3 3 3 3 3 2 2 2 3 3 2 3 2 2 2 2 2 1 1 2
36 36 33 33 24 27 29 27 30 44 40 37 38 39 37 31 21 9 6 7 6 5 4 3 3 3 2 2 2 2 2 2 2 2 2 2 2 2 2 2 2 2 2
33 36 29 24 30 32 28 36 47 42 42 41 42 39 29 18 7 6 7 7 6 4 4 4 3 2 2 2 2 2 2 2 2 2 2 2 2 2 2 2 3 3 2
36 26 26 33 32 31 46 44 45 44 49 50 45 33 16 7 7 8 7 5 5 4 4 3 3 2 2 2 2 2 2 2 2 2 3 4 3 4 3 3 4 3 3
26 34 34 31 34 48 43 44 50 48 49 48 43 16 8 9 9 7 5 5 5 4 3 3 2 2 3 3 3 2 3 4 4 4 4 5 4 4 4 4 4 4 4

GFSMA_250_rhum_006.txt.gz
RH
79 73 79 66 53 60 50 49 30 24 45 62 67 61 55 56 55 46 38 36 36 33 30 29 30 33 30 22 21 23 23 20 31 65 90 100 100 100 100 100 100 100 100
80 85 73 55 48 63 64 40 20 37 63 67 60 62 58 55 54 55 52 47 43 41 41 41 40 38 35 33 33 28 24 26 25 18 22 71 99 96 100 100 100 100 100
89 98 69 63 55 68 50 20 41 67 70 71 67 61 52 47 39 34 31 29 25 20 18 18 22 30 37 37 39 37 34 36 30 26 27 23 32 66 83 88 90 100 100
100 81 70 71 66 63 26 22 51 56 66 66 44 28 21 18 17 17 16 16 16 16 16 15 14 13 12 12 13 17 26 33 35 36 38 35 28 25 28 35 68 91 100
100 84 89 79 68 32 18 41 36 38 36 27 24 22 21 20 19 18 18 18 18 18 17 16 17 17 17 17 15 13 12 13 13 16 27 37 39 39 38 33 28 32 52
100 91 88 79 31 18 34 33 18 21 23 24 22 23 23 22 21 21 23 24 23 22 20 20 18 16 16 15 15 16 17 16 15 14 14 13 14 24 37 40 41 40 38
95 78 72 30 17 29 28 20 21 23 25 25 27 25 25 25 25 26 26 27 26 26 23 20 19 18 16 15 15 14 14 15 16 17 17 16 16 15 14 15 19 25 36
80 58 23 19 31 32 26 25 26 25 28 28 28 26 25 23 24 25 24 25 24 24 23 20 18 16 15 15 15 16 16 17 18 18 18 17 16 16 16 16 14 13 13
33 21 28 39 31 27 29 28 29 28 29 27 26 25 24 29 32 32 28 26 24 21 18 16 15 14 13 13 14 15 16 17 18 18 18 17 16 16 16 17 17 18 17
36 44 44 33 29 29 31 30 29 30 30 29 26 25 27 28 28 28 31 30 28 23 19 18 17 17 17 18 20 20 21 21 20 20 20 20 18 18 17 16 16 16 16
49 39 32 30 28 29 31 32 34 36 33 31 29 29 25 24 22 17 21 24 22 19 18 18 21 23 26 27 27 28 28 27 26 25 24 22 21 20 19 19 19 19 18
35 33 31 31 32 32 31 34 38 37 35 33 32 28 27 25 24 22 21 18 16 19 18 23 30 33 34 36 36 37 34 33 32 30 29 28 26 25 25 26 28 27 28
31 32 34 35 34 32 33 37 38 35 33 29 29 27 24 26 23 19 18 16 20 17 22 26 34 36 36 38 42 45 42 43 41 40 40 38 34 30 27 25 22 19 19
33 35 37 34 33 32 35 38 35 32 30 30 30 27 26 25 23 19 19 20 17 19 21 25 32 38 38 38 39 35 32 30 27 25 24 23 22 22 21 20 19 18 17
34 40 40 35 34 39 37 35 32 32 34 32 28 27 25 24 22 24 21 18 19 20 29 36 36 34 29 24 23 22 20 19 18 18 18 15 13 12 10 10 10 9 8
34 33 32 37 43 42 39 34 36 36 34 30 27 26 26 25 26 21 21 23 25 30 27 29 22 17 16 14 14 14 14 13 11 9 7 6 6 5 4 4 4 4 4
37 38 37 37 38 37 38 42 38 35 31 28 26 27 28 26 20 23 24 31 35 28 20 23 19 19 16 16 13 7 4 3 3 3 2 2 2 2 3 3 3 3 3
35 36 41 43 40 44 46 43 36 32 29 27 29 31 26 20 26 26 36 36 27 25 20 14 16 16 13 7 5 4 4 3 2 2 2 2 2 2 2 2 2 3 2
42 45 47 46 49 47 45 39 34 30 30 32 31 23 22 26 28 37 32 29 28 24 16 14 11 8 6 5 5 5 3 3 2 2 2 2 2 2 2 2 2 2 2
48 49 51 51 48 47 41 36 31 34 33 29 22 26 26 32 36 30 32 30 21 16 13 8 7 5 5 5 4 3 3 3 2 2 2 2 2 2 2 2 2 2 2
52 51 49 47 44 40 37 37 38 32 28 23 30 27 36 33 35 36 28 21 18 12 8 7 6 5 4 4 3 3 3 3 2 2 2 2 2 2 2 2 2 2 2
51 49 46 45 43 41 43 37 31 25 26 31 28 39 34 42 38 30 23 18 12 8 5 6 5 4 4 4 3 3 3 2 2 2 2 2 1 1 2 2 2 2 2
50 49 47 46 49 44 36 30 24 30 27 34 37 40 45 39 30 24 18 12 9 6 6 5 5 5 4 4 3 3 2 2 2 2 2 2 2 2 2 2 2 2 2
49 46 51 49 40 35 27 28 30 28 38 40 51 44 42 34 26 13 9 11 8 7 6 5 5 4 4 3 2 3 3 2 3 3 2 3 3 2 3 3 3 4 3
54 56 45 41 31 27 30 29 34 44 52 53 47 49 39 26 14 9 10 8 7 5 5 5 5 4 3 3 3 3 3 3 3 4 4 5 5 4 4 4 4 4 4
52 46 34 29 29 33 35 45 49 52 49 49 54 42 22 13 9 10 8 7 5 6 6 4 4 3 4 4 4 4 5 4 5 6 7 6 6 6 4 5 4 5 5

GFSMA_250_rhum_009.txt.gz
RH
97 86 88 100 92 84 77 65 60 61 63 56 47 18 35 55 55 53 49 43 38 32 30 29 26 22 18 15 14 15 19 29 36 39 37 30 23 21 38 77 92 94 100
100 91 81 81 89 96 82 67 67 70 70 57 29 27 47 53 44 34 25 18 16 15 14 15 16 16 16 16 16 16 15 13 13 15 24 33 38 35 27 24 27 45 93
100 89 89 86 95 97 93 72 80 82 74 56 21 30 36 39 25 21 19 20 19 18 18 18 18 18 18 18 19 18 19 18 17 17 16 14 17 22 30 36 31 25 22
57 61 82 83 83 95 97 90 99 85 63 29 25 19 16 19 19 19 21 22 23 22 22 23 23 22 22 21 20 19 19 18 17 16 16 15 15 13 13 20 28 38 36
54 65 89 100 100 100 100 100 94 73 36 26 21 17 17 22 22 24 25 26 26 25 24 24 24 23 23 24 23 21 19 18 16 15 14 14 14 13 12 12 12 15 26
100 99 100 100 100 100 100 99 85 41 28 24 22 22 21 27 26 28 29 26 25 24 24 24 23 23 24 23 22 20 18 16 15 14 14 14 13 13 13 13 13 12 12
64 79 93 98 100 100 100 80 43 28 31 26 25 24 25 27 27 29 28 26 26 26 25 27 27 24 22 21 21 20 18 16 14 13 12 12 12 12 12 13 13 13 13
93 99 100 100 100 96 65 30 26 34 28 27 26 27 28 30 32 34 33 29 27 27 27 28 27 26 21 21 22 20 17 16 15 14 14 15 15 14 14 14 13 13 14
100 100 99 82 55 35 29 35 35 32 28 28 29 31 36 40 41 41 37 33 32 31 28 25 25 24 22 20 19 16 16 16 17 19 20 21 21 19 18 18 18 18 18
88 88 58 31 32 39 42 42 34 30 27 28 30 36 36 40 45 42 42 39 34 34 33 29 27 27 24 22 20 20 19 21 19 17 17 17 18 20 22 24 24 23 21
74 51 30 43 46 48 41 34 31 28 29 32 34 33 31 37 40 37 36 34 35 32 28 27 27 26 24 21 21 20 20 20 23 25 28 30 31 28 25 23 21 19 19
63 33 37 48 42 37 36 33 31 33 36 37 35 33 34 38 37 33 29 30 28 27 28 28 27 26 25 22 22 22 26 30 31 29 28 29 30 30 29 29 30 29 25
53 35 32 36 37 35 35 34 34 38 40 39 35 38 41 39 33 33 30 24 23 23 23 24 24 26 21 23 22 29 36 35 31 30 27 24 23 22 23 24 24 24 23
54 41 34 35 36 36 35 34 36 40 34 32 34 33 32 27 30 32 27 22 21 22 23 25 24 18 19 26 39 36 29 25 23 22 21 21 22 22 21 18 16 15 15
59 46 44 39 36 35 38 38 40 41 38 36 35 32 30 30 33 30 25 22 22 24 30 21 19 21 30 34 32 24 20 19 19 21 20 18 15 11 9 9 8 8 9
61 52 47 44 42 39 37 36 35 36 36 36 35 36 37 35 32 28 26 26 29 27 18 20 24 29 26 20 16 14 18 19 16 10 6 5 4 4 4 3 3 3 2
68 56 49 46 44 42 41 41 42 43 40 40 42 42 36 33 32 30 30 32 22 18 20 36 35 33 23 17 18 17 10 5 4 4 4 4 3 3 3 3 3 3 2
78 68 58 50 46 45 45 46 50 46 43 44 42 37 37 35 35 33 31 20 23 23 30 28 32 22 19 22 15 6 5 4 4 4 3 3 3 3 2 2 2 2 2
73 68 64 58 52 52 56 55 51 49 48 44 40 42 40 37 36 27 24 25 29 37 32 21 19 22 20 11 6 5 5 4 3 3 3 3 3 2 2 2 2 2 2
74 75 70 64 62 63 65 62 57 55 48 45 44 41 36 35 23 27 29 38 42 36 23 18 18 14 8 6 6 5 4 3 3 3 2 2 2 2 2 2 2 2 2
79 76 80 78 74 71 68 64 55 49 46 47 42 38 30 26 29 35 41 41 32 22 16 17 11 7 6 5 4 4 4 4 3 3 2 2 2 2 2 2 2 2 2
86 97 93 80 73 68 62 52 48 48 48 42 38 26 30 32 41 43 39 36 27 17 16 8 6 6 5 4 4 4 4 4 3 2 2 2 3 2 2 2 2 2 2
99 95 83 74 64 57 53 53 51 47 42 29 31 34 42 43 42 41 38 27 19 12 6 5 6 5 4 5 5 4 4 3 3 4 3 2 3 3 4 4 3 3 2
94 83 71 64 58 58 57 51 44 35 29 34 41 47 44 41 45 35 25 17 13 8 7 6 4 4 5 5 4 4 3 3 3 5 5 3 4 4 4 4 4 5 4
80 72 62 64 62 54 47 43 30 33 38 50 50 42 42 44 34 26 18 12 9 7 5 4 5 5 5 4 4 4 4 4 3 5 7 8 9 7 8 6 5 5 5
70 67 68 57 52 52 34 33 35 49 52 50 43 42 40 31 24 16 11 9 8 5 4 5 5 4 4 4 5 6 5 5 5 7 8 8 11 10 7 7 6 5 6

GFSMA_250_rhum_012.txt.gz
RH
82 78 82 80 76 79 75 92 98 84 78 77 84 78 83 72 68 56 26 39 48 30 19 17 18 18 19 19 20 20 18 18 20 20 20 20 18 17 17 17 29 38 32
67 70 69 74 78 79 69 88 84 85 79 86 82 71 89 90 70 42 22 29 28 17 20 22 22 22 22 22 23 22 22 22 22 22 21 21 22 20 17 16 16 17 21
78 79 82 93 78 72 71 66 75 84 94 75 72 93 99 93 68 31 22 16 16 19 22 23 22 22 22 22 22 22 22 22 22 22 22 22 22 21 19 17 15 14 14
39 38 44 58 62 61 55 51 59 72 94 98 100 100 100 95 50 29 18 17 19 19 22 24 24 25 24 23 24 23 23 24 23 21 21 21 22 21 19 17 16 16 15
18 24 49 59 66 94 91 92 86 94 100 100 100 100 97 65 31 23 21 22 21 22 26 25 27 27 27 25 24 23 23 24 25 25 24 21 19 19 18 16 15 14 14
20 33 65 88 96 100 100 100 100 100 100 100 100 99 70 41 27 24 26 24 25 27 29 29 29 30 30 28 28 28 27 25 25 24 24 22 20 18 17 14 13 12 12
28 28 28 29 29 40 59 76 93 100 100 96 94 65 37 30 29 28 29 27 29 30 29 29 31 33 33 33 32 30 29 29 26 24 22 21 21 19 15 13 13 13 14
42 38 29 29 48 80 100 100 100 100 92 75 46 29 30 32 29 33 31 30 29 30 31 30 31 35 33 32 31 30 29 25 23 23 22 22 21 17 16 16 14 13 13
50 42 30 31 60 77 97 100 84 69 39 31 32 40 38 32 31 30 28 28 28 29 28 29 34 34 31 30 31 26 23 22 22 22 22 20 18 18 18 19 20 19 19
42 33 28 30 38 55 90 71 46 30 33 49 51 42 34 31 33 37 39 35 34 31 32 36 36 33 31 31 27 22 21 20 20 20 19 19 19 19 19 19 25 28 30
39 30 28 27 28 46 63 45 35 45 56 41 37 35 33 33 35 36 40 44 38 39 36 35 34 32 30 30 28 26 23 24 23 23 21 19 20 20 22 27 27 27 30
40 32 30 27 30 44 55 35 39 43 42 39 37 37 39 39 38 38 37 36 36 38 38 40 40 36 34 33 30 29 27 26 25 21 21 19 18 23 24 25 24 24 26
37 33 32 28 31 44 55 40 37 36 40 42 43 43 43 41 40 39 37 33 32 36 37 38 37 38 38 37 36 32 28 23 22 24 21 24 25 26 25 26 26 22 18
36 35 33 29 32 51 59 47 41 42 42 41 42 41 38 36 35 35 37 38 38 38 35 34 33 30 32 29 29 25 24 29 24 29 30 28 29 32 32 26 22 18 16
38 38 34 30 32 57 61 56 49 46 46 49 46 42 41 42 43 45 45 42 39 36 39 36 39 34 29 25 24 25 24 36 30 22 22 25 26 26 20 11 6 5 5
44 40 34 30 34 57 61 61 57 54 51 49 48 46 47 49 51 51 48 48 46 39 42 42 32 26 23 23 25 29 24 20 21 24 22 16 10 6 5 5 5 4 4
51 42 32 32 41 48 57 69 75 72 64 60 56 53 54 56 57 57 56 49 47 49 39 37 27 25 26 33 28 21 20 21 20 13 6 5 5 4 5 4 4 4 3
56 42 33 37 38 40 50 53 58 66 66 59 58 61 64 60 63 55 50 51 46 37 30 23 29 43 41 29 25 25 21 15 6 5 5 5 4 4 3 4 4 4 3
51 45 39 36 38 44 48 50 55 62 60 64 72 68 67 62 57 55 52 43 36 27 26 30 42 39 33 28 25 21 9 6 5 4 4 3 3 4 4 4 3 3 3
60 55 43 43 43 46 53 56 61 61 68 76 73 67 64 58 56 51 42 32 27 30 42 40 36 29 27 25 16 8 6 5 3 3 4 4 4 4 4 3 3 2 2
67 54 55 52 48 58 60 66 59 66 80 81 73 66 63 59 52 37 28 30 44 46 40 27 26 25 24 11 8 6 4 3 3 4 4 3 4 3 3 3 3 3 2
71 67 62 62 66 64 72 63 66 86 90 74 72 69 63 57 34 32 41 48 46 36 29 24 25 16 8 7 5 3 3 4 4 3 4 3 3 3 4 4 4 3 3
73 66 73 74 72 76 67 71 93 90 77 76 70 73 53 31 38 51 45 43 40 29 26 19 10 7 6 4 4 4 4 4 3 4 4 3 4 3 4 4 4 4 4
72 82 84 76 77 69 80 89 85 82 80 77 78 37 32 48 46 43 44 36 29 26 18 9 7 5 3 4 5 5 4 4 3 4 6 4 4 4 5 6 6 5 5
99 89 81 74 74 86 83 83 88 79 85 63 35 37 51 49 49 38 34 28 27 16 8 6 4 4 5 5 4 4 4 4 4 3 5 7 9 8 10 9 9 8 7
93 79 74 81 81 80 89 85 86 86 42 38 53 58 51 44 36 32 28 26 14 8 6 3 4 5 5 4 4 4 5 5 6 5 8 8 11 10 9 11 10 9 8

GFSMA_250_rhum_015.txt.gz
RH
87 88 100 100 100 100 96 92 84 76 66 66 63 76 73 67 74 76 76 80 79 87 74 36 34 32 17 17 19 19 19 18 19 20 20 19 19 20 20 21 22 22 20
84 88 83 79 81 69 68 64 63 66 72 72 69 67 64 62 70 82 82 98 90 99 78 34 27 21 19 22 22 22 23 22 22 22 24 25 23 24 25 24 24 23 24
58 82 89 92 79 67 60 58 79 72 71 67 66 74 58 60 71 100 100 100 100 96 66 30 19 19 20 22 23 25 25 25 26 26 26 27 27 27 27 28 27 27 26
27 28 40 52 62 71 65 42 41 44 46 57 79 78 94 90 98 100 100 100 100 81 49 24 20 22 24 26 28 30 29 28 29 28 28 29 30 30 29 28 25 25 26
24 23 22 20 22 18 16 19 49 79 97 100 100 100 100 100 100 100 100 100 85 67 36 22 24 27 28 29 28 28 28 31 32 33 32 31 32 31 31 30 28 26 25
22 22 21 21 23 18 21 28 35 53 55 63 71 84 98 97 95 86 84 81 68 38 30 24 28 28 30 27 26 27 28 30 32 33 33 31 30 27 26 26 24 23 22
22 25 30 26 22 25 29 32 25 24 24 46 76 88 86 91 88 80 68 41 38 31 31 29 30 30 29 27 27 29 28 29 30 33 34 31 27 28 28 24 21 20 19
33 38 42 28 24 27 33 39 29 24 30 43 56 67 84 73 57 36 33 41 37 36 33 31 30 29 29 30 32 32 32 31 30 28 28 26 25 26 25 23 22 22 22
41 43 56 48 28 28 33 35 28 26 31 30 54 71 56 34 36 50 52 48 43 37 34 31 30 32 32 32 32 30 28 28 28 28 29 30 30 30 28 25 24 23 21
63 63 69 58 36 29 38 32 26 25 24 29 59 52 39 39 56 51 41 38 36 33 32 34 33 31 29 27 27 28 28 27 29 31 30 30 26 25 24 23 23 22 20
77 77 77 65 47 40 44 37 27 24 24 36 59 48 34 32 35 39 41 42 43 43 42 40 37 35 33 31 29 31 33 36 35 32 27 26 25 22 22 20 16 15 15
77 86 80 78 67 54 48 42 28 25 26 36 50 48 40 35 32 33 38 41 44 45 37 34 39 42 44 44 44 42 43 40 34 33 32 28 25 21 19 17 18 24 24
79 82 81 80 80 72 52 41 30 28 28 36 51 53 48 42 38 36 35 38 41 43 44 48 49 48 50 52 55 50 46 46 43 41 35 27 21 19 20 22 20 24 24
85 91 85 86 97 84 58 42 32 31 33 38 44 53 52 52 50 48 46 46 50 54 54 52 50 50 54 53 53 55 50 45 42 33 26 24 25 30 28 31 32 33 32
95 96 82 79 81 83 59 46 35 34 35 41 40 52 55 55 55 53 58 61 58 55 55 57 57 54 50 51 48 41 38 31 25 25 24 30 27 30 31 33 31 25 17
69 66 65 66 62 64 65 48 40 39 37 38 41 44 46 50 43 43 50 52 51 45 46 55 54 51 49 39 32 27 21 20 27 25 22 26 28 30 27 20 12 8 7
70 56 55 67 70 66 59 51 50 44 40 36 37 34 36 38 36 41 49 49 49 51 49 62 58 47 35 28 23 24 28 24 21 23 25 26 20 13 7 5 6 5 4
74 64 55 50 54 59 60 60 57 50 43 41 33 31 34 34 38 44 48 48 53 58 59 53 55 42 30 25 31 26 21 20 23 24 18 11 7 6 5 4 4 3 3
86 73 65 56 54 56 60 64 62 58 51 40 38 38 34 37 41 47 48 53 61 63 57 52 42 29 30 35 26 23 22 26 22 12 7 6 5 3 3 4 4 4 4
76 75 67 54 50 51 55 59 60 57 49 45 47 41 43 44 49 49 55 64 66 64 60 46 28 32 33 26 22 24 28 21 8 6 4 3 3 4 4 4 3 3 3
70 65 65 56 49 52 55 56 60 54 54 59 54 48 48 52 54 59 64 66 67 66 44 29 37 31 25 22 26 25 14 6 4 3 4 4 4 4 3 3 3 3 3
69 64 57 50 46 47 51 53 63 66 65 72 56 54 52 55 62 66 70 70 64 34 33 36 28 21 24 26 22 8 5 4 4 3 5 3 3 3 4 4 4 4 4
88 84 57 46 44 45 44 54 61 71 76 65 56 56 58 64 68 69 70 62 34 43 37 25 22 27 26 15 7 4 4 4 4 3 3 3 4 4 4 4 4 4 4
100 89 58 42 39 45 47 54 66 82 70 59 65 65 69 67 70 72 40 37 49 38 31 26 29 21 11 6 4 5 4 3 3 3 5 5 4 4 5 6 5 6 7
78 53 44 39 43 50 54 74 80 66 70 70 67 71 65 74 54 38 47 51 40 30 28 27 18 9 6 4 5 5 3 4 4 3 5 5 7 8 8 9 8 9 10
59 50 45 50 53 69 71 72 70 66 67 74 70 73 64 39 42 58 45 38 29 31 24 16 8 5 4 5 4 4 5 5 5 5 7 8 9 12 8 15 12 12 10

GFSMA_250_rhum_018.txt.gz
RH
20 20 21 22 25 31 39 68 95 98 100 100 97 92 84 62 54 60 69 69 63 76 82 77 85 94 100 100 76 43 25 21 18 20 22 22 22 22 24 27 27 26 26
19 18 20 25 33 43 47 54 50 75 87 82 83 67 56 57 45 71 79 70 70 71 70 98 100 100 100 100 71 40 22 21 20 22 23 25 25 25 25 26 26 27 26
19 18 21 27 29 33 44 58 68 70 75 77 73 60 58 55 46 44 62 87 84 100 100 100 100 100 100 93 61 33 23 24 25 27 28 31 30 28 27 27 28 29 28
16 16 18 24 26 26 25 26 27 28 28 26 30 30 25 43 72 85 91 100 100 100 100 100 100 100 96 78 55 30 22 26 30 31 34 33 33 35 39 39 38 36 34
15 16 16 20 22 23 25 25 24 22 20 20 17 20 29 40 60 68 68 89 93 98 92 88 84 84 80 71 50 29 22 28 32 32 34 36 33 32 32 33 35 37 36
31 21 18 18 20 21 23 23 23 20 18 18 20 24 23 24 25 28 49 63 79 87 86 84 73 54 48 49 38 28 26 29 32 34 33 32 32 31 30 28 28 31 31
31 38 27 28 31 21 20 21 21 22 20 22 26 31 28 26 26 29 36 51 60 57 45 34 31 38 48 42 32 32 33 32 33 31 32 33 33 32 30 28 26 26 27
29 28 29 27 28 21 22 21 27 36 26 22 24 30 29 26 22 22 31 43 42 36 32 41 45 48 45 41 42 38 36 35 34 34 36 36 34 31 30 28 28 27 26
30 29 29 29 37 34 34 34 42 39 41 28 26 25 22 24 24 23 25 31 40 34 38 48 50 46 42 40 38 38 39 38 37 35 33 31 29 27 27 30 33 35 35
26 29 34 31 40 48 56 52 50 56 57 46 29 32 28 23 23 24 23 34 40 34 32 33 35 36 35 35 34 32 32 31 29 30 30 34 36 38 42 44 41 38 35
28 26 29 30 33 56 66 70 79 79 74 60 44 44 39 28 24 26 30 29 38 41 37 34 33 32 32 31 30 32 34 36 38 40 40 39 36 34 32 26 22 22 22
31 28 27 30 34 38 64 83 92 89 83 72 58 51 52 42 32 30 30 39 46 47 41 43 43 44 44 46 47 48 49 50 48 48 46 41 35 32 27 23 20 17 14
35 31 29 31 34 36 38 54 84 97 94 81 78 75 60 48 38 32 28 40 48 49 52 51 46 42 45 48 53 51 52 53 49 45 40 36 28 22 17 14 14 19 23
54 38 40 37 37 41 48 56 63 84 88 82 80 93 82 56 44 38 33 29 29 34 47 55 54 43 36 37 42 47 45 43 38 38 35 29 22 17 14 21 21 22 22
44 45 38 49 61 54 61 71 90 95 87 85 88 94 99 70 51 43 39 36 34 33 41 45 34 32 32 35 43 44 45 42 36 32 28 19 18 22 22 24 26 27 30
56 52 43 42 48 61 65 89 99 98 97 95 83 79 76 66 58 44 41 38 36 33 32 32 28 28 32 38 42 39 36 32 29 24 19 20 21 22 26 28 30 32 28
63 56 53 64 78 82 80 84 90 83 73 67 66 67 67 68 60 51 48 43 38 34 29 31 24 21 30 35 34 32 29 23 20 20 19 20 24 26 26 24 21 14 8
70 58 76 82 91 97 90 90 88 74 64 56 52 55 58 54 51 48 47 46 39 36 28 22 21 32 35 34 32 26 23 19 19 20 24 25 24 22 14 8 6 4 3
78 71 94 100 94 90 84 80 76 73 66 54 49 44 44 46 46 46 45 43 40 37 28 18 28 35 34 32 26 19 20 20 24 25 26 23 16 9 5 3 3 3 3
74 89 95 91 88 80 90 86 72 66 62 55 47 38 35 36 38 41 42 39 35 27 26 30 32 32 30 21 19 20 22 26 30 25 17 9 6 4 3 4 4 3 3
73 89 100 91 87 90 97 92 70 65 55 48 42 36 37 37 38 36 37 34 34 37 38 35 38 30 21 22 20 22 28 32 24 12 8 5 4 4 4 3 2 2 2
100 91 90 93 80 83 85 88 80 71 55 43 39 35 39 37 34 34 32 41 40 36 40 32 23 21 27 19 23 29 31 22 13 4 4 5 4 3 3 3 3 3 3
97 98 95 92 85 68 70 89 94 73 50 41 38 36 38 35 34 39 41 45 46 39 29 19 26 21 20 26 30 29 19 10 6 4 4 4 3 3 4 4 5 4 4
98 91 90 92 92 100 98 86 61 56 49 43 39 38 36 39 41 43 50 52 40 27 29 28 22 22 28 28 20 15 8 6 5 4 3 5 4 3 6 6 10 8 9
79 83 86 94 99 97 75 72 76 67 53 45 35 36 45 46 47 39 40 43 35 32 31 24 26 29 26 17 9 6 5 5 4 3 2 5 6 7 8 6 10 10 10
88 100 100 93 85 95 94 93 76 56 52 50 52 47 43 39 36 35 30 32 40 35 27 32 31 21 13 6 5 4 4 4 4 4 3 6 6 8 8 6 10 10 10

GFSMA_250_rhum_021.txt.gz
RH
16 15 14 16 17 19 18 18 20 20 21 25 27 32 44 55 73 85 70 78 73 55 49 49 53 60 75 78 70 88 88 100 100 100 62 40 24 21 23 25 26 26 24
26 22 18 19 17 16 18 18 19 19 21 26 34 43 49 54 67 70 69 62 60 57 51 46 50 55 83 86 93 100 100 100 100 97 61 40 24 23 24 27 30 30 30
20 22 26 24 22 18 16 19 20 19 21 25 28 29 29 27 27 28 27 32 33 38 48 73 85 90 99 98 100 100 100 100 100 96 64 37 26 24 24 27 31 33 32
28 28 24 20 19 16 16 18 19 20 21 23 26 25 24 24 22 22 20 22 28 32 47 56 64 88 98 100 100 98 96 98 94 90 71 40 25 25 30 33 35 36 36
23 24 23 23 20 17 17 19 19 20 20 22 25 25 24 22 22 23 20 23 26 24 23 26 38 63 81 87 95 92 86 84 75 85 71 48 29 26 32 39 41 41 40
24 24 22 23 22 21 20 24 22 20 20 21 22 24 25 23 23 22 20 29 32 28 25 25 24 38 48 56 59 53 44 42 50 56 51 42 32 27 28 33 36 37 35
33 32 29 24 20 20 29 34 35 28 28 27 25 22 21 21 23 23 23 30 36 26 22 23 22 31 36 41 34 31 34 39 43 45 43 35 32 36 35 33 32 31 32
39 34 33 29 23 19 20 25 35 41 39 40 38 28 23 23 32 33 28 25 29 26 25 24 22 23 30 38 35 36 41 44 48 46 44 43 41 38 35 33 32 32 31
43 36 36 34 34 29 26 25 27 29 33 43 40 30 26 28 47 44 38 31 34 41 28 26 25 25 28 32 37 34 35 38 40 38 37 37 36 34 32 32 31 30 29
54 46 39 39 32 32 30 28 30 37 39 41 46 43 47 50 62 68 58 52 37 39 39 31 29 33 38 40 41 44 43 39 37 36 36 36 36 35 36 37 40 42 42
56 55 45 37 34 33 31 29 29 28 30 32 48 59 64 66 63 76 84 71 56 53 57 48 33 33 35 39 40 44 47 49 48 49 47 44 40 38 38 37 39 41 42
59 63 50 43 36 32 33 32 29 28 30 33 34 54 80 85 88 94 98 94 81 74 62 55 47 37 32 32 35 40 40 39 33 32 33 30 27 28 28 32 36 34 30
76 67 64 59 48 41 39 38 37 34 31 32 36 39 51 86 97 99 100 100 100 100 97 83 68 48 41 38 38 39 38 40 40 37 33 26 22 23 24 31 33 32 29
80 72 72 62 57 56 55 42 34 32 42 48 42 42 47 54 70 85 96 96 99 91 99 100 96 74 52 42 37 36 35 33 32 30 29 23 18 15 23 28 29 25 23
94 83 69 70 75 69 56 47 44 40 40 43 70 73 69 68 79 85 85 82 76 85 98 98 87 81 60 49 38 32 31 31 29 27 21 18 17 17 26 27 25 22 20
84 77 77 77 66 74 63 62 54 50 53 62 67 73 83 86 85 94 93 89 86 76 67 70 68 64 61 56 44 41 37 32 28 23 19 17 17 24 25 22 18 23 22
82 81 86 99 91 83 85 82 66 66 69 68 67 75 73 69 70 71 78 75 56 42 37 38 36 41 43 41 41 39 34 29 26 21 15 20 24 24 21 20 23 22 22
95 85 98 100 93 96 95 86 71 80 77 77 82 83 79 78 65 55 60 58 52 43 33 30 32 31 31 32 28 27 26 24 20 18 24 26 22 17 26 21 20 19 14
77 100 100 100 100 99 97 83 71 70 80 84 87 84 80 75 68 56 51 44 43 42 37 32 31 28 27 27 27 25 22 20 26 22 19 17 22 22 20 17 13 8 6
100 100 100 100 97 96 91 81 75 78 79 70 71 71 70 71 73 70 64 47 35 32 32 30 28 26 24 22 20 24 30 25 24 16 22 25 20 18 13 8 6 5 3
100 100 100 100 100 94 86 88 90 82 79 74 66 70 70 72 61 52 46 43 38 32 29 28 27 25 26 30 29 27 20 20 28 23 23 21 14 9 6 4 4 4 4
100 100 100 99 95 94 84 78 98 86 77 75 79 69 58 56 56 54 49 41 36 29 24 24 29 30 27 19 17 18 26 24 29 21 15 10 6 4 3 3 4 4 3
100 100 98 81 66 74 86 91 80 81 87 80 69 69 78 72 69 63 56 47 40 32 26 23 20 18 16 19 26 27 25 22 17 9 7 6 4 4 3 3 3 4 4
93 85 88 63 63 90 82 88 84 79 74 77 80 83 81 80 68 55 44 38 31 25 22 20 19 22 26 25 21 19 16 13 8 5 3 5 4 3 3 3 3 5 7
100 100 80 75 87 92 82 86 86 83 86 89 86 68 58 53 46 35 29 30 29 28 32 29 26 26 24 19 15 13 8 6 4 4 3 4 4 5 5 4 5 7 10
73 59 68 84 89 94 93 89 99 91 78 74 67 54 44 39 36 34 30 36 44 40 36 34 27 23 18 12 8 5 4 4 4 4 3 5 5 5 7 5 4 6 8

GFSMA_250_rhum_024.txt.gz
RH
20 17 14 13 14 15 16 16 16 16 16 17 19 19 19 20 18 17 20 23 27 36 48 55 69 62 52 49 51 42 33 64 78 87 100 100 100 100 100 91 47 28 23
16 14 12 14 14 15 16 19 22 21 20 21 20 17 17 20 18 18 22 26 28 29 28 29 27 25 28 29 53 59 70 87 96 99 99 100 100 100 100 94 52 34 27
14 14 14 14 15 16 15 15 19 25 25 23 22 21 18 17 19 19 21 23 24 23 25 23 22 20 25 24 32 30 44 57 84 100 100 100 100 100 100 100 68 34 31
23 22 21 18 23 24 22 21 22 24 22 21 20 17 17 18 19 20 21 22 24 22 22 22 24 22 25 26 25 27 30 41 61 79 96 94 95 97 96 99 88 45 32
37 34 30 30 32 27 23 23 22 21 22 25 25 21 20 21 21 22 22 24 23 24 23 23 23 22 30 31 31 31 31 35 46 59 72 78 82 83 84 84 96 73 39
44 38 35 31 30 29 28 26 26 24 23 23 28 32 29 32 34 30 26 25 24 24 24 22 22 24 28 38 32 32 33 32 44 47 44 40 40 40 43 52 64 59 51
41 42 42 57 57 42 31 27 29 30 28 23 20 25 32 39 44 43 42 43 37 30 27 27 29 30 26 32 35 32 31 28 32 39 38 33 32 33 38 43 47 46 43
88 87 86 76 52 46 44 39 35 34 32 30 24 20 20 29 37 47 52 52 48 40 32 29 31 40 36 33 40 44 34 26 26 33 40 41 40 45 45 46 45 43 41
94 76 66 64 64 56 48 40 34 34 35 36 36 31 29 30 32 32 40 49 52 45 37 37 49 53 53 51 41 41 49 37 30 30 35 44 49 45 42 43 43 43 42
86 100 82 70 65 67 54 44 34 33 32 31 35 34 33 32 32 39 41 50 59 62 60 61 65 72 74 68 64 54 47 52 48 38 36 42 49 55 54 52 48 45 43
93 89 92 69 66 74 69 53 43 37 35 35 34 34 33 31 32 33 38 39 56 76 82 79 76 82 89 100 95 77 70 61 57 55 47 41 41 50 56 56 55 54 53
76 92 100 82 67 82 82 67 63 48 46 47 44 43 40 36 31 32 35 38 39 41 54 71 88 97 100 100 100 100 100 93 81 75 66 53 41 37 38 38 38 34 34
96 81 84 87 92 92 88 79 76 61 56 61 56 50 46 46 38 35 37 42 46 51 57 59 57 58 62 71 83 86 90 89 85 79 74 67 62 49 39 30 27 26 24
99 94 100 89 100 98 92 81 72 68 64 62 61 58 53 49 46 44 42 43 63 85 87 79 73 69 70 71 73 80 82 79 78 77 76 66 55 48 42 36 34 27 24
100 100 100 89 96 97 96 80 77 72 84 85 80 68 64 59 55 52 54 57 57 63 81 84 83 83 75 70 72 72 68 66 66 65 50 38 40 38 33 30 28 26 23
99 100 100 100 100 96 87 84 78 95 97 95 85 74 67 66 63 59 62 55 54 57 63 63 67 65 62 62 61 60 62 64 53 38 31 26 24 22 21 22 21 22 22
100 100 96 100 99 99 90 97 86 86 98 90 92 76 72 68 65 58 57 65 65 62 63 61 57 60 65 60 55 50 49 47 40 34 29 27 24 22 22 21 20 18 16
100 100 100 100 98 97 100 98 85 91 99 95 84 76 71 70 71 79 77 66 68 68 66 58 60 64 62 60 52 43 37 34 32 30 28 27 25 22 20 19 22 24 24
100 100 100 100 100 100 94 86 97 100 94 84 82 74 74 74 72 72 76 73 71 72 67 60 53 49 50 48 45 40 35 33 31 27 24 22 20 22 23 20 19 18 17
100 96 91 100 99 100 100 100 100 100 86 87 80 76 83 79 85 92 74 71 64 62 61 64 61 56 51 42 36 31 37 28 25 21 22 24 20 19 18 17 16 18 21
98 100 100 100 100 100 100 100 100 77 84 69 70 80 100 100 90 74 73 72 72 75 69 58 50 42 35 33 28 25 22 23 23 20 22 25 20 22 21 19 15 12 10
91 100 100 100 100 100 100 100 84 73 65 58 67 79 87 83 72 68 69 73 70 61 51 37 34 27 24 23 24 30 34 31 31 25 20 18 15 13 9 7 5 4 5
100 100 100 100 100 100 95 90 77 60 60 66 75 82 93 76 73 78 77 63 52 37 28 25 22 23 31 38 36 34 26 20 17 13 10 10 6 6 5 4 3 3 3
100 88 97 100 98 82 64 42 52 58 73 83 95 99 90 88 83 68 55 43 39 36 39 42 48 48 40 30 21 19 15 12 9 7 5 6 4 3 3 3 2 2 3
100 100 100 97 92 66 72 59 83 99 93 100 100 95 98 84 62 48 46 56 73 69 58 49 38 30 26 20 15 11 8 7 6 5 2 4 4 4 4 4 4 3 4
100 100 82 66 64 71 73 83 90 100 100 100 100 99 75 58 52 60 78 76 66 56 44 35 29 23 18 11 8 7 5 4 4 5 3 5 5 4 5 4 3 3 4

GFSMA_250_rhum_027.txt.gz
RH
31 31 29 27 26 22 21 19 17 16 15 14 15 15 16 18 18 17 18 21 22 18 18 18 18 19 23 26 25 25 23 21 19 34 60 77 78 96 95 100 100 100 100
27 24 23 22 22 20 18 16 14 14 12 14 16 17 18 18 19 23 24 22 22 23 20 19 20 21 22 24 24 24 23 20 20 24 25 26 48 60 91 100 100 100 100
28 26 24 22 23 20 17 15 15 14 13 14 20 23 21 20 21 22 20 19 19 19 18 19 21 22 23 24 24 22 22 22 20 23 24 27 39 62 83 95 99 100 100
41 36 31 28 28 29 26 23 22 25 23 21 24 23 23 23 23 22 21 23 23 20 21 23 24 25 25 27 27 24 22 21 22 28 29 30 30 36 61 83 98 100 100
59 55 47 44 38 38 36 36 34 30 27 27 26 26 24 22 22 22 22 21 20 22 23 29 35 34 31 27 27 26 25 25 24 27 35 32 28 28 44 54 66 80 89
86 75 73 72 49 39 35 36 38 42 45 44 37 30 28 28 28 26 27 25 20 21 26 33 46 48 47 44 37 32 28 27 30 29 30 34 29 28 30 36 46 47 44
81 64 60 54 80 75 78 69 70 72 54 51 47 44 38 34 31 30 32 31 26 23 22 26 37 48 60 62 57 46 37 33 35 38 37 34 39 36 27 23 27 38 38
95 91 97 96 90 95 95 84 66 57 55 53 49 42 39 33 30 33 35 34 34 33 32 32 32 35 47 61 66 56 47 46 49 49 51 48 43 43 48 34 27 28 39
86 89 93 85 81 85 80 74 71 67 70 63 54 50 44 38 33 33 33 35 36 37 35 31 29 32 37 45 59 64 64 60 67 71 72 70 61 57 50 56 47 34 36
73 84 89 99 100 98 88 88 79 77 64 55 55 52 51 46 39 39 38 37 38 38 38 37 37 35 35 36 39 51 66 70 71 78 83 86 88 82 75 62 53 52 41
75 80 93 100 100 100 89 84 71 64 68 70 69 71 60 50 49 45 51 53 48 40 41 41 41 42 42 39 40 46 54 69 83 83 87 94 92 88 91 91 84 73 61
84 100 100 99 94 98 91 82 82 74 79 83 85 82 62 64 55 52 56 56 56 52 51 48 43 43 47 54 57 57 58 60 58 62 72 79 83 79 74 74 80 87 84
73 86 94 100 96 96 98 94 98 88 88 96 97 91 74 64 72 60 65 67 64 67 68 56 52 50 50 49 48 51 54 58 60 57 54 52 51 56 62 63 63 68 75
72 73 85 92 90 99 100 99 100 99 92 98 96 95 90 80 74 78 68 64 71 82 82 74 72 68 65 60 52 49 50 49 48 46 44 41 43 48 51 54 53 53 54
92 79 75 75 94 100 100 100 100 100 100 100 100 93 93 96 87 75 73 73 74 79 79 83 80 80 78 74 61 54 51 49 48 46 44 40 36 34 34 37 39 42 46
84 67 70 69 76 99 100 100 100 100 100 100 100 84 92 88 89 73 66 81 80 82 83 97 99 96 91 80 67 63 63 62 62 60 54 49 46 43 38 35 32 30 30
86 72 68 65 68 93 100 100 100 100 100 100 100 99 94 88 61 75 92 82 86 73 84 93 85 74 74 72 69 65 61 57 56 53 53 53 55 53 50 47 38 30 26
86 80 76 68 81 92 100 100 100 100 100 100 100 100 99 99 100 93 84 78 72 70 72 88 73 74 79 74 67 69 63 57 50 49 42 37 38 35 39 40 38 34 30
73 82 86 78 96 100 100 100 100 100 100 100 100 95 88 100 91 89 69 73 83 69 75 72 71 74 70 63 57 50 45 38 32 28 26 25 25 24 24 23 21 20 19
42 61 66 80 97 100 100 100 100 100 100 100 100 94 90 77 83 80 65 74 74 73 64 60 62 58 53 41 34 31 32 30 33 33 30 30 28 22 19 17 16 15 13
62 52 58 80 99 100 100 100 100 100 100 87 100 100 87 85 63 66 71 78 62 62 61 54 64 48 37 37 33 38 42 43 40 34 28 25 20 16 15 13 12 12 11
38 42 46 71 99 100 100 100 100 100 100 100 100 77 60 56 60 76 66 59 56 65 65 61 52 45 48 48 48 40 34 29 28 24 19 16 10 9 6 5 5 4 4
47 59 93 100 100 100 100 99 99 95 85 95 61 46 53 70 66 74 75 68 72 75 64 57 54 56 49 40 34 30 27 24 20 12 8 9 7 6 4 4 3 2 2
79 95 100 100 100 100 100 100 100 100 82 55 54 65 74 70 74 80 87 82 88 69 66 66 61 49 39 32 26 24 21 17 12 8 5 5 4 3 3 3 3 2 2
100 100 100 100 100 100 100 100 98 94 83 78 65 72 77 84 98 96 96 86 82 76 74 60 48 39 32 26 22 20 14 12 9 6 3 4 4 4 5 5 4 3 3
100 100 88 100 100 100 81 66 75 58 60 54 62 80 89 82 98 100 90 83 83 76 59 47 36 31 28 23 18 14 11 7 5 6 5 5 5 5 6 4 4 3 4

GFSMA_250_rhum_030.txt.gz
RH
55 48 42 38 36 35 32 30 27 23 22 22 21 20 19 17 15 13 13 13 15 17 17 16 18 22 24 22 23 22 19 20 22 23 23 23 23 21 20 24 28 72 98
54 50 46 46 39 32 29 25 24 22 24 25 24 24 22 19 18 16 16 16 18 18 21 21 24 23 22 22 20 19 19 20 22 24 25 23 23 22 20 25 24 29 45
57 55 51 45 38 34 31 33 34 34 37 35 31 29 29 30 28 24 22 23 25 24 21 20 21 22 22 23 22 21 21 23 24 24 26 27 25 24 23 29 30 30 35
59 56 53 52 48 49 48 53 54 50 51 44 41 36 33 34 33 33 32 32 29 26 24 23 23 22 24 22 24 27 29 31 29 26 27 26 25 25 27 27 35 35 27
63 67 70 66 55 59 71 70 70 61 49 43 51 52 52 55 48 44 43 40 37 34 33 31 29 27 25 24 22 23 28 34 40 40 34 33 30 28 26 28 33 38 34
79 70 60 52 50 54 55 63 72 83 80 82 78 74 71 50 55 48 44 42 39 35 30 27 27 32 32 30 28 25 24 26 34 41 49 49 45 39 34 32 32 37 39
79 67 62 57 52 59 63 64 76 78 76 69 68 56 57 61 59 56 53 47 46 44 35 30 30 30 30 33 37 37 34 34 36 42 53 66 58 51 46 39 37 37 43
74 69 74 73 70 72 74 76 75 71 76 66 66 71 63 64 64 64 53 52 53 55 44 39 36 37 37 36 36 37 41 45 42 40 43 52 70 67 58 51 44 41 45
81 86 87 93 86 76 76 72 89 82 72 66 66 76 69 66 58 57 65 70 67 56 54 51 42 41 44 43 43 40 37 37 40 42 39 39 42 52 70 74 67 64 58
83 86 82 97 83 76 85 84 90 78 87 94 70 74 79 77 72 71 71 75 75 62 55 58 54 47 54 59 57 53 47 42 42 41 40 41 43 43 44 53 68 78 74
100 95 88 86 94 98 100 100 100 100 100 85 91 79 87 80 80 84 78 89 81 81 71 61 59 53 60 64 69 72 67 66 63 59 53 49 45 44 45 43 42 42 46
100 100 98 96 93 99 100 100 100 100 100 99 94 84 86 80 81 77 80 95 94 86 91 76 67 62 70 65 70 69 67 71 74 68 63 58 51 48 44 40 36 38 43
98 100 100 100 100 100 100 100 100 100 100 100 100 100 99 90 77 80 83 89 94 95 92 81 72 72 75 66 71 70 69 69 66 63 59 56 58 56 52 50 49 46 44
67 76 79 92 100 100 100 99 98 100 100 100 100 100 100 100 100 95 91 99 96 94 82 92 80 66 63 80 76 68 66 65 62 57 55 50 51 51 51 52 52 53 54
70 83 94 100 100 100 100 96 100 100 100 100 100 100 100 100 97 91 98 100 97 92 92 99 75 66 72 80 77 77 73 64 71 88 85 85 84 79 75 73 71 71 67
69 86 86 86 90 100 100 100 100 100 100 100 100 100 100 100 100 100 100 100 99 93 82 71 65 78 88 80 75 76 71 70 77 70 67 69 65 60 55 51 49 48 49
52 76 81 87 94 100 100 100 99 100 100 100 100 100 100 100 100 100 100 100 97 83 85 85 73 71 84 78 75 75 75 66 62 54 46 41 35 33 34 37 40 43 45
58 76 93 89 96 100 100 100 100 100 100 100 100 100 100 100 100 100 100 100 100 70 65 60 59 66 74 75 90 69 62 50 39 33 27 29 36 41 45 44 44 44 43
38 57 88 100 100 100 100 100 100 100 100 100 100 100 100 100 100 100 100 90 82 71 48 61 72 66 76 81 59 50 49 40 36 32 37 41 39 34 31 30 30 30 29
36 39 46 55 68 92 99 100 100 100 100 100 100 100 100 100 99 100 97 63 68 53 61 60 69 66 66 51 45 44 43 45 49 45 40 36 31 27 22 20 16 13 13
36 43 53 60 66 65 81 92 77 75 92 100 100 100 100 100 100 97 85 76 59 62 67 72 71 65 47 38 43 43 48 51 56 46 40 36 27 24 15 10 7 6 6
35 47 56 64 83 100 100 85 76 87 100 100 100 100 100 100 90 83 74 54 52 54 58 69 74 60 54 58 54 57 53 48 48 45 39 36 25 18 9 7 5 4 3
35 62 80 88 94 85 73 91 100 100 100 100 100 100 100 91 72 53 42 44 48 55 66 69 74 66 61 61 60 56 57 51 48 40 34 31 14 9 6 4 3 3 3
39 49 59 66 78 92 100 100 100 100 100 100 92 63 75 71 66 53 53 59 70 72 72 83 78 63 63 60 53 58 54 53 41 33 15 17 8 5 6 4 4 4 4
94 97 100 100 100 100 100 100 100 100 94 81 93 97 95 67 59 58 54 65 74 81 84 78 63 66 66 61 57 54 49 39 35 22 9 8 4 7 6 5 6 5 4
97 100 100 100 100 100 100 77 61 64 62 73 82 83 68 70 76 87 82 90 91 88 77 68 63 62 60 56 52 42 37 32 19 12 8 8 6 7 11 5 5 5 5

GFSMA_250_rhum_033.txt.gz
RH
35 40 34 35 40 46 45 47 50 45 46 38 32 26 25 27 32 36 34 32 29 27 26 25 25 24 23 23 22 20 19 20 21 24 24 21 19 19 21 22 25 24 24
41 42 51 55 62 63 60 57 60 50 44 36 30 31 33 39 44 43 38 36 34 33 32 32 35 34 32 29 26 24 23 21 21 25 26 23 22 22 22 23 24 26 25
54 57 60 71 76 71 70 62 53 47 44 42 37 48 52 52 49 47 49 47 45 46 44 42 40 38 35 32 31 30 28 25 25 25 23 25 28 28 26 25 25 26 26
76 72 73 85 89 81 71 55 54 52 46 44 42 52 69 68 63 65 63 61 59 47 45 40 38 35 32 33 29 26 25 27 30 29 26 24 26 33 39 41 33 29 25
89 92 96 92 89 72 65 61 60 55 52 46 48 58 60 60 62 62 56 47 51 49 43 39 38 38 38 41 35 30 28 27 28 31 35 33 27 25 34 47 52 43 35
97 97 95 90 83 74 73 72 67 63 46 44 49 57 66 56 61 66 56 49 48 51 48 47 45 44 41 43 38 38 34 33 32 32 33 35 36 35 37 41 51 58 62
100 93 77 79 80 85 83 81 77 66 68 64 66 59 62 53 60 70 63 55 52 58 67 64 60 50 52 48 40 42 45 40 39 40 39 38 40 41 40 40 44 51 57
95 93 91 96 96 89 86 81 90 99 84 88 77 75 66 67 63 62 74 64 58 61 75 72 68 60 66 64 54 51 50 50 45 48 48 46 43 40 41 46 48 42 43
91 77 73 91 100 96 98 95 96 94 93 94 82 65 90 79 81 76 66 73 72 70 71 76 71 69 76 71 66 58 57 55 49 49 52 51 50 48 48 47 45 45 45
95 100 99 98 99 100 100 100 100 100 99 100 93 94 100 98 99 99 92 82 85 79 73 72 70 77 84 81 80 80 70 60 58 52 57 61 56 52 50 49 48 46 41
98 97 95 100 99 100 100 100 100 98 94 100 99 100 100 100 100 98 95 94 97 86 78 74 74 68 77 87 92 94 78 72 63 66 75 69 73 69 68 66 62 55 48
100 100 100 100 100 100 100 100 100 100 100 100 100 100 100 100 100 100 100 100 100 96 64 74 76 70 65 72 89 100 79 72 72 72 93 100 99 97 87 72 59 60 57
100 100 96 94 96 100 99 100 100 100 100 100 100 100 100 100 100 100 100 100 100 96 88 99 92 78 74 75 86 87 73 74 74 65 84 93 86 80 76 68 69 91 86
77 76 69 66 74 81 90 100 100 100 100 100 100 100 100 100 100 100 100 100 100 100 100 100 88 74 78 81 76 80 83 62 58 63 90 84 66 61 57 55 68 79 75
75 78 81 75 72 74 78 96 100 100 100 100 100 100 100 100 100 100 100 100 100 100 100 100 92 83 86 92 85 85 71 58 70 78 73 71 66 63 58 57 60 56 51
53 56 55 56 60 65 68 77 97 100 100 100 100 100 100 100 100 100 100 100 100 100 100 100 84 83 91 84 78 84 63 60 64 80 69 65 65 64 60 52 49 47 41
26 34 44 50 54 57 62 70 93 100 100 100 100 100 100 100 100 100 100 100 100 100 100 100 100 98 98 84 88 56 52 57 66 63 62 60 64 62 52 45 41 40 48
25 27 34 45 59 68 70 75 77 89 100 100 100 100 100 100 100 100 100 100 100 100 100 100 100 96 80 62 64 57 62 55 59 60 58 53 50 45 36 39 44 40 37
14 24 32 38 43 50 82 100 100 100 100 100 100 100 100 100 100 100 100 100 92 100 100 100 100 99 73 58 60 50 51 56 59 61 56 52 44 43 42 37 31 32 27
6 16 32 44 49 53 53 60 92 100 100 100 100 100 100 100 100 100 94 87 100 100 100 100 96 73 77 67 46 50 56 59 63 56 51 45 44 41 34 33 26 22 20
4 8 20 39 45 57 64 62 62 65 78 88 100 97 100 95 81 94 89 100 100 100 99 94 72 60 52 53 54 54 60 59 54 49 47 54 42 42 37 28 20 16 16
4 8 16 31 51 64 74 77 74 82 76 92 100 90 77 85 96 98 100 100 100 100 74 64 65 54 50 61 61 51 53 52 56 50 52 57 40 44 31 20 12 10 8
8 12 19 26 48 71 85 91 96 100 99 84 94 100 100 100 100 100 100 100 95 80 75 63 57 61 66 66 57 61 57 53 58 54 47 54 43 45 34 20 8 6 5
15 18 26 33 45 67 89 88 76 81 95 100 100 100 100 100 100 100 93 88 75 70 59 66 72 82 69 59 59 57 62 60 52 48 36 46 42 38 28 9 5 5 6
22 40 43 69 90 98 98 95 99 100 100 100 100 100 100 100 97 83 74 53 63 69 83 88 74 58 54 56 62 66 59 54 51 42 34 42 31 14 9 5 5 5 7
44 42 44 52 71 78 92 97 92 86 66 61 77 77 87 91 85 63 70 98 98 94 78 61 56 64 67 70 64 54 47 42 39 37 29 16 10 8 10 6 5 5 6

GFSMA_250_rhum_036.txt.gz
RH
26 27 26 26 25 27 33 34 37 45 42 42 41 46 50 49 38 34 31 30 32 40 47 45 44 46 46 43 40 38 37 33 32 32 30 27 25 25 24 26 26 23 22
35 36 36 34 39 45 47 47 49 51 50 57 55 59 51 45 41 38 35 36 39 49 53 53 49 44 43 42 37 34 32 30 30 30 28 29 31 30 30 30 29 29 26
48 44 47 51 52 58 64 67 66 65 68 64 62 58 51 47 43 43 40 40 42 41 41 57 55 46 43 42 39 35 36 32 32 33 29 27 27 33 35 32 31 35 40
54 56 66 76 74 85 89 82 79 77 79 87 77 66 60 54 49 49 48 42 42 45 50 51 52 50 42 41 45 46 42 38 38 35 36 33 32 31 36 39 37 35 34
59 58 79 91 98 93 86 90 86 86 88 93 81 74 71 72 68 59 55 56 54 47 55 55 46 47 52 54 53 57 51 41 41 39 42 44 38 34 35 36 39 38 38
85 87 96 85 89 91 92 96 93 98 93 97 89 80 76 80 76 76 73 76 78 58 62 65 63 64 58 62 62 67 56 46 43 41 42 41 40 44 45 43 41 44 46
98 92 89 84 88 92 93 100 100 100 100 100 100 90 88 99 100 100 87 89 83 73 77 77 78 68 68 66 60 60 57 52 51 51 49 45 42 44 43 46 52 48 43
99 92 100 100 99 99 99 87 80 79 89 98 100 100 100 98 100 97 92 93 97 82 86 100 93 90 70 69 63 65 60 59 55 63 62 56 58 52 54 50 49 51 52
95 97 98 100 99 98 98 97 96 90 80 81 96 97 100 100 96 91 96 100 100 100 97 100 100 95 85 75 61 66 68 67 65 68 63 68 72 64 59 60 63 62 63
85 92 89 97 100 100 92 90 90 89 88 91 95 100 100 100 100 100 100 100 100 99 100 100 100 100 92 84 72 63 57 73 74 65 62 69 78 77 64 66 64 83 93
100 100 100 100 100 100 100 100 100 100 100 100 100 99 100 100 100 100 100 100 100 100 100 100 100 100 100 87 86 71 65 76 77 68 64 65 80 82 73 75 63 85 93
94 95 100 100 100 100 100 100 100 100 100 100 100 100 100 100 100 100 100 100 100 100 100 100 100 100 100 99 100 100 90 80 68 65 72 68 77 85 93 71 70 86 88
100 100 94 86 86 91 93 94 95 89 93 100 100 100 100 100 100 100 100 100 100 100 100 100 100 100 100 94 100 100 100 92 75 68 68 74 77 89 93 79 81 83 79
69 64 63 61 56 52 60 71 81 98 100 100 100 100 100 100 100 100 100 100 100 100 100 100 100 91 100 86 100 100 100 97 83 67 61 54 71 81 97 71 73 81 82
50 54 53 58 69 77 74 79 98 100 100 100 100 100 100 100 100 100 100 100 100 100 100 100 100 100 100 100 100 100 100 96 94 86 78 73 57 67 64 58 55 58 66
31 36 41 49 54 56 66 72 82 91 99 99 100 100 100 100 100 100 100 100 100 100 100 100 100 100 100 100 82 93 79 87 93 94 72 59 56 61 60 56 57 57 57
20 22 26 31 40 52 60 69 80 82 97 100 100 100 100 100 100 100 100 100 100 100 100 94 100 100 100 100 83 65 71 66 59 59 48 54 60 58 56 51 48 52 52
20 17 20 26 31 34 35 39 49 70 91 95 98 100 100 100 100 100 100 100 100 100 100 96 100 100 100 100 100 100 100 93 82 64 49 56 56 56 57 57 47 48 50
12 12 12 13 16 24 34 44 45 46 50 62 73 80 100 100 100 100 100 100 100 100 100 100 100 92 85 92 98 97 100 75 61 58 55 57 55 59 57 49 50 47 43
8 8 8 10 12 14 18 37 56 61 55 54 54 70 97 100 100 100 100 100 100 100 100 100 100 100 98 91 98 93 91 77 61 54 50 56 57 48 50 50 44 39 34
6 5 6 7 8 10 14 23 34 52 66 69 64 64 72 80 99 100 100 100 100 100 100 88 86 80 99 86 100 92 83 64 66 55 53 55 53 49 45 47 41 34 33
5 5 4 4 4 6 8 15 31 52 68 88 87 81 79 82 88 83 92 86 81 82 86 85 91 100 88 78 83 66 54 59 61 58 63 60 49 58 53 43 39 30 27
10 8 7 6 6 8 11 23 39 58 88 100 100 98 100 91 89 96 88 93 99 95 83 83 97 81 71 63 67 56 55 60 60 60 59 63 52 55 46 40 30 24 15
26 28 19 18 19 20 21 32 59 98 100 100 99 98 86 84 83 97 99 92 80 70 76 73 64 65 68 71 70 71 69 70 63 54 51 58 49 48 49 36 21 10 8
41 36 35 36 38 40 47 63 66 71 72 83 92 98 100 90 82 89 74 74 68 66 69 69 75 76 80 76 68 62 63 54 52 49 49 47 42 42 38 19 8 7 7
61 60 57 61 60 56 55 57 62 67 76 78 77 77 76 78 78 74 79 76 82 82 81 80 81 81 74 67 56 47 43 47 49 44 41 41 33 21 13 9 6 6 7

GFSMA_250_rhum_039.txt.gz
RH
44 36 33 35 34 34 36 39 42 37 35 38 41 49 52 54 51 56 52 51 51 49 46 44 39 39 38 36 39 41 45 43 39 37 35 33 30 31 31 29 30 33 31
39 42 43 40 40 38 40 42 40 39 41 44 48 52 57 65 72 70 67 63 58 58 55 48 48 45 48 44 47 50 47 44 40 40 42 39 34 32 32 32 29 30 35
45 47 42 44 47 47 51 49 45 47 46 51 66 72 88 86 85 78 71 70 63 65 60 58 54 49 54 54 52 55 48 52 50 48 51 46 40 40 36 35 34 33 33
59 58 63 62 53 54 54 51 54 60 61 76 91 98 89 97 92 88 86 80 74 72 72 68 60 56 52 56 64 62 52 53 56 56 55 52 44 42 43 40 36 35 34
65 66 65 66 67 58 64 58 54 61 71 81 82 88 85 98 88 89 83 82 92 93 87 79 74 61 57 58 80 77 70 57 52 56 56 53 52 50 44 43 42 41 40
67 64 65 64 69 88 77 65 77 87 90 93 95 100 100 100 100 100 99 98 99 94 89 83 80 80 75 77 88 90 86 72 62 56 53 51 56 54 51 48 45 46 43
68 68 60 58 72 98 100 94 88 96 100 94 96 91 82 92 82 89 79 93 100 96 94 100 95 96 83 100 99 99 90 84 82 78 56 56 55 54 58 55 50 52 51
66 85 100 92 94 92 94 94 96 97 97 98 91 93 88 93 97 89 88 98 100 100 100 100 100 100 100 100 99 100 100 100 78 81 63 67 62 61 63 62 58 53 54
80 93 86 78 95 100 96 94 98 94 86 94 94 87 87 85 86 87 96 99 100 100 100 100 100 100 100 95 100 100 100 98 95 89 80 81 68 67 65 62 59 66 66
77 71 68 88 92 96 94 98 93 98 93 97 97 100 99 100 100 100 100 100 100 100 100 100 100 100 99 100 100 99 100 99 99 95 100 79 81 86 78 74 63 64 78
53 66 81 92 95 91 100 100 100 100 100 100 100 100 100 100 100 100 100 100 100 100 100 100 100 100 100 100 97 100 100 100 100 100 100 99 98 91 79 75 73 64 70
67 68 62 56 62 73 93 99 98 100 100 100 100 100 100 100 100 100 100 100 100 100 100 100 100 100 100 100 100 100 100 100 100 93 88 100 100 100 91 77 76 64 71
79 88 87 90 88 84 80 81 78 69 68 67 75 95 96 100 100 100 100 100 100 100 100 100 100 100 100 100 100 100 100 100 99 87 99 100 100 91 80 78 83 75 63
97 95 85 72 60 52 51 51 55 58 65 73 83 96 100 100 100 100 100 100 100 100 100 100 100 100 100 100 100 100 95 93 100 100 82 97 93 88 80 87 80 73 74
62 59 52 50 44 46 47 47 47 50 54 60 74 93 100 100 100 100 100 100 100 100 100 100 100 100 100 100 98 100 100 100 100 86 100 93 74 81 72 66 52 49 67
48 38 34 32 34 34 33 35 36 41 46 51 57 76 96 100 100 100 100 100 98 100 100 100 100 92 80 100 98 100 100 100 100 96 89 100 87 75 76 77 59 66 65
28 32 33 31 32 35 36 42 46 44 45 47 52 63 69 85 100 100 100 100 100 100 100 100 96 100 100 100 100 100 100 100 100 99 92 99 95 85 94 70 73 67 67
34 38 34 27 25 26 25 23 24 29 36 46 52 62 57 58 73 99 100 100 100 100 100 100 100 100 100 100 100 100 100 100 100 100 99 93 83 65 77 75 72 72 63
50 44 32 21 14 15 13 14 16 19 26 34 43 58 65 65 57 59 70 100 100 100 100 100 100 100 100 100 96 90 91 88 84 94 88 80 82 77 67 65 61 50 52
37 30 19 12 9 8 9 8 11 16 21 28 32 39 59 72 85 75 65 64 79 97 100 99 100 100 100 100 100 100 93 83 83 73 62 65 67 65 58 61 59 54 49
37 29 20 10 6 5 5 5 7 10 13 19 26 33 44 64 92 97 96 88 72 73 81 86 86 98 94 76 65 69 69 70 80 81 71 69 68 57 60 56 51 44 42
43 31 22 13 7 5 5 5 5 7 9 15 23 32 42 60 100 100 100 100 94 76 70 77 91 82 80 100 81 84 74 72 65 72 61 61 58 60 55 47 44 45 48
41 32 32 26 20 15 15 13 12 14 15 18 24 34 48 75 100 100 100 100 100 88 82 78 76 75 77 86 76 72 76 71 67 66 66 69 49 46 47 46 46 47 44
44 46 42 33 37 29 22 27 36 39 39 42 61 77 90 98 97 97 100 98 91 97 95 88 89 87 77 82 82 84 83 76 65 54 48 54 46 52 51 46 42 38 36
52 57 57 55 46 42 46 51 58 64 80 83 93 96 98 97 91 88 84 91 92 86 79 86 84 83 81 84 87 76 63 57 49 44 47 47 46 46 43 38 36 31 20
63 64 62 64 59 59 56 55 62 66 63 67 70 71 73 74 78 85 86 86 84 92 98 95 97 96 86 81 73 57 49 47 46 41 40 40 39 38 42 28 18 12 10

GFSMA_250_rhum_042.txt.gz
RH
93 90 80 68 52 35 30 30 35 36 36 38 37 38 42 40 38 42 43 57 77 76 81 70 62 59 64 58 57 51 46 43 41 44 48 48 41 42 43 47 41 37 32
76 65 53 42 37 37 38 42 44 48 51 45 43 46 46 45 46 54 57 63 70 77 87 75 71 68 68 68 58 51 51 59 56 55 67 62 48 46 44 45 45 42 39
62 61 54 50 57 55 54 51 52 51 54 59 57 53 68 61 65 64 69 85 88 80 86 87 88 77 78 75 64 57 56 56 64 72 74 64 58 59 54 46 44 46 45
68 62 67 65 54 50 49 48 48 51 52 56 72 86 89 83 100 96 91 89 89 90 95 100 100 96 86 75 70 67 53 71 67 76 83 74 68 63 55 49 45 48 47
58 61 57 56 47 45 44 45 48 55 68 83 97 90 98 89 74 93 100 100 100 99 93 95 96 98 93 88 75 80 71 67 80 78 82 92 79 67 58 51 51 54 49
62 59 63 57 54 49 48 45 51 77 100 100 69 84 100 100 100 100 99 95 88 89 88 76 87 99 98 100 94 88 92 85 83 94 88 91 90 83 72 60 58 64 56
71 66 56 54 48 50 46 41 52 90 98 96 82 100 100 100 100 100 100 95 85 85 96 89 82 99 98 100 99 97 100 100 100 97 91 82 95 90 75 83 73 68 65
58 63 59 53 54 47 47 56 80 83 82 60 77 81 86 76 72 75 90 93 100 100 97 100 100 100 100 100 100 100 100 100 98 85 70 85 88 86 78 83 70 57 64
56 54 54 56 58 54 53 58 68 55 55 66 72 81 82 93 98 100 100 100 100 100 100 100 100 100 100 100 100 100 100 100 92 84 91 78 87 90 99 93 69 64 66
49 44 43 61 64 61 56 69 49 58 70 80 81 100 100 100 100 100 100 100 100 100 100 100 100 100 100 100 100 100 99 98 99 100 83 73 89 89 99 98 83 84 73
52 48 45 49 47 44 59 58 52 57 64 78 99 99 100 100 100 99 98 99 99 99 100 100 100 100 100 100 100 100 100 100 100 100 98 100 100 100 100 100 95 87 74
54 52 50 44 43 43 52 62 68 84 99 100 98 88 71 62 64 75 81 84 95 100 100 100 100 100 100 99 97 100 100 100 100 100 100 100 100 97 98 95 82 100 98
45 48 55 47 50 62 74 81 79 81 70 59 62 66 64 67 69 77 85 88 97 100 100 100 100 99 94 96 100 100 100 100 100 100 100 100 88 95 82 99 89 84 96
54 53 48 61 85 99 98 74 58 49 39 33 34 37 46 54 60 72 85 96 100 96 100 100 100 100 100 100 100 100 100 100 100 100 70 88 72 82 98 96 99 99 100
55 60 78 96 88 64 52 44 37 28 24 22 24 24 28 36 45 62 70 87 100 100 100 100 100 100 100 100 100 100 100 100 92 96 97 86 82 100 88 81 88 80 91
82 87 93 69 42 41 37 37 31 22 16 18 26 30 36 35 41 47 50 57 67 83 100 100 100 100 100 100 100 100 100 86 78 80 80 91 98 100 91 89 94 100 100
85 68 44 41 33 30 34 32 33 23 26 26 29 29 33 38 40 48 62 61 66 67 72 100 100 100 100 100 100 100 100 100 100 100 100 100 95 100 100 100 96 100 99
46 38 32 31 31 34 37 41 28 22 17 16 15 18 26 32 37 41 47 68 78 90 73 92 100 100 100 100 100 100 100 100 100 100 100 100 100 100 100 86 71 73 79
33 30 32 36 40 43 39 29 18 11 9 7 6 7 12 18 29 35 44 56 74 81 92 79 98 100 100 100 100 100 100 100 100 100 100 100 100 97 86 75 76 66 69
32 34 44 47 47 41 32 24 16 11 7 5 5 6 10 16 24 33 52 71 83 91 92 99 93 79 79 99 100 100 100 100 100 100 100 100 96 86 72 62 70 68 60
46 49 55 51 42 40 34 25 19 11 8 6 5 6 10 13 18 25 43 76 94 100 98 95 100 100 100 98 99 100 99 84 86 80 78 75 70 63 65 77 59 53 49
54 56 51 53 50 39 33 36 32 24 17 13 10 11 12 14 20 28 43 63 96 93 98 96 100 100 100 100 99 100 100 96 80 68 65 76 77 70 70 52 45 42 42
55 48 54 52 48 44 42 41 37 36 36 34 33 33 31 24 31 40 54 72 83 86 83 92 92 96 98 100 95 97 91 92 87 84 76 67 58 51 45 41 43 44 43
50 61 57 48 43 43 51 49 43 40 37 38 43 43 55 66 70 75 75 79 84 90 100 100 100 100 100 96 91 83 74 66 57 51 48 44 46 45 44 42 40 38 38
60 68 62 53 47 48 50 48 50 53 54 55 57 57 58 62 66 68 77 90 98 96 94 90 86 80 70 64 62 58 54 53 50 48 49 48 45 45 41 35 32 30 26
67 68 63 53 49 49 52 55 55 58 60 62 64 66 71 74 77 79 84 86 86 87 86 83 78 72 70 73 72 68 61 57 56 52 50 46 39 40 38 24 21 17 13

GFSMA_250_rhum_045.txt.gz
RH
48 46 55 79 87 88 83 67 58 51 46 47 44 43 38 38 41 42 50 60 91 98 94 75 71 78 67 78 80 79 78 65 57 48 56 45 56 60 59 56 46 42 40
62 90 100 100 96 86 77 67 57 54 47 45 46 45 42 39 43 63 83 98 75 100 100 85 81 90 99 98 100 100 94 75 68 55 56 58 59 64 62 59 58 53 47
100 100 100 95 88 72 64 56 52 44 45 44 45 44 44 40 48 83 100 100 67 94 100 100 99 100 100 100 88 85 92 85 76 64 61 58 64 61 68 80 73 68 60
100 98 87 77 64 63 61 66 62 57 55 46 44 41 44 44 46 90 98 100 96 100 100 100 99 100 100 89 94 98 92 66 70 71 62 59 69 76 80 86 86 76 67
88 76 70 66 74 68 71 56 54 53 50 43 43 46 48 51 58 86 100 82 83 96 89 87 93 100 100 89 88 94 100 81 83 77 77 84 89 89 92 89 69 70 64
72 68 66 85 100 95 78 69 58 51 46 45 49 55 58 60 74 67 53 64 69 84 87 66 79 77 79 93 99 100 100 82 92 98 86 84 95 90 79 75 74 62 73
76 98 100 100 87 83 81 64 53 55 52 49 46 54 50 48 65 54 48 57 76 89 99 100 100 100 100 100 100 100 100 98 100 100 100 100 100 93 97 88 68 63 52
100 99 99 91 78 69 59 60 54 51 48 45 44 47 45 47 64 72 97 100 100 100 100 100 100 100 100 100 100 100 100 100 100 100 100 100 97 96 91 67 63 61 55
81 82 85 76 63 66 68 56 53 53 48 45 46 44 45 56 82 98 100 98 89 91 97 94 98 100 100 100 100 100 100 100 100 100 100 100 100 92 74 100 78 69 64
72 63 55 63 67 71 57 57 53 48 47 51 50 52 56 66 76 84 86 100 98 100 100 98 92 88 90 100 100 100 100 100 100 100 100 100 86 98 100 97 76 67 97
83 70 58 55 59 62 60 57 48 43 47 56 69 86 100 95 94 96 88 83 71 79 84 83 90 94 100 100 100 100 100 100 100 100 100 100 100 100 100 100 100 100 100
88 77 66 61 55 58 53 48 44 47 57 74 97 100 100 98 88 60 64 65 60 62 65 73 72 89 90 100 100 100 100 100 100 100 73 100 100 100 100 100 100 100 100
71 76 73 65 60 54 48 42 47 55 75 88 90 86 68 50 37 36 35 43 40 44 54 55 61 71 90 100 100 100 100 100 99 99 100 100 100 100 100 88 60 93 94
73 65 69 68 56 48 56 64 58 80 80 78 52 32 29 27 25 25 29 32 33 38 40 49 59 70 90 82 100 100 100 100 100 100 100 100 100 100 97 69 62 62 67
72 64 65 51 46 58 78 77 72 79 53 30 28 19 22 24 29 33 38 46 47 50 57 55 61 63 68 72 100 100 100 100 100 100 100 87 95 100 93 93 98 97 85
68 57 47 48 65 88 94 85 68 41 35 31 27 26 25 26 26 28 34 35 40 41 47 52 56 68 74 100 94 100 100 100 96 100 100 100 100 100 100 100 100 100 88
55 51 58 83 94 90 72 46 38 32 33 41 32 25 23 19 16 15 17 26 31 39 43 47 54 62 74 100 100 100 100 100 100 100 100 100 100 100 100 100 95 97 100
55 82 93 96 74 56 41 32 35 40 46 36 26 16 14 11 8 7 10 12 20 31 38 54 67 74 81 100 98 96 100 90 100 100 100 100 100 100 100 100 99 100 100
73 84 78 55 44 34 33 40 47 43 40 34 25 16 14 10 7 5 4 7 14 25 32 60 79 88 99 100 92 100 100 98 100 100 100 78 100 100 100 100 100 100 100
73 64 40 37 32 36 47 53 52 42 39 33 32 25 16 12 7 5 4 7 12 20 39 71 98 96 92 100 100 100 100 100 100 100 100 100 100 97 100 100 92 98 87
47 35 31 32 38 48 53 56 53 43 40 38 38 32 26 22 17 10 8 10 15 20 28 51 88 100 100 100 100 100 100 100 100 100 100 100 100 100 100 98 79 85 84
33 31 35 43 49 55 54 54 48 43 39 39 36 33 35 31 33 33 23 27 35 37 47 60 72 87 96 93 92 90 94 97 95 95 95 100 100 86 73 70 80 75 75
33 41 48 52 54 56 56 51 46 44 44 46 43 44 40 39 42 38 41 46 52 60 68 74 84 92 94 96 97 99 91 94 89 85 84 75 72 68 70 68 64 58 54
44 49 52 55 59 59 53 48 45 46 52 52 52 52 50 50 48 42 44 48 51 55 59 61 64 68 71 74 79 76 71 69 67 69 75 66 62 58 55 52 50 46 42
50 54 53 65 61 54 52 50 50 57 60 60 57 54 56 60 61 60 64 68 72 77 80 81 84 87 87 84 86 82 83 81 79 75 76 73 65 61 52 45 39 35 32
54 54 56 61 60 62 55 57 61 65 64 58 59 61 64 68 74 77 77 76 79 83 89 91 91 94 94 91 89 87 86 86 84 79 74 65 51 46 38 28 26 24 22

GFSMA_250_rhum_048.txt.gz
RH
68 72 68 59 52 56 76 92 97 94 83 66 48 46 49 50 49 50 45 43 45 47 51 60 100 82 91 81 99 97 90 98 100 98 89 76 60 52 53 45 46 49 60
80 70 61 58 66 98 100 100 94 78 64 58 55 48 48 51 52 52 46 47 46 46 50 72 100 100 93 73 100 100 100 100 98 81 100 88 73 67 50 54 56 56 62
70 67 69 89 100 100 100 98 84 71 71 68 59 54 57 56 52 45 49 48 48 49 48 58 88 78 75 93 98 98 78 88 89 97 100 86 70 62 62 68 68 58 70
70 78 93 100 100 100 96 85 83 81 82 80 67 70 56 56 51 51 52 49 50 49 50 73 68 54 68 68 85 86 74 81 85 90 96 100 72 76 70 67 79 77 72
85 100 100 100 100 98 90 86 78 80 83 79 72 62 58 59 54 55 50 48 51 52 48 57 63 70 78 80 84 86 92 99 95 99 99 100 94 89 98 98 89 88 81
97 100 100 100 98 89 91 89 92 83 89 79 63 58 64 60 56 53 48 52 58 55 56 70 77 88 94 96 100 100 100 100 100 100 100 100 100 100 100 100 100 92 99
100 100 96 94 85 83 87 89 80 79 84 81 66 57 56 56 52 45 45 54 63 69 91 100 100 93 100 100 100 100 100 100 100 100 100 100 100 100 100 100 100 99 97
100 100 100 100 94 85 79 71 73 76 86 74 58 53 54 52 50 51 51 56 70 83 92 90 91 94 99 100 97 95 100 100 100 100 100 100 100 100 100 99 89 94 94
100 100 100 100 100 79 68 66 70 68 68 64 57 55 56 50 50 61 58 64 78 97 100 100 100 100 100 100 100 100 100 100 100 100 100 100 100 100 100 100 100 86 83
88 75 82 67 64 69 77 70 73 65 62 60 59 58 51 49 52 66 94 98 98 93 84 78 84 98 100 100 100 100 100 100 100 100 100 100 100 100 100 100 99 100 98
99 82 68 66 64 67 71 71 63 68 60 58 62 51 58 61 84 85 91 96 73 62 45 50 49 62 74 77 90 100 100 100 100 100 100 100 100 100 100 100 100 100 87
93 96 90 83 75 69 63 63 67 64 60 56 49 53 66 82 92 98 77 50 40 44 41 38 41 47 67 73 64 87 93 100 100 100 100 100 100 100 100 100 100 90 58
90 91 84 76 75 67 70 71 63 62 52 44 43 54 80 93 78 39 30 26 23 30 37 45 42 48 57 67 64 100 58 100 96 100 100 100 100 100 100 100 93 100 100
82 82 82 83 88 88 81 63 61 50 36 40 63 91 90 52 36 28 27 29 34 40 35 33 32 39 50 62 71 75 73 100 99 99 100 100 93 90 100 100 100 100 100
87 90 98 99 95 85 69 62 43 37 49 68 84 53 38 32 27 31 31 28 28 26 24 28 24 31 38 47 60 78 71 78 100 100 100 100 100 100 100 100 100 100 100
100 100 99 92 81 66 56 36 45 52 73 73 52 39 32 38 44 40 30 22 15 15 13 16 20 27 37 44 48 75 82 73 93 100 100 100 100 100 100 100 100 100 100
100 98 89 70 65 48 30 51 67 80 67 47 36 34 45 48 45 37 25 16 14 12 8 8 12 20 34 57 60 67 70 79 82 100 100 100 100 100 100 100 100 100 100
91 76 71 59 34 30 54 70 65 63 43 32 35 46 45 43 38 32 28 20 16 9 7 5 8 10 14 57 99 100 100 96 98 100 100 76 100 100 100 100 100 100 100
78 60 46 33 43 68 74 56 57 42 34 40 48 45 47 39 37 35 33 26 17 12 6 5 7 12 20 49 100 100 100 100 100 98 100 100 98 100 100 100 100 100 100
48 43 42 60 77 63 50 48 34 34 45 50 46 50 40 38 38 40 37 35 29 22 13 11 15 24 34 51 100 100 100 100 100 100 100 100 100 100 100 100 100 100 99
63 67 78 78 52 50 42 33 39 50 48 49 53 46 41 42 44 45 43 38 36 36 34 29 33 30 42 55 77 87 99 100 100 100 96 99 100 100 100 100 97 100 100
84 83 59 55 46 37 35 44 52 49 48 53 49 46 48 49 54 48 43 42 48 46 43 43 50 55 58 67 74 92 90 88 87 85 86 78 79 84 93 98 87 86 92
59 71 44 43 37 35 44 51 52 51 56 54 50 49 53 53 57 54 51 48 45 48 52 58 58 57 56 62 71 75 72 71 76 74 75 73 70 73 71 70 69 71 74
50 46 40 38 39 41 50 55 52 55 60 51 49 54 57 61 60 62 65 66 63 61 62 61 64 65 65 66 68 71 74 78 82 82 85 80 81 76 77 75 72 71 72
49 39 38 40 41 47 55 57 53 58 55 52 55 62 66 66 68 65 66 69 70 70 70 68 67 74 83 91 97 95 93 92 92 91 94 92 87 78 73 66 61 58 56
39 38 38 39 44 51 54 57 54 60 60 55 59 62 65 69 76 81 79 78 74 69 65 62 63 68 72 74 75 76 75 75 72 72 73 74 67 63 60 57 55 51 49

GFSMA_250_rhum_051.txt.gz
RH
60 63 62 62 68 72 68 63 62 83 91 96 95 88 80 71 68 63 65 63 58 55 56 54 50 47 51 54 69 96 78 60 74 83 100 100 91 82 86 82 64 59 56
80 81 74 71 70 66 67 65 87 100 100 99 90 83 79 70 74 69 58 61 62 58 55 54 50 52 63 62 54 89 100 73 80 86 90 87 81 85 86 95 67 66 62
82 77 73 74 70 74 78 87 99 100 98 94 82 75 65 62 60 56 62 73 62 55 58 52 49 47 54 61 70 66 62 76 90 81 88 95 83 88 88 96 95 74 79
92 89 83 77 74 82 88 100 100 100 98 82 74 65 61 58 56 62 71 68 59 58 54 50 48 49 52 55 54 64 89 93 86 95 100 100 100 100 100 100 100 100 100
94 86 81 82 86 96 100 100 100 100 90 81 72 64 58 52 66 76 71 64 62 52 49 50 55 54 56 69 89 100 100 100 100 100 93 99 100 100 100 100 100 100 100
88 87 83 88 93 100 100 100 100 96 94 82 69 64 62 70 83 73 67 65 57 52 46 57 66 81 96 98 98 100 100 100 100 100 100 100 100 100 100 100 100 100 100
88 81 91 94 100 100 100 100 100 98 90 76 68 72 71 80 76 67 64 60 53 44 58 82 86 100 100 100 100 100 100 100 100 100 100 100 100 100 100 100 100 100 100
100 100 99 100 100 100 100 100 95 87 81 77 80 72 79 81 80 68 63 54 44 41 53 78 93 94 99 88 70 90 99 100 100 100 100 100 100 100 100 100 100 100 100
100 100 100 100 100 100 100 100 97 84 81 84 84 78 74 86 77 67 58 46 41 62 77 84 76 64 59 54 56 57 72 94 98 98 100 100 100 100 100 100 100 100 100
100 100 100 100 100 100 100 97 88 83 83 91 82 84 82 74 69 60 44 48 64 77 65 49 33 38 40 38 41 44 49 95 66 80 100 100 100 100 100 100 100 100 100
92 85 82 93 96 85 80 77 82 88 87 86 82 90 83 72 61 42 40 48 56 54 36 33 33 37 38 42 49 46 56 65 100 88 79 100 100 100 100 100 100 100 100
97 97 100 89 86 82 79 80 86 91 90 89 89 88 76 64 45 40 29 36 33 29 24 27 34 37 40 43 47 43 44 47 80 100 88 100 97 100 100 100 100 100 100
100 100 100 99 98 95 98 94 95 100 89 93 87 80 65 45 37 32 41 42 26 23 28 43 40 36 34 32 39 40 36 51 47 93 100 99 100 97 100 100 100 100 100
100 95 100 100 100 96 98 97 94 86 82 88 77 66 45 36 42 59 47 31 24 28 37 41 33 27 24 21 25 35 44 29 50 50 84 100 100 100 99 100 100 100 100
100 100 99 100 100 100 100 95 93 90 86 73 63 43 40 51 53 47 30 27 28 35 38 36 28 24 19 14 16 25 44 29 41 48 59 77 100 100 100 100 100 100 100
100 100 100 100 99 100 96 98 89 88 76 55 38 43 53 48 38 32 29 38 40 35 34 36 29 22 17 10 7 12 28 33 40 54 70 80 92 100 100 100 100 96 100
100 100 100 100 98 96 97 90 89 70 48 35 46 55 60 42 33 30 43 46 42 37 36 37 34 25 18 9 5 6 13 26 38 73 99 75 79 100 100 100 96 93 100
100 94 100 100 100 96 91 71 50 41 36 60 66 62 44 36 36 42 45 45 41 43 41 42 40 32 22 14 8 10 12 21 51 84 100 99 100 100 100 100 100 85 100
100 99 99 94 92 80 49 36 38 38 72 74 59 47 38 40 44 44 48 42 46 43 42 43 43 39 30 25 24 23 29 58 72 88 100 100 100 100 100 100 100 100 100
97 100 90 76 52 42 38 45 60 72 69 56 45 36 41 44 47 52 46 44 47 45 45 46 44 42 47 50 45 42 44 58 73 73 100 100 100 100 100 100 100 100 100
89 68 44 48 40 48 74 69 61 56 48 42 37 40 45 49 55 52 46 47 49 49 50 45 43 44 44 45 51 58 58 54 59 78 82 93 100 100 100 100 100 100 100
55 55 53 58 74 66 68 40 54 41 36 39 41 49 51 52 58 49 49 54 53 50 51 54 53 53 53 46 42 43 54 67 73 72 68 73 88 94 88 88 89 100 100
76 67 79 86 65 57 42 53 37 36 38 42 48 53 51 54 55 54 57 56 56 58 61 66 69 63 58 52 57 56 57 59 64 75 90 94 90 96 92 94 98 84 85
100 99 96 76 58 47 51 38 37 35 38 45 54 54 54 58 61 59 56 59 64 71 75 72 71 64 59 57 60 63 70 76 78 79 84 83 70 68 72 80 86 87 87
100 100 86 62 55 53 42 38 37 39 42 47 56 56 57 61 63 60 60 69 75 79 83 79 69 65 60 56 57 57 59 62 65 67 71 75 75 73 73 73 70 66 60
100 82 75 67 53 44 39 36 39 40 42 46 53 55 57 62 69 72 79 84 89 91 86 76 73 63 59 59 61 63 63 63 62 58 59 59 55 55 56 58 58 57 56

GFSMA_250_rhum_054.txt.gz
RH
57 56 56 54 54 60 72 70 64 65 66 55 66 76 90 89 85 79 74 66 61 54 54 68 69 68 63 53 47 42 53 58 78 80 89 94 91 82 81 78 89 83 71
58 58 61 61 62 63 65 67 81 77 62 65 71 86 93 86 87 82 72 66 58 59 68 72 70 70 60 50 42 47 58 62 68 74 86 86 85 88 84 90 100 98 99
69 75 74 64 59 58 65 93 84 69 67 74 88 97 96 95 83 78 74 64 64 70 73 75 72 67 52 47 41 51 60 61 70 78 86 93 99 99 98 100 100 100 100
72 74 71 65 64 75 100 89 77 71 68 79 97 95 93 89 84 81 70 66 72 77 77 77 74 61 50 43 46 68 92 100 100 100 100 100 100 100 100 100 100 100 100
74 76 71 72 87 100 93 83 75 73 87 92 94 89 84 90 86 76 76 76 83 83 80 77 65 54 46 42 57 77 100 96 93 100 100 100 100 100 100 100 100 100 100
94 88 96 99 99 93 86 83 88 93 92 86 88 87 87 87 85 84 83 92 87 80 84 70 59 49 44 56 62 90 67 52 54 76 94 100 100 100 100 100 100 100 100
90 92 98 100 94 89 92 92 97 95 90 88 84 93 86 91 87 90 93 90 88 87 80 67 54 47 45 46 62 41 44 47 42 44 64 85 95 100 100 100 100 100 100
84 89 96 100 100 100 100 100 93 86 96 93 83 84 96 94 95 97 92 93 94 87 69 60 49 44 48 38 33 36 30 32 35 39 43 54 94 100 100 100 100 100 100
94 97 92 90 98 100 100 100 98 99 100 100 100 100 98 96 100 99 98 96 88 71 65 50 49 44 39 41 33 27 29 39 44 48 52 52 55 69 100 100 100 100 100
100 100 100 100 100 100 100 100 100 100 100 100 100 100 93 97 96 92 94 93 77 67 56 54 50 47 36 28 27 34 37 37 36 34 41 50 69 98 98 100 100 100 100
100 100 100 100 100 100 100 100 100 100 100 100 100 96 100 95 85 81 84 78 67 55 47 50 42 34 26 26 35 35 31 32 37 41 40 37 54 88 100 100 100 100 100
100 100 100 100 100 100 100 100 100 100 94 93 99 98 97 89 88 77 70 64 47 41 52 48 40 27 28 37 36 32 31 30 32 34 42 40 42 55 100 98 86 98 100
100 100 100 100 100 100 99 100 95 96 96 100 100 98 98 88 79 72 63 39 32 41 50 54 32 28 38 38 35 34 30 27 26 25 32 46 46 46 79 100 83 88 86
100 100 100 100 100 100 100 100 100 100 100 100 93 88 81 80 74 64 36 29 29 36 57 37 37 40 38 35 33 33 33 25 18 14 17 26 38 40 61 81 100 97 100
100 100 100 100 100 100 100 100 100 100 94 88 89 90 78 74 61 37 32 33 29 38 38 42 42 46 40 37 35 37 34 25 16 8 8 19 30 44 67 82 100 100 100
100 100 100 100 100 100 100 100 95 95 89 90 91 77 75 56 35 40 40 35 31 31 36 42 47 45 41 40 38 36 36 25 17 8 8 13 38 53 52 82 100 100 100
100 100 100 100 100 100 98 94 93 84 86 77 69 59 45 34 49 48 38 33 34 34 40 44 48 43 44 42 42 36 32 26 24 17 14 23 38 54 60 89 100 100 100
100 100 99 96 95 91 94 89 79 71 60 55 43 41 41 58 66 39 33 34 35 45 45 47 48 44 50 48 44 40 34 33 32 27 31 39 48 70 70 99 100 100 100
69 75 77 75 90 79 80 62 60 48 52 44 41 55 60 65 40 34 37 37 45 48 46 54 47 46 50 49 48 49 45 38 34 40 46 43 61 80 95 100 100 100 100
44 53 57 55 84 71 59 57 48 49 54 42 62 76 64 44 38 36 38 46 49 49 55 55 47 52 51 51 50 46 43 47 52 47 47 58 60 61 76 87 92 85 100
58 60 76 82 74 61 59 56 54 54 53 63 74 64 41 41 36 37 41 50 52 54 61 55 53 54 55 58 58 53 51 53 50 53 60 60 64 66 68 72 78 88 79
71 81 81 83 69 66 59 56 64 68 70 76 55 39 38 34 37 40 46 51 58 60 63 60 59 61 65 74 68 60 63 58 59 59 62 62 64 63 69 78 79 80 78
65 94 76 87 72 71 73 80 68 72 57 48 42 35 35 38 42 45 46 56 60 60 63 70 70 74 82 81 69 66 64 60 63 66 72 69 69 69 68 71 69 68 70
69 68 100 100 79 85 100 81 71 59 52 43 36 37 37 40 43 47 52 62 66 68 69 72 78 90 89 80 79 70 63 62 63 64 68 71 64 60 58 59 59 64 70
99 100 84 85 98 100 91 66 49 58 46 41 39 38 40 46 49 55 60 65 67 70 77 88 90 87 86 86 76 67 68 67 63 64 66 68 61 50 46 49 53 55 54
100 93 100 100 100 94 84 57 59 51 46 41 41 44 49 53 59 63 70 77 82 89 92 89 87 88 77 71 70 72 75 68 64 65 66 58 42 42 46 50 48 45 43

GFSMA_250_rhum_057.txt.gz
RH
50 54 55 56 54 54 54 56 58 56 55 55 61 74 70 62 59 58 70 69 74 79 89 85 66 74 75 74 71 78 66 54 47 44 52 56 77 75 74 82 82 88 74
56 59 57 55 58 59 63 68 68 60 58 59 80 76 68 66 61 65 74 74 79 90 86 77 75 80 77 71 76 75 62 51 46 45 52 80 92 84 76 76 78 99 97
63 60 57 60 62 61 64 63 62 64 75 90 88 77 65 67 69 74 71 79 90 86 82 80 85 76 76 77 79 64 59 47 49 68 85 99 81 75 100 100 100 100 100
66 64 69 66 69 74 73 78 82 95 93 89 81 75 78 76 78 78 79 91 92 86 85 89 78 79 73 78 69 61 53 54 62 82 75 51 57 87 80 100 100 100 100
81 78 77 78 88 92 95 92 95 90 87 90 87 88 79 79 84 94 94 93 94 94 93 84 77 76 73 71 61 56 45 51 60 62 40 41 39 93 77 70 100 100 100
90 89 82 87 87 96 100 100 89 91 95 83 85 82 91 91 99 99 98 98 99 93 86 79 78 70 73 62 56 42 41 45 43 32 32 32 36 46 50 54 77 100 100
96 100 100 100 98 100 96 91 96 93 97 94 99 99 100 100 100 93 100 100 97 92 83 78 76 76 67 57 44 33 35 38 30 31 33 43 50 53 55 50 60 100 100
100 100 100 100 100 99 98 98 99 98 96 98 94 99 100 100 95 100 100 100 100 95 81 80 83 69 61 51 32 29 31 31 28 37 44 41 38 41 46 56 59 74 100
100 100 100 100 100 100 100 100 96 95 100 100 100 92 91 100 100 100 100 100 100 87 83 89 74 66 53 34 29 29 28 25 36 40 37 37 40 38 44 45 64 72 78
100 100 100 98 94 95 100 100 100 100 100 100 100 100 100 100 100 100 100 100 97 87 93 85 73 54 39 29 28 28 24 31 38 37 35 37 39 44 44 44 48 78 100
97 90 92 98 100 100 100 100 100 100 100 100 100 100 100 100 100 92 93 98 84 100 88 73 57 42 34 32 29 22 27 37 38 34 32 31 34 34 37 45 44 48 69
100 100 100 100 100 100 100 100 100 100 100 100 100 100 100 98 95 97 96 83 83 78 64 59 46 38 40 28 26 25 36 38 37 37 31 26 27 24 29 33 38 54 70
100 100 100 100 100 100 100 100 100 100 100 100 100 100 100 99 100 94 86 80 67 56 55 57 48 50 34 27 28 33 39 40 38 38 37 30 25 19 14 19 35 51 62
100 100 100 100 100 100 100 100 100 100 100 100 100 100 100 100 97 88 77 62 44 31 49 51 60 44 29 32 35 41 43 40 38 38 39 26 20 16 7 10 22 40 55
100 100 100 100 100 100 100 100 100 100 100 100 100 100 100 99 82 75 56 38 24 29 50 64 52 35 34 36 44 45 46 41 40 38 32 23 19 18 8 10 25 45 58
100 100 100 100 100 100 100 100 100 100 100 100 100 98 93 80 64 49 33 24 25 36 54 59 36 36 38 45 47 50 48 45 47 42 41 27 20 17 17 19 35 58 85
100 100 100 100 100 100 100 100 100 100 100 96 86 79 61 50 37 28 26 33 33 42 50 35 36 38 42 50 50 53 48 48 46 45 46 33 22 21 26 40 58 62 66
86 85 84 87 86 82 81 78 77 76 64 57 44 46 41 36 32 29 31 34 38 45 36 35 36 38 50 53 54 55 52 54 51 59 54 48 41 40 45 47 57 69 96
60 58 64 58 52 49 46 42 38 35 32 34 38 38 38 38 33 34 38 44 43 31 33 35 40 43 56 54 60 59 59 59 62 70 68 54 53 56 55 57 65 64 69
65 52 35 26 26 23 24 28 34 47 58 50 52 43 46 42 45 41 47 41 31 33 34 39 44 53 54 56 62 67 68 68 74 73 72 68 61 60 57 60 62 61 69
24 22 22 20 33 42 45 52 80 81 68 73 47 60 56 52 47 51 34 32 32 34 37 44 52 56 60 60 64 67 72 76 75 71 70 67 66 68 71 68 60 57 63
22 27 28 83 66 60 38 100 100 90 86 79 76 67 70 58 56 35 32 30 33 37 43 48 52 58 59 64 66 78 81 79 79 73 66 64 62 61 64 66 70 70 71
62 76 32 57 48 91 100 89 79 86 98 97 81 77 75 51 35 34 32 36 41 45 48 52 53 55 64 78 84 87 88 79 72 70 71 66 66 65 62 64 66 68 67
28 27 35 58 87 98 94 70 90 100 98 88 80 81 60 44 42 37 40 46 52 49 56 61 66 79 88 91 93 86 75 70 70 74 74 71 66 65 65 66 66 64 56
30 40 65 94 71 60 64 100 100 90 100 98 87 59 55 52 47 44 48 51 56 59 63 70 76 80 80 74 69 70 72 76 75 71 67 68 69 67 64 63 57 49 45
59 62 70 70 71 100 100 100 91 99 100 90 73 67 61 62 62 54 54 57 62 63 62 62 63 66 69 72 74 70 70 72 71 71 71 67 67 66 61 54 45 46 45

GFSMA_250_rhum_060.txt.gz
RH
47 51 52 53 54 54 55 59 60 56 52 50 53 61 67 68 77 73 59 54 57 60 73 80 90 92 98 100 94 75 64 66 64 67 58 52 44 53 76 91 90 82 66
47 51 51 52 56 58 61 59 58 57 58 63 72 86 78 79 73 74 58 62 59 66 76 88 98 97 100 98 79 70 65 66 67 68 54 42 56 78 83 87 79 79 90
54 56 55 57 62 63 60 64 67 68 66 78 87 85 83 78 77 74 70 68 69 82 91 93 100 100 100 86 67 64 68 67 68 60 49 36 52 49 54 53 46 61 85
71 65 61 59 65 69 76 79 82 80 82 89 90 86 85 80 79 81 81 84 92 97 100 98 100 100 92 70 71 71 68 66 62 50 38 39 33 33 36 33 37 44 56
82 84 81 82 83 85 89 88 91 89 96 94 88 87 88 92 90 93 95 92 96 100 98 100 95 90 77 72 72 70 70 62 53 37 33 31 29 29 31 35 39 40 58
83 90 91 90 92 91 91 95 95 100 94 90 90 93 91 88 92 88 94 100 100 100 99 91 86 79 72 70 72 67 64 53 45 28 33 26 26 29 40 43 44 48 53
100 100 98 93 97 100 98 100 100 96 99 97 100 98 98 93 88 92 100 100 98 100 89 86 79 74 71 72 71 66 55 41 28 31 33 25 29 39 40 40 41 41 44
100 99 94 92 97 96 94 99 100 100 100 99 94 99 100 100 100 100 100 100 94 94 95 87 83 73 73 73 71 59 41 27 24 36 26 31 38 36 39 40 40 46 49
100 100 100 100 100 100 100 100 100 100 100 100 98 100 100 100 100 100 100 100 100 97 96 89 80 79 77 70 62 47 26 26 28 26 27 35 39 42 36 34 38 44 47
100 100 100 100 100 100 100 100 100 100 100 100 100 100 100 100 100 100 100 100 100 100 97 89 80 81 74 63 50 29 24 25 28 28 29 40 42 37 31 40 43 41 44
100 100 100 100 100 100 100 100 100 100 100 100 100 100 100 100 100 100 100 100 100 100 94 85 84 75 65 51 32 23 27 34 26 30 37 42 42 35 30 27 28 29 26
100 100 100 100 100 100 100 100 100 100 100 100 100 100 100 100 100 100 100 100 100 99 94 89 79 64 48 37 29 30 34 29 29 34 43 44 43 33 33 27 20 17 16
100 100 100 100 100 100 100 100 100 100 100 100 100 100 100 100 99 94 90 86 95 98 93 74 58 45 40 31 36 32 32 30 33 39 44 45 39 35 33 27 16 13 13
100 100 100 100 100 100 100 100 100 100 100 100 100 100 100 100 99 84 93 93 91 79 61 49 40 38 30 33 34 36 30 33 33 44 47 47 45 40 33 23 17 15 13
100 100 100 100 100 100 100 100 100 100 100 100 100 100 96 90 86 88 82 74 58 45 38 43 43 32 30 36 40 30 34 37 39 48 48 47 48 47 38 24 21 21 14
100 100 100 100 100 100 100 100 100 100 100 100 100 96 86 82 79 73 59 46 40 40 41 40 32 34 41 42 32 34 35 40 49 51 52 52 55 58 53 35 24 25 21
100 100 100 100 100 100 100 100 100 100 100 96 87 79 71 55 48 39 46 49 44 41 37 32 36 37 38 32 36 36 41 44 54 56 55 60 62 69 74 56 45 41 38
100 100 100 100 100 100 100 100 100 92 89 83 78 62 41 31 38 40 56 54 43 44 36 29 30 34 29 33 36 38 44 50 58 58 58 63 62 75 74 67 55 55 55
99 96 95 89 90 85 82 82 79 80 77 67 55 39 32 41 76 58 61 53 58 45 37 28 34 29 30 33 38 40 46 53 60 60 64 64 76 77 68 67 65 62 59
53 55 63 63 56 53 52 55 56 59 56 46 36 40 57 80 80 69 68 55 65 44 34 35 29 30 33 38 41 45 50 58 62 67 69 73 79 66 63 61 63 70 70
35 33 40 44 42 44 42 40 60 48 37 40 46 54 77 64 77 68 56 61 53 40 35 31 31 34 39 45 45 53 61 67 76 83 86 80 65 59 59 61 63 66 70
23 31 19 23 26 26 32 33 32 25 70 54 58 91 93 75 85 63 72 64 54 39 35 34 36 43 50 53 60 68 77 78 88 71 63 63 66 68 62 62 61 62 64
23 25 23 21 22 28 23 26 33 43 78 58 90 77 81 81 72 76 94 75 49 43 41 40 44 53 63 68 69 70 73 71 68 66 64 64 67 68 66 65 66 67 67
22 22 23 21 21 25 25 26 28 45 65 69 81 80 74 96 95 82 75 63 56 58 62 54 56 62 63 61 61 63 64 64 67 67 68 67 68 66 65 65 68 73 74
26 26 26 24 24 25 27 28 47 53 70 82 67 94 100 100 78 95 94 73 63 62 75 69 63 61 62 63 63 62 66 69 71 72 72 68 68 70 70 71 77 84 80
26 27 25 26 26 29 42 53 70 82 78 82 100 98 100 98 94 93 81 79 68 68 74 78 73 68 68 72 70 69 72 76 82 80 75 75 78 77 75 78 84 81 64

GFSMA_250_rhum_063.txt.gz
RH
43 50 50 48 48 52 57 59 56 56 54 55 54 53 56 60 66 70 66 57 57 58 60 63 68 65 77 93 89 96 98 93 68 61 54 59 62 59 52 35 41 54 63
58 48 52 55 55 55 56 55 54 55 56 56 62 65 80 79 74 74 61 60 60 64 67 74 76 81 91 96 100 100 99 67 60 57 63 62 62 50 34 29 41 33 34
66 67 65 58 59 58 57 58 59 60 62 63 75 90 84 80 81 75 72 72 71 70 72 74 76 94 93 94 96 98 82 65 70 61 63 62 52 35 23 30 26 23 26
75 67 67 71 74 76 77 76 76 72 80 85 82 88 87 85 86 85 82 76 79 75 74 74 90 96 95 100 100 90 72 74 64 64 63 56 42 25 22 21 22 26 34
72 73 76 68 66 70 75 79 84 87 89 89 84 88 88 93 99 94 82 88 82 78 84 92 97 100 100 100 85 82 78 73 67 61 59 48 35 19 25 20 25 36 41
86 80 78 81 83 84 84 82 79 82 89 85 95 90 97 100 97 89 93 89 92 100 99 99 100 100 99 90 87 73 72 63 64 61 51 38 26 24 24 24 30 39 42
68 74 84 86 89 100 100 94 96 100 100 98 97 100 100 98 95 99 98 100 100 100 100 100 100 98 89 85 72 71 68 64 62 52 40 32 21 26 24 29 36 39 40
74 80 88 98 100 100 100 100 100 100 100 100 100 99 100 100 100 100 100 100 100 99 100 99 93 86 80 72 64 65 67 62 51 39 32 23 24 26 27 32 40 42 41
89 96 100 98 100 100 100 100 100 100 100 100 100 100 100 100 100 100 100 100 99 98 95 87 77 76 75 70 66 64 54 50 39 30 29 24 26 24 30 39 39 40 41
85 96 100 100 100 100 100 100 100 100 100 100 100 100 100 100 100 100 100 100 100 98 89 84 83 74 70 66 59 53 48 38 31 29 25 32 28 26 31 38 44 45 36
78 79 95 100 100 100 100 100 100 100 100 100 100 100 100 100 100 100 100 100 100 99 88 84 73 69 61 55 49 40 36 30 28 26 35 34 30 31 34 39 40 39 39
100 98 100 100 100 100 100 100 100 100 100 100 100 100 100 100 100 100 100 100 100 100 91 83 70 66 55 44 37 30 27 26 29 36 34 31 33 35 38 43 38 32 26
100 100 100 100 100 100 100 100 100 100 100 100 100 100 100 100 100 100 100 100 100 100 89 78 68 54 46 34 28 28 26 28 34 34 30 35 35 40 46 48 40 34 26
100 100 100 100 100 100 100 100 100 100 100 100 100 100 100 100 100 100 100 100 100 97 89 72 61 46 36 32 32 29 28 31 34 34 33 35 38 44 49 50 44 42 40
100 100 100 100 100 100 100 100 100 100 100 100 100 100 100 100 100 100 100 100 94 82 80 65 50 42 35 40 34 29 26 30 32 29 33 37 42 50 53 54 50 44 40
94 100 100 100 100 100 100 100 100 100 100 100 100 100 100 100 100 100 97 89 83 75 67 50 41 40 38 35 30 25 26 30 28 30 35 40 45 51 54 56 53 51 52
98 100 100 100 100 100 100 100 100 100 100 100 100 100 100 100 100 95 89 80 70 59 48 43 46 47 43 32 26 24 26 26 30 33 39 43 49 53 57 57 60 69 59
96 96 99 100 100 100 100 100 100 100 100 100 100 100 100 99 87 77 64 63 50 43 45 44 48 56 45 33 30 27 26 29 34 40 43 48 53 55 59 63 67 69 64
60 78 94 100 100 100 100 100 100 100 100 100 99 89 84 81 63 52 50 43 45 49 43 66 56 63 45 34 30 27 31 35 44 45 49 56 59 63 66 66 60 61 64
35 42 52 66 68 72 79 81 83 79 76 69 67 58 58 48 42 44 35 47 64 46 66 80 65 57 43 37 31 34 36 46 51 54 60 67 75 76 60 53 59 60 60
30 32 28 30 35 40 39 43 54 55 55 44 46 42 36 36 37 47 58 63 52 66 77 68 67 63 44 37 39 40 46 53 60 63 70 73 64 56 56 61 61 61 61
21 22 19 22 19 24 28 30 33 34 26 28 33 33 26 42 73 43 58 63 68 71 82 69 85 63 58 47 53 57 57 59 62 60 60 58 56 58 59 60 61 62 62
39 62 66 40 41 53 50 45 44 31 27 33 58 38 31 58 46 62 61 69 91 90 90 94 83 72 57 53 63 74 69 65 61 62 58 59 62 63 65 67 68 68 70
26 27 26 27 27 28 33 36 30 31 29 24 26 30 31 33 65 71 85 93 96 100 99 89 75 80 56 58 62 70 81 82 74 68 67 63 63 65 66 67 73 75 73
25 26 26 26 27 28 28 28 46 33 28 25 28 31 38 61 71 97 100 98 100 100 88 87 92 73 64 63 66 67 71 79 85 83 78 76 72 72 76 79 78 75 70
25 27 28 28 28 28 29 32 33 34 32 30 35 47 63 76 100 100 100 100 100 90 95 94 90 69 64 72 71 70 72 71 72 74 78 75 76 77 76 76 74 73 74

GFSMA_250_rhum_066.txt.gz
RH
78 65 62 48 39 41 48 52 53 52 54 54 55 55 52 49 49 50 54 60 61 66 71 64 62 61 60 56 59 72 84 88 89 95 80 62 52 53 48 44 34 34 25
78 78 74 61 59 48 40 40 43 48 51 50 51 52 53 55 60 68 64 66 67 71 72 70 62 67 57 61 72 77 85 91 98 83 63 54 51 41 39 34 27 29 21
75 92 87 74 71 64 58 52 50 50 52 54 57 60 66 67 72 70 73 75 83 85 81 72 71 63 70 84 88 90 91 90 81 63 58 54 45 37 30 30 28 24 21
91 80 86 85 75 66 63 63 58 57 61 67 66 70 74 74 77 80 83 93 96 94 86 77 74 79 87 92 94 98 98 83 68 56 54 45 38 28 26 25 26 22 20
100 100 95 94 88 77 71 69 71 72 75 74 78 84 86 96 97 100 100 100 96 89 85 86 87 90 95 100 96 98 91 76 60 55 47 43 33 23 25 26 26 24 21
100 96 88 86 85 85 89 88 94 91 88 94 95 100 100 100 100 100 100 97 94 90 92 92 99 98 99 99 98 92 75 66 59 53 46 39 24 21 24 25 25 24 24
81 76 73 84 90 89 85 85 82 97 100 100 100 100 100 100 100 100 100 96 89 98 99 90 99 100 100 99 92 79 73 62 58 52 42 38 22 22 27 30 31 26 28
100 100 100 96 94 79 77 75 82 94 99 100 100 100 100 100 100 100 100 100 100 100 100 100 100 100 100 96 92 76 72 66 59 50 44 34 22 24 23 28 27 27 32
90 91 95 92 96 85 94 84 83 93 100 100 100 100 100 100 99 100 100 100 100 100 100 100 100 100 94 91 82 77 73 63 56 48 43 27 25 24 25 22 29 31 32
98 100 96 93 84 83 77 83 87 100 100 100 100 100 95 93 98 100 100 100 100 100 100 100 100 94 90 85 80 79 69 61 48 42 35 24 26 29 23 27 25 34 37
100 100 100 100 99 100 99 80 67 92 94 100 100 100 100 100 100 100 100 100 100 100 100 100 99 96 94 82 81 70 66 58 43 36 28 24 23 27 25 28 31 30 39
100 100 100 100 100 97 98 100 100 100 100 97 100 100 100 100 100 100 100 100 100 100 100 100 100 94 90 86 78 69 59 46 38 31 24 21 22 25 27 28 34 33 37
100 100 100 100 100 100 100 100 99 100 100 100 100 100 100 100 100 100 100 100 100 100 100 100 100 93 94 85 77 63 50 38 31 24 22 21 21 23 26 31 36 36 41
100 100 100 100 100 100 100 100 100 100 100 100 100 100 100 100 100 100 100 100 100 100 100 100 98 95 87 77 67 55 41 33 27 23 21 22 20 22 28 32 38 39 47
98 100 100 100 100 100 100 100 100 100 100 100 100 100 100 100 100 100 100 100 100 100 100 100 99 82 79 66 52 44 37 32 32 25 22 21 22 27 32 38 40 46 52
86 93 96 98 98 99 100 100 100 100 100 100 100 100 100 100 100 100 100 100 100 100 100 100 94 74 64 48 41 39 30 36 32 25 24 22 26 32 40 41 48 55 58
73 72 75 77 84 92 89 95 100 100 100 100 100 100 100 100 100 100 100 100 100 100 97 83 76 64 49 38 38 33 49 43 31 31 27 27 33 42 43 47 56 59 66
57 54 59 68 68 68 67 63 70 84 85 91 96 100 100 100 100 100 100 100 90 84 75 66 55 45 42 39 42 63 49 40 39 33 32 35 43 47 51 58 65 74 83
26 34 35 34 32 33 35 36 35 41 47 60 73 80 86 89 96 88 80 75 69 63 57 50 40 45 43 52 64 69 61 46 43 39 39 44 49 54 62 64 69 64 61
21 21 22 22 22 22 22 24 26 31 39 43 50 67 63 68 78 68 62 71 63 46 50 43 44 60 60 75 77 75 60 60 47 42 49 57 58 59 57 56 56 59 57
21 21 21 22 23 23 24 24 26 28 46 39 57 50 67 55 49 58 74 48 51 46 42 42 50 58 80 86 90 78 77 64 59 45 56 64 68 68 65 63 61 60 58
24 24 25 26 27 28 30 30 32 31 34 35 46 49 58 68 57 58 56 88 59 39 39 35 81 90 90 92 81 94 73 66 58 46 57 62 69 82 81 76 72 68 65
27 26 26 27 26 25 26 31 28 29 29 29 46 75 58 43 68 64 55 55 63 36 40 64 80 100 100 89 97 86 72 77 68 58 62 64 70 71 75 83 89 87 82
22 24 24 25 25 27 29 32 34 37 35 32 32 32 30 32 32 32 37 32 33 52 77 84 100 100 96 100 100 87 81 84 64 61 66 69 68 72 75 74 71 70 73
20 20 21 23 23 24 25 28 31 33 32 32 33 33 32 32 32 31 33 35 71 78 78 100 100 100 100 100 98 85 85 82 67 68 65 67 70 72 72 72 72 66 64
19 18 19 20 22 24 25 25 28 27 28 28 31 33 35 34 35 36 44 65 99 92 100 100 100 100 100 89 90 89 90 90 71 69 68 70 70 73 74 77 81 76 68

GFSMA_250_rhum_069.txt.gz
RH
69 74 74 69 64 61 54 53 48 43 40 37 36 38 39 40 42 43 46 51 60 66 73 78 84 75 67 67 62 56 62 69 78 85 90 88 74 65 54 44 39 33 23
88 85 86 78 70 73 67 60 57 52 51 50 50 51 52 58 61 64 68 71 78 87 92 96 97 80 80 76 66 61 62 75 85 91 99 84 70 61 49 48 38 29 22
80 93 100 99 87 80 82 73 68 64 60 62 67 70 70 72 75 80 86 95 96 100 100 82 81 84 89 81 72 79 82 86 89 96 91 78 66 61 50 44 34 27 22
100 100 100 100 100 97 93 84 84 86 84 81 82 84 77 90 92 93 100 100 100 100 84 90 84 78 70 82 88 93 96 95 100 78 75 70 62 63 44 42 28 25 22
100 100 100 100 100 100 100 93 87 94 100 100 100 100 100 94 100 100 100 100 90 89 95 98 90 76 97 100 100 100 100 98 83 73 70 62 69 57 49 39 25 26 26
100 100 100 100 100 91 87 91 89 82 89 100 100 78 78 96 100 96 96 99 87 89 95 100 85 99 100 100 100 100 100 90 84 76 72 68 60 58 48 33 25 29 24
100 100 100 100 100 100 100 100 100 100 100 100 100 100 99 90 97 100 100 100 94 96 89 90 96 100 100 100 100 98 100 95 91 79 76 57 64 49 38 27 25 26 26
100 100 100 100 100 100 100 100 100 100 100 99 100 92 99 92 93 100 99 100 100 96 91 93 95 99 100 100 100 100 100 95 88 84 78 62 57 50 34 23 24 25 25
100 100 100 100 100 100 100 97 96 84 76 86 90 68 87 100 99 100 100 100 100 85 83 87 100 100 100 100 99 100 93 85 84 82 66 58 58 41 27 21 25 24 23
100 100 100 100 100 97 100 100 100 92 87 71 89 95 95 100 98 100 100 100 100 100 100 100 100 100 100 100 100 99 96 93 87 72 65 59 55 32 25 27 21 21 24
100 100 100 100 100 100 100 92 90 91 88 93 100 99 96 100 99 91 100 100 97 100 100 100 95 100 100 100 100 100 93 92 74 65 59 57 38 29 22 23 20 22 22
100 100 100 99 97 100 100 100 100 96 89 88 98 96 82 85 76 100 96 100 100 100 100 100 100 100 100 100 100 100 93 76 63 59 54 40 32 25 26 20 21 20 23
100 100 100 100 100 100 100 100 100 100 100 100 100 100 100 100 100 99 100 100 100 100 100 100 100 100 100 100 100 95 88 73 63 57 44 33 26 23 24 21 20 22 28
100 100 100 100 100 100 100 100 100 100 100 100 100 100 100 100 100 100 100 100 100 100 100 100 100 100 100 99 96 86 81 70 59 41 32 31 26 24 24 21 22 25 36
100 100 100 100 100 96 100 99 100 100 100 100 100 100 100 100 100 100 100 100 100 100 100 100 100 99 100 97 91 84 68 50 45 40 38 32 28 30 27 23 27 36 39
49 52 60 59 54 59 64 72 82 93 91 96 99 98 100 100 100 100 100 100 100 100 100 96 78 76 74 70 75 76 65 54 43 42 42 36 30 36 31 26 34 42 45
26 26 26 26 30 45 48 48 62 72 76 80 82 93 96 97 99 100 100 98 98 74 54 64 74 72 72 82 72 68 52 44 39 50 54 39 40 39 35 33 40 48 50
28 28 28 26 24 24 26 34 44 46 42 40 47 60 76 78 73 72 55 50 55 54 61 76 71 73 69 78 73 64 54 42 46 61 69 63 50 47 36 37 49 54 56
23 25 28 28 29 29 25 25 25 25 23 26 30 32 34 34 32 31 42 44 49 59 70 89 71 77 74 60 73 58 54 48 59 64 64 72 59 48 43 42 55 62 59
28 27 25 27 29 29 27 25 26 26 26 26 27 27 29 35 39 34 37 54 57 77 64 88 71 86 66 82 72 72 46 77 73 86 84 80 62 55 56 48 54 58 69
28 27 26 26 26 26 26 25 25 25 25 25 26 26 27 30 33 33 39 38 41 42 57 43 63 52 37 54 52 44 92 92 98 91 96 92 74 66 64 54 56 58 61
33 33 32 31 29 27 26 26 25 27 28 28 28 30 33 34 35 35 37 33 34 39 37 37 35 32 41 49 44 60 96 100 100 80 98 93 79 69 73 60 60 61 64
29 30 30 29 29 28 26 25 24 23 23 25 28 30 30 28 28 29 35 44 38 39 35 34 34 34 45 42 64 100 100 100 100 97 95 82 72 70 84 68 63 66 70
20 19 19 18 17 17 18 19 20 23 24 25 24 24 26 26 25 28 35 37 37 40 36 35 37 36 44 86 100 100 100 100 97 99 94 78 74 78 82 77 68 71 74
17 18 19 19 19 20 20 19 19 20 19 20 21 22 24 27 30 32 34 38 38 38 34 38 42 58 93 100 100 100 100 100 100 95 90 81 79 87 86 76 73 77 72
20 20 19 19 19 19 19 20 20 21 21 22 24 26 28 30 31 33 40 38 38 39 42 50 62 80 100 100 100 100 100 100 99 92 87 88 86 85 80 73 74 71 74

GFSMA_250_rhum_072.txt.gz
RH
85 96 96 83 75 75 78 77 73 66 67 60 55 57 60 64 69 66 70 69 72 82 93 100 98 82 84 76 65 74 79 67 62 71 92 74 69 68 70 65 64 51 46
100 100 97 82 83 77 80 87 86 84 77 75 75 76 77 84 80 80 81 86 89 95 100 100 95 86 82 80 74 66 73 75 88 85 68 66 60 61 60 64 69 50 50
96 85 97 100 92 95 97 98 100 96 90 85 83 84 91 95 95 90 71 99 89 100 100 100 88 82 92 77 85 84 88 80 82 80 65 49 52 50 57 66 69 51 50
94 100 100 100 100 100 100 100 100 100 100 97 98 100 98 93 91 85 88 100 100 100 100 93 79 82 85 88 78 80 77 77 76 52 51 55 55 70 79 65 57 52 47
98 97 100 100 100 100 100 100 100 100 100 100 100 100 100 100 100 100 100 100 100 98 88 90 75 85 94 85 81 84 70 74 70 70 63 70 77 82 78 66 49 46 35
100 100 100 100 100 100 100 100 100 100 100 99 100 100 100 100 100 100 92 100 100 91 88 84 94 94 95 82 86 94 95 78 98 87 81 74 77 83 72 60 47 45 31
100 100 100 100 100 100 100 100 100 100 100 100 100 100 97 100 98 93 81 80 86 82 91 100 100 100 99 89 98 100 97 100 96 96 81 94 79 73 65 49 50 35 32
100 99 100 100 100 100 100 100 100 100 100 100 100 100 100 87 75 76 78 72 65 84 92 93 95 90 100 100 100 97 100 100 100 100 100 89 76 62 55 47 34 31 33
98 100 100 100 100 100 100 100 100 94 98 100 100 99 90 86 91 99 99 90 85 85 69 82 89 95 100 100 100 100 100 100 100 100 99 85 70 57 36 36 33 29 25
74 90 92 97 100 91 84 79 75 80 80 82 95 98 100 100 82 97 85 99 99 100 100 95 93 100 100 100 100 100 100 100 100 100 87 79 51 37 43 32 28 26 21
100 100 100 100 100 100 99 100 100 100 100 100 93 81 87 100 100 98 100 100 100 100 100 100 100 100 100 100 100 100 100 100 100 94 78 54 32 34 40 34 29 26 22
100 97 99 98 91 78 79 88 98 97 90 99 100 100 100 100 100 100 100 100 100 100 100 100 100 100 100 100 100 100 100 100 98 77 43 46 39 38 35 35 27 30 24
100 100 100 100 100 96 100 94 88 92 92 95 94 100 100 100 100 100 100 100 100 100 100 100 100 100 100 100 100 100 100 100 70 41 48 51 43 36 31 29 27 28 30
100 100 100 100 100 98 98 100 100 100 100 97 100 100 97 100 100 100 100 100 100 100 100 100 100 100 100 100 100 100 87 62 59 45 55 57 43 42 30 28 30 34 30
100 100 100 100 100 100 100 93 92 91 100 100 100 99 100 100 99 90 94 96 90 99 94 100 100 100 100 97 94 78 54 60 52 53 62 57 54 44 32 35 38 43 38
100 100 100 100 100 100 100 100 100 100 100 100 90 65 49 63 70 70 61 70 82 89 93 82 63 60 64 52 51 49 62 68 59 66 62 56 51 41 43 47 50 50 44
41 49 47 48 51 57 51 48 55 57 45 33 30 31 31 32 32 35 37 35 43 43 35 32 32 36 45 48 49 59 60 62 57 65 54 51 50 49 57 64 62 58 50
24 24 26 27 27 27 28 32 31 29 27 26 26 26 27 29 29 29 30 29 32 30 28 28 29 35 45 51 49 47 48 51 53 48 39 44 59 52 70 79 70 65 57
33 28 26 24 22 22 22 24 27 25 24 25 25 24 25 28 30 30 30 31 32 32 32 31 31 34 35 38 39 43 42 48 36 45 37 64 82 68 76 84 76 80 64
35 34 34 33 32 31 30 32 32 31 29 28 28 28 27 26 26 28 28 30 30 30 31 31 34 36 39 38 39 44 43 44 49 38 45 75 87 82 98 86 84 87 64
37 37 36 35 33 30 29 29 29 29 29 27 27 28 28 29 30 29 28 30 32 34 35 33 36 40 38 40 37 40 39 40 38 43 66 73 90 92 82 85 92 86 70
32 33 33 32 31 30 29 29 29 29 29 29 28 27 26 28 27 25 26 29 30 33 36 35 36 32 31 35 42 40 42 41 41 57 68 100 100 99 87 84 88 92 77
30 28 28 29 30 31 33 33 31 31 30 29 27 27 27 27 27 23 22 24 25 26 26 26 28 31 37 39 40 44 45 44 49 61 100 100 100 92 90 99 83 92 78
28 30 29 29 27 26 25 24 24 23 22 20 20 18 18 19 20 20 20 22 22 22 23 25 28 34 33 36 39 42 47 58 78 100 100 100 100 86 91 93 92 93 82
18 18 18 19 20 20 20 20 20 20 19 18 18 17 18 18 19 21 21 22 24 23 25 30 32 30 33 42 46 55 66 90 99 100 100 100 100 96 94 83 93 98 92
20 20 20 22 22 22 22 21 20 19 19 18 18 18 19 19 20 20 22 25 26 31 35 37 37 44 54 59 63 77 87 91 100 100 100 100 100 100 95 86 97 90 85

GFSMA_250_rhum_075.txt.gz
RH
80 88 95 100 81 78 90 88 76 67 68 75 86 98 98 95 86 87 86 95 88 94 93 95 100 100 100 89 78 64 58 63 61 77 83 64 38 38 60 69 68 71 57
99 93 96 98 98 100 95 80 78 86 90 100 100 100 100 100 100 100 95 88 99 100 100 100 95 96 82 81 74 66 64 72 92 90 87 68 46 60 80 68 76 70 52
100 100 100 95 100 92 99 99 100 100 100 100 100 100 100 100 100 100 100 100 100 100 100 87 95 91 90 75 70 67 70 70 89 88 88 78 88 94 71 79 70 53 41
100 100 100 100 100 99 93 96 100 100 100 100 100 100 100 100 100 100 100 100 93 96 94 88 94 75 83 61 67 61 75 93 88 82 100 94 94 87 88 74 66 49 26
100 100 100 100 100 100 100 100 100 100 100 100 100 100 100 100 98 96 95 93 91 93 86 76 79 86 74 72 68 81 92 87 86 83 86 100 99 100 90 76 65 50 23
100 100 100 100 100 100 100 100 100 100 100 100 100 100 100 100 94 87 100 99 95 93 86 96 96 93 92 86 94 100 100 98 84 100 99 100 98 95 95 82 58 35 25
100 100 100 100 100 100 100 100 100 100 100 100 100 100 100 97 94 89 92 90 93 87 100 79 98 100 96 100 100 100 100 85 100 100 100 94 100 100 92 72 63 22 28
100 100 100 100 100 100 100 100 100 100 100 100 100 100 92 71 76 79 78 81 88 100 99 100 94 89 99 98 95 98 100 100 100 100 100 100 100 100 94 79 44 25 27
100 100 100 100 100 100 99 100 98 93 100 98 74 76 76 73 74 82 87 99 99 94 99 92 100 100 97 100 100 100 100 100 100 100 100 100 100 100 94 71 30 29 27
100 100 100 99 98 93 96 87 76 64 67 69 65 59 54 59 100 100 100 100 100 100 100 100 100 100 100 100 100 100 100 100 100 100 100 100 100 98 75 35 30 31 34
97 100 93 91 78 72 74 69 61 58 51 57 64 65 90 96 96 100 100 100 100 100 100 100 100 100 100 100 100 100 100 100 100 100 100 100 95 76 47 41 33 38 36
100 100 100 97 92 100 100 100 78 83 80 88 85 87 86 100 81 93 88 99 100 100 100 100 100 100 100 100 99 86 98 100 100 100 99 63 52 51 54 45 39 40 43
100 100 100 96 98 100 100 100 100 94 91 87 97 84 94 97 100 100 100 100 100 100 100 100 100 100 94 60 57 71 96 92 86 72 54 41 48 61 50 41 41 44 37
100 100 100 100 100 100 100 100 100 100 100 100 100 90 100 100 100 100 100 100 100 100 100 100 90 42 39 39 43 47 52 49 38 34 46 58 51 51 49 45 44 39 38
96 98 99 100 100 100 100 100 100 100 100 100 100 100 100 100 100 100 100 99 91 94 83 50 34 35 37 40 40 37 41 35 34 35 39 48 42 41 47 43 45 38 45
100 100 100 100 100 100 100 100 100 100 100 100 100 100 100 100 100 89 76 54 42 39 44 34 31 31 33 34 34 36 34 34 34 35 36 41 42 42 43 49 43 40 54
100 100 100 100 100 100 100 100 100 100 100 100 100 100 86 66 44 39 32 31 32 31 28 28 29 28 30 33 34 35 34 37 36 37 39 41 42 44 46 46 42 48 75
100 100 100 100 100 100 100 100 91 87 80 81 67 49 36 30 29 28 25 25 26 28 26 27 28 28 29 31 33 34 35 36 40 39 42 41 44 43 48 48 45 66 90
59 62 47 49 50 50 39 31 30 34 42 39 28 24 24 24 27 24 24 26 27 27 27 27 28 30 33 33 35 37 38 39 41 42 43 45 43 46 49 42 61 75 100
73 79 75 77 84 85 76 54 42 37 36 37 34 35 35 33 32 31 29 28 29 29 30 29 30 32 33 34 36 38 37 38 39 42 41 37 42 55 46 50 67 99 95
41 43 44 43 42 43 43 42 40 39 39 37 33 34 33 32 29 27 25 24 24 26 27 28 28 24 24 27 28 27 29 34 36 34 36 41 48 50 48 58 77 100 100
41 40 38 38 38 37 36 34 32 32 32 30 29 28 28 27 26 25 27 28 26 24 21 24 23 19 20 20 22 25 27 26 26 30 36 44 46 50 56 82 100 100 100
42 43 44 44 42 40 37 35 34 33 32 31 30 29 29 29 27 23 20 19 19 18 18 18 19 18 20 22 23 24 24 27 32 42 48 49 52 60 82 98 100 100 100
37 39 40 39 38 36 35 34 32 29 26 23 21 21 20 19 19 18 17 17 16 16 17 18 20 20 22 24 27 28 35 36 44 47 52 56 71 87 96 100 100 100 100
22 21 21 20 19 19 19 18 18 17 18 19 19 19 19 19 18 17 18 16 17 18 20 23 23 26 29 35 35 39 48 55 56 55 63 71 89 96 100 100 100 100 99
19 18 18 18 18 18 17 17 17 18 22 23 24 23 22 23 23 20 22 23 23 24 26 27 29 33 41 44 44 56 62 68 74 83 92 90 96 100 100 100 100 100 95

GFSMA_250_rhum_078.txt.gz
RH
100 100 100 88 83 82 80 100 100 98 99 92 78 79 83 100 100 100 100 100 100 100 100 100 100 96 89 98 89 86 77 68 100 68 70 61 69 69 62 88 93 64 67
89 100 100 100 100 94 90 82 79 90 99 100 100 100 100 100 100 100 100 100 84 78 100 100 100 94 95 80 85 80 72 100 77 83 69 74 85 83 88 100 88 83 67
90 100 100 97 93 95 100 100 100 100 100 99 90 100 100 100 100 100 100 92 86 90 97 100 100 76 67 77 90 71 97 90 81 74 85 79 97 100 100 100 93 81 85
88 100 100 100 100 100 100 100 100 100 100 100 100 100 100 100 100 100 100 100 100 91 86 70 80 77 79 88 78 99 89 81 72 76 78 100 100 100 100 100 84 86 95
95 100 100 100 96 100 99 100 100 100 100 100 100 100 100 100 100 97 100 100 87 88 82 75 75 76 82 76 82 92 82 75 86 93 100 100 100 100 100 94 88 91 97
80 99 99 97 100 100 100 100 100 100 100 100 100 100 100 100 100 100 95 95 77 68 67 60 67 82 87 94 97 90 86 94 100 100 100 100 100 94 99 99 97 95 96
77 93 96 83 100 100 100 100 100 97 100 100 100 100 98 84 73 83 60 55 68 69 62 66 70 75 93 77 74 95 100 100 100 99 100 95 94 100 79 81 85 83 74
81 76 90 100 100 100 100 100 100 100 99 97 96 85 82 61 66 64 65 59 63 63 56 58 79 89 97 98 98 97 100 100 100 96 96 96 90 42 48 62 85 59 38
85 81 93 100 100 100 100 100 100 100 100 92 75 78 77 68 64 62 61 54 59 78 82 92 97 97 93 98 100 100 100 100 100 100 77 92 42 56 49 70 59 38 35
86 85 91 88 88 85 97 98 89 90 99 92 78 67 61 52 40 38 42 47 68 92 88 97 100 92 96 100 100 100 100 100 100 100 95 35 38 47 58 48 41 37 38
100 100 100 100 100 90 87 77 62 59 54 59 54 54 47 40 40 57 81 96 95 100 100 100 100 100 100 98 100 100 100 100 68 55 43 36 38 40 51 51 37 36 35
100 100 100 100 100 100 95 86 84 62 48 45 40 43 83 91 68 80 92 100 100 100 100 98 89 100 100 100 100 100 95 55 47 56 35 35 35 36 38 34 34 35 37
100 100 100 100 100 100 100 97 82 91 88 94 100 100 99 100 100 99 100 100 100 100 100 100 100 100 100 100 92 55 51 39 49 43 34 34 34 37 35 35 36 38 42
98 100 100 100 100 100 100 100 93 96 100 98 100 99 100 73 100 100 100 100 100 100 96 99 100 100 97 89 48 33 34 38 34 32 32 30 31 33 36 37 38 40 44
99 96 100 100 99 78 78 100 100 100 100 100 87 100 100 100 100 98 83 88 100 99 100 100 99 100 82 45 33 31 31 31 31 32 33 34 34 37 38 41 42 43 50
98 100 100 100 100 100 100 100 100 95 100 100 86 88 95 96 100 100 97 86 97 100 98 76 72 65 39 34 34 32 32 31 32 33 36 35 36 37 40 41 44 47 52
100 100 100 100 100 100 100 100 100 99 95 99 100 100 100 100 100 100 100 100 100 92 71 51 38 31 30 28 31 32 30 33 34 35 37 35 37 39 39 42 42 56 62
100 100 100 100 100 100 100 100 100 100 100 100 100 100 100 82 95 100 86 72 64 57 32 34 28 30 30 30 30 31 30 32 33 35 36 37 37 38 37 36 46 58 56
100 100 100 100 100 100 100 100 100 100 100 100 100 99 92 86 68 73 92 40 33 31 31 31 29 27 27 27 28 29 30 30 31 30 31 31 31 30 31 38 47 48 56
85 99 100 100 100 94 87 97 100 99 87 73 60 61 93 93 54 42 40 35 36 31 29 28 27 27 27 28 30 30 27 23 22 24 25 25 25 29 29 38 41 48 59
95 92 90 98 100 100 98 97 92 94 89 76 78 64 49 40 40 44 39 33 34 32 30 30 27 26 25 25 23 20 20 20 20 20 21 23 26 31 31 39 47 64 72
92 91 97 100 100 100 93 58 40 44 44 46 44 41 41 40 35 37 38 33 33 32 29 29 22 19 18 17 18 19 18 19 22 22 22 28 28 32 41 48 57 64 68
47 45 44 44 44 43 44 45 48 47 45 42 41 42 41 40 38 36 34 30 25 21 16 15 16 16 17 18 20 22 20 24 26 26 30 30 36 43 51 60 64 72 87
34 33 34 35 37 37 37 38 40 41 40 37 35 35 33 31 27 21 18 17 16 16 16 16 18 21 22 23 26 27 29 30 31 35 39 42 48 54 63 68 76 93 100
23 24 24 24 25 25 27 29 29 30 28 25 23 21 19 18 19 20 18 18 19 20 20 20 23 24 26 28 30 33 37 39 42 48 59 62 65 70 75 80 88 100 100
21 21 21 21 20 19 20 20 20 19 18 17 18 18 20 23 24 24 26 25 22 22 23 23 23 25 26 27 30 35 39 44 48 58 75 85 87 84 86 89 92 94 95

GFSMA_250_rhum_081.txt.gz
RH
100 100 100 100 100 100 100 99 93 90 83 80 82 70 76 96 99 99 89 99 91 100 83 71 74 73 80 95 88 84 92 70 62 73 77 71 59 62 98 100 92 96 87
83 74 77 91 79 67 88 100 100 88 78 92 96 100 100 100 94 95 100 98 95 100 100 86 81 78 70 85 87 66 57 51 56 76 54 64 77 94 100 91 71 79 56
63 54 68 59 72 84 84 91 100 100 96 99 99 100 100 100 93 98 100 100 100 100 100 82 76 71 76 77 74 45 47 60 92 64 74 82 81 100 96 89 96 89 66
81 74 58 57 77 92 89 99 100 86 99 99 100 96 100 100 100 91 87 90 90 98 97 73 62 67 71 67 51 45 49 61 62 75 86 92 100 82 97 94 89 57 38
80 66 64 83 86 100 100 100 98 98 91 100 100 100 100 100 100 97 82 70 78 78 78 62 54 61 59 52 44 43 46 64 95 84 85 100 100 100 90 86 78 44 32
62 52 66 94 100 100 100 96 91 100 100 100 100 89 96 82 71 73 71 82 69 77 71 62 46 42 37 44 45 66 65 61 72 100 100 87 100 89 91 79 47 47 33
100 83 66 64 97 91 85 74 83 100 87 92 86 91 79 77 65 66 67 74 72 77 69 55 44 34 36 47 69 100 96 89 100 78 100 100 100 100 56 33 37 52 37
93 99 90 93 85 75 68 64 58 81 100 89 69 85 85 65 68 58 59 64 79 78 63 49 38 43 51 50 99 88 100 100 93 100 98 100 100 79 39 32 40 40 34
100 100 100 95 95 86 80 59 47 60 65 81 66 64 72 68 62 65 62 54 44 36 37 45 37 73 73 85 97 98 100 100 100 100 100 94 90 64 35 35 34 34 33
95 100 100 100 100 100 99 78 67 65 52 47 49 50 50 56 64 62 48 42 32 33 34 52 83 100 100 72 100 88 98 89 100 100 97 86 82 49 36 34 34 33 34
100 90 98 89 64 74 82 76 52 51 78 74 50 42 42 40 36 50 49 39 47 68 100 92 72 100 94 100 74 82 86 93 100 94 94 73 47 38 38 34 34 32 33
100 100 100 95 63 60 60 65 72 83 96 84 66 58 75 74 72 54 67 67 89 84 100 100 97 100 94 66 82 81 100 100 100 100 85 41 38 39 37 35 34 35 35
100 100 99 92 100 100 100 97 98 100 100 88 98 84 90 84 76 86 65 61 90 100 100 93 100 76 99 100 100 100 100 100 95 86 54 40 37 41 40 39 38 38 37
100 100 96 100 100 100 100 100 100 100 100 100 100 95 90 100 100 92 83 87 100 100 100 98 74 97 100 100 100 100 100 82 67 42 38 39 36 36 37 37 37 38 37
100 100 89 100 100 100 98 96 87 100 100 100 100 100 100 100 92 93 100 97 100 93 72 86 100 100 89 92 99 86 88 72 38 42 39 35 32 35 35 37 36 37 39
100 100 100 100 100 100 100 100 100 100 100 96 76 90 100 100 100 91 98 100 100 100 100 100 100 100 94 95 64 85 85 45 41 38 35 33 34 35 36 37 36 37 36
94 100 100 100 100 100 100 100 100 100 99 78 64 63 83 100 82 86 100 97 100 99 75 98 100 100 100 76 75 59 39 40 41 37 34 33 35 37 37 40 37 37 37
100 100 100 100 100 100 100 100 100 100 74 71 95 94 99 97 100 77 92 99 100 100 100 95 58 66 61 45 36 36 42 38 40 41 37 36 36 35 36 35 32 31 34
99 100 100 100 100 89 78 80 100 100 100 100 100 100 100 100 100 99 97 88 99 88 79 54 66 81 37 40 41 36 36 38 37 37 34 30 29 26 29 27 26 25 27
88 99 100 100 100 100 100 100 100 100 100 100 100 100 95 87 87 93 87 76 62 45 50 76 58 38 38 37 36 32 28 28 24 20 21 22 22 22 24 24 26 24 29
100 100 100 100 100 100 97 95 94 92 91 100 98 97 99 86 74 67 50 47 70 72 51 39 39 37 32 25 27 25 18 18 19 20 20 21 23 24 25 26 26 28 32
100 100 100 100 96 100 100 100 88 78 80 78 78 74 82 76 52 60 86 61 41 39 39 30 27 25 26 20 16 17 18 17 20 23 23 25 28 30 32 33 32 34 39
100 100 100 100 100 98 94 79 70 74 69 66 61 66 74 98 90 63 44 38 30 26 25 26 23 18 16 17 18 19 22 22 26 29 31 36 35 39 44 44 44 52 51
95 85 90 82 81 83 91 97 100 98 95 93 88 83 74 52 41 35 27 25 24 23 21 19 18 17 19 21 24 21 22 24 27 30 35 36 45 51 59 64 70 76 67
94 98 99 98 95 89 84 70 53 46 44 44 44 43 38 31 26 22 22 21 20 19 18 18 19 22 25 24 22 21 24 25 28 32 38 47 57 64 83 76 81 90 84
34 35 35 36 35 36 36 35 34 32 33 32 29 26 24 21 22 20 18 19 18 21 24 24 25 26 27 28 28 26 26 27 31 36 48 63 67 74 92 92 91 93 96

GFSMA_250_rhum_084.txt.gz
RH
98 90 79 91 94 76 87 95 100 99 88 80 94 87 63 66 71 95 100 100 100 88 88 96 97 100 90 94 68 64 51 56 42 37 36 42 57 86 94 91 96 98 90
92 75 90 100 88 95 100 91 91 76 79 79 81 79 85 86 72 86 100 77 63 75 93 76 84 93 88 71 69 51 43 36 35 34 30 45 69 96 84 100 91 99 64
100 100 97 80 74 66 57 48 61 91 77 72 87 83 75 81 89 91 78 79 86 81 90 92 91 86 82 72 66 57 45 41 34 35 41 61 84 88 98 86 100 87 72
100 100 100 82 61 46 53 71 95 100 100 91 100 95 91 82 73 98 76 66 65 75 92 90 85 82 80 71 68 62 48 42 30 40 55 66 80 76 98 98 100 82 76
96 89 100 73 64 76 81 84 95 100 100 94 100 100 97 93 88 80 77 65 61 60 68 70 76 78 81 65 39 31 31 39 32 53 71 79 92 76 84 100 86 90 70
92 86 94 100 85 84 88 95 100 100 100 97 100 97 92 83 67 63 74 83 77 79 81 76 75 72 62 45 36 35 38 45 48 61 60 88 78 87 98 100 100 90 77
93 77 54 96 83 85 96 85 100 99 87 60 79 72 63 64 49 52 63 62 74 61 53 69 76 68 59 47 37 35 48 66 80 82 74 76 100 100 100 100 100 75 51
100 100 99 99 100 90 100 100 100 99 86 62 42 43 39 32 39 40 44 54 72 48 42 44 52 35 34 36 32 54 86 92 96 78 71 87 100 98 90 100 98 78 41
100 100 100 100 100 100 100 86 86 82 59 42 33 30 30 40 42 48 47 38 40 34 34 44 39 36 38 31 38 55 79 71 70 69 78 95 100 98 97 88 66 83 42
99 100 100 100 100 100 86 77 69 71 60 53 42 43 38 34 32 30 32 30 37 33 34 49 60 46 54 38 39 52 67 96 72 87 95 100 100 95 75 63 57 53 39
100 100 100 93 95 100 100 100 100 100 100 96 78 44 36 31 29 27 28 33 40 53 58 59 42 61 67 75 57 72 72 79 92 100 100 90 100 84 69 63 44 41 45
100 100 100 100 100 100 100 100 100 92 86 66 55 73 62 40 46 33 42 69 75 83 72 80 92 70 59 98 55 66 71 89 98 99 98 100 99 73 73 74 43 43 41
100 100 100 100 100 96 100 98 88 85 60 52 74 70 67 58 77 87 88 98 96 99 100 100 99 58 63 47 74 80 89 91 100 100 99 100 92 66 83 48 44 44 43
100 100 100 100 100 100 100 100 100 100 100 100 100 100 100 100 97 100 100 100 100 100 100 100 100 59 49 77 96 74 100 98 100 100 98 91 73 65 62 45 47 48 47
100 100 100 100 100 100 100 100 100 100 100 100 100 100 100 100 100 100 100 100 100 100 100 100 76 39 70 79 100 89 100 100 100 100 82 63 66 59 47 46 46 47 49
100 100 93 97 100 97 79 85 97 98 100 100 100 100 100 100 100 91 100 100 81 96 61 76 96 76 80 100 90 100 100 92 96 63 57 56 42 41 42 44 49 46 46
100 100 99 91 85 96 98 96 100 100 98 100 100 100 89 89 100 100 99 90 70 95 92 100 100 100 100 100 100 97 86 89 64 53 69 42 35 30 31 35 33 31 34
100 100 100 100 100 100 100 100 100 100 100 100 95 100 100 100 100 94 99 100 99 100 99 90 98 100 88 75 99 66 71 50 50 55 39 26 23 23 20 20 21 24 26
100 100 100 100 100 100 100 100 100 100 100 100 100 100 100 100 100 100 100 100 100 100 43 97 100 97 66 70 72 61 55 37 49 28 20 18 18 16 17 19 20 22 23
100 100 100 100 100 100 100 100 100 100 100 100 100 100 100 98 100 93 90 77 88 89 100 85 80 83 97 57 51 50 50 33 22 18 16 15 16 16 18 21 25 27 32
100 100 100 100 100 100 100 100 100 100 100 100 100 100 100 96 79 70 82 67 100 100 73 91 72 82 68 46 72 34 27 20 16 15 16 16 18 20 22 23 28 36 40
100 100 100 100 100 100 100 100 100 96 100 100 100 100 93 66 50 57 100 100 75 84 62 85 76 45 58 54 29 26 16 17 17 16 17 19 20 20 22 26 32 40 44
78 80 87 96 98 100 100 100 74 79 100 100 100 93 77 100 100 98 61 68 75 80 80 72 68 57 29 32 22 19 16 16 18 21 21 20 19 21 24 28 37 47 55
95 80 85 76 75 100 100 100 98 95 100 100 100 90 98 82 93 93 95 91 74 78 68 65 36 28 25 22 18 17 18 22 22 24 26 25 23 24 27 34 43 53 58
100 100 100 100 100 100 100 100 100 85 87 98 100 100 100 99 100 92 71 71 72 79 57 32 28 23 20 19 19 20 24 26 35 35 30 26 28 30 34 42 55 67 77
100 100 100 100 88 86 100 100 100 100 100 100 100 93 94 89 76 75 79 78 45 32 29 26 21 19 21 22 24 25 39 49 46 36 30 30 30 37 40 58 67 73 84

GFSMA_250_rhum_087.txt.gz
RH
100 100 100 100 100 100 91 88 76 66 63 69 100 100 89 99 100 86 64 66 50 62 68 68 52 56 72 97 88 71 69 65 62 43 37 33 24 32 40 65 68 89 99
100 100 100 97 100 100 98 95 65 62 86 98 94 97 77 69 59 74 76 67 70 71 68 67 75 73 74 71 70 64 66 60 58 48 41 30 26 36 52 66 84 87 98
96 99 100 100 100 100 97 75 65 72 90 86 53 60 74 73 82 76 100 95 86 86 82 69 76 63 82 71 69 73 62 65 50 47 38 26 32 48 65 79 96 91 95
100 98 98 100 100 100 100 89 60 68 68 54 58 74 84 85 96 99 100 99 85 81 70 54 51 62 65 75 69 55 47 47 33 33 30 29 42 58 64 69 83 100 100
96 99 100 100 100 100 100 76 39 47 56 62 73 93 89 87 100 100 100 95 87 72 57 39 27 31 62 68 55 40 40 37 34 27 34 34 51 63 81 87 100 100 100
98 100 100 100 100 100 100 85 46 43 81 90 87 98 100 100 100 100 96 72 44 30 24 24 27 48 55 48 34 32 38 30 32 38 41 45 58 76 86 93 100 100 96
100 100 100 100 100 100 100 99 72 52 63 100 100 90 78 83 84 68 56 53 38 33 30 24 27 40 37 30 29 31 29 28 40 56 48 56 59 67 75 100 100 100 99
100 100 100 100 100 99 96 82 75 89 100 100 91 96 95 80 73 57 45 49 42 40 34 25 28 27 28 27 29 34 46 58 54 73 48 54 65 67 89 94 100 100 93
100 100 100 100 100 100 100 100 100 100 100 98 76 60 56 44 63 49 63 47 32 37 35 38 29 29 28 27 34 46 68 86 86 89 49 51 68 78 100 99 100 100 92
100 100 100 95 100 100 100 100 100 100 100 100 75 52 65 63 45 30 28 33 35 46 43 34 32 32 28 42 66 67 81 89 57 53 52 83 88 92 100 100 98 93 89
100 100 100 100 100 100 100 100 100 100 100 100 100 73 91 60 68 75 84 70 52 48 30 30 33 64 44 69 91 75 100 76 78 70 66 78 83 100 100 86 80 80 80
100 100 100 100 100 100 100 100 100 100 100 100 100 100 99 100 95 81 64 63 45 39 39 50 87 87 80 73 92 83 89 98 75 88 100 100 95 100 100 97 100 82 59
92 84 98 100 98 100 100 100 100 100 100 100 100 100 100 100 98 62 71 46 51 77 94 100 100 85 99 88 86 91 100 73 100 100 100 98 100 100 99 95 91 67 49
100 91 73 80 86 100 100 100 100 100 100 100 98 100 90 86 100 46 74 77 98 100 100 100 100 99 86 100 84 86 70 100 100 89 100 100 100 100 100 96 74 48 33
100 98 94 100 100 77 83 94 100 94 100 100 99 100 70 76 100 100 91 85 100 100 100 93 100 93 100 100 100 78 100 100 75 100 92 92 100 99 62 67 38 30 24
100 100 99 81 91 84 98 100 100 100 93 96 91 93 87 78 96 94 97 90 100 90 90 100 100 100 96 93 100 99 97 79 100 92 69 93 96 53 63 44 26 25 19
100 100 100 100 98 100 100 100 100 100 100 100 100 86 100 100 100 100 98 100 100 100 92 100 100 66 62 100 99 100 100 100 75 72 84 96 58 73 40 34 22 18 17
100 100 100 100 100 88 100 100 100 100 100 100 100 100 100 100 100 100 100 100 100 100 84 100 53 96 100 100 100 100 90 75 80 100 100 99 75 38 23 22 15 15 15
100 100 100 100 100 100 100 100 100 100 100 100 100 100 98 100 100 100 99 100 100 97 84 84 100 100 97 100 100 67 87 100 51 100 64 60 46 34 16 15 15 14 17
100 100 100 100 100 100 100 100 100 100 100 100 100 100 100 100 100 100 100 98 80 83 98 100 99 75 97 79 78 98 83 77 65 86 68 54 26 19 16 14 15 18 21
100 100 100 100 100 100 100 100 100 100 100 100 100 100 100 100 100 94 93 100 100 76 100 99 100 88 75 62 41 75 79 93 57 67 60 26 20 16 15 16 19 20 20
100 100 100 100 100 100 100 100 100 100 100 100 100 100 100 100 100 100 100 100 100 100 100 90 100 78 47 46 71 78 60 67 66 59 54 22 17 17 18 19 21 20 19
100 100 100 100 100 100 100 100 100 100 100 100 100 100 100 100 100 100 95 98 100 100 98 100 100 59 50 88 70 68 73 67 67 37 22 18 19 20 23 27 25 21 23
100 100 100 100 100 100 100 100 100 100 100 100 100 100 100 100 100 97 100 100 100 96 100 88 90 59 99 96 86 67 64 70 43 22 19 20 23 26 31 30 25 25 26
78 87 82 80 89 96 94 100 100 100 100 100 100 100 100 100 98 100 100 98 98 95 94 78 61 97 98 70 75 70 65 66 24 18 22 24 29 36 36 29 28 30 36
85 80 84 76 91 81 80 62 70 55 76 90 96 100 100 98 71 57 84 80 94 97 97 100 84 93 78 66 64 54 35 22 19 22 27 34 37 43 37 34 33 36 58

GFSMA_250_rhum_093.txt.gz
RH
88 96 100 100 100 100 100 100 97 100 100 100 100 98 100 84 59 74 82 57 74 100 97 91 84 88 83 87 94 91 65 44 57 53 36 32 25 25 29 28 32 43 50
95 92 100 99 100 100 100 100 100 100 100 100 100 100 91 80 70 88 74 76 80 99 75 56 62 97 97 100 100 93 83 68 55 49 38 31 30 26 28 36 40 54 65
85 85 96 100 100 100 100 100 100 100 100 94 100 100 100 100 84 99 78 62 69 84 81 62 58 77 99 100 100 100 91 73 49 36 34 32 26 25 26 59 61 62 83
100 94 89 93 100 100 100 100 100 91 100 100 93 84 100 99 100 98 75 51 51 50 60 58 63 84 100 100 100 100 90 59 40 30 30 24 23 24 30 55 74 86 91
88 96 100 100 85 100 100 100 100 100 95 86 100 99 100 100 99 92 87 73 66 50 41 57 62 82 100 100 100 97 86 56 38 28 30 24 23 27 38 66 67 86 99
85 100 100 100 100 100 100 100 97 88 91 100 100 100 100 100 94 91 81 88 84 76 66 78 94 88 100 100 100 92 78 49 32 24 25 26 27 23 34 80 87 82 99
100 92 100 100 100 100 100 97 94 99 100 100 100 100 100 100 83 82 78 72 79 71 89 100 96 92 96 100 84 50 38 36 30 26 35 27 26 26 41 82 67 99 94
99 100 100 100 100 100 98 100 100 100 100 100 100 97 95 100 100 83 81 85 80 95 97 100 100 94 87 54 32 40 35 30 25 28 28 31 28 31 55 70 74 88 100
100 100 100 100 100 92 100 100 100 100 100 100 100 95 100 100 100 100 100 100 81 76 88 82 72 59 60 46 42 43 36 30 29 31 42 50 37 35 42 53 83 85 100
100 100 100 100 100 100 99 100 100 99 100 100 100 100 100 100 100 100 100 100 82 89 91 96 88 73 51 58 56 57 55 37 32 39 50 46 40 46 49 68 56 78 97
100 100 100 99 100 100 100 100 100 88 100 100 100 100 100 100 93 100 100 84 82 86 100 96 62 80 61 66 72 58 49 38 36 46 52 42 52 55 64 71 85 92 100
100 100 100 100 100 96 97 100 100 100 100 100 100 100 92 90 81 100 95 94 100 95 100 95 88 86 86 85 81 49 49 36 50 66 43 66 62 62 72 64 100 100 100
100 100 100 100 100 100 100 100 100 100 100 100 98 100 88 89 100 81 100 92 88 97 89 95 94 100 92 65 59 51 40 54 60 51 64 82 70 62 89 99 100 100 100
100 96 100 100 100 100 100 100 100 100 100 100 100 99 100 100 100 100 100 97 93 92 85 100 100 84 96 71 56 45 46 46 52 72 74 82 69 78 80 100 100 100 100
100 100 100 85 98 100 100 100 100 100 100 100 100 100 100 100 100 100 99 100 100 100 100 96 82 68 64 68 68 46 45 63 65 100 97 68 65 88 82 98 85 96 100
100 100 100 100 100 100 84 100 99 100 100 100 97 100 100 100 100 100 100 100 100 89 90 84 98 100 83 70 70 76 74 64 77 87 67 78 81 99 100 82 98 100 100
100 100 100 100 100 100 100 100 100 100 100 100 100 100 100 100 98 100 100 100 100 99 100 100 100 99 100 93 70 63 70 74 82 100 79 76 99 95 95 89 100 100 100
100 100 100 100 100 100 100 98 96 99 100 100 100 100 96 86 95 72 82 86 87 86 100 100 99 91 96 77 49 72 69 91 100 93 100 95 87 75 85 100 100 100 80
100 100 100 100 100 100 100 97 100 87 81 88 99 81 93 77 74 100 75 84 76 66 77 98 85 76 92 94 72 91 90 90 76 93 96 100 85 100 100 100 99 95 77
100 100 99 94 100 100 100 100 97 100 100 85 78 96 99 87 97 100 86 64 54 88 91 100 74 93 100 96 96 100 86 98 96 93 85 80 100 100 100 100 100 77 61
100 100 100 100 100 89 92 100 100 99 100 98 96 82 99 94 89 98 99 78 78 100 91 100 100 100 100 100 100 89 100 76 99 88 98 100 100 100 65 71 97 69 68
100 100 100 100 100 100 100 100 98 100 100 100 100 100 100 100 100 98 100 100 100 93 100 100 100 100 100 100 100 100 100 100 100 100 100 89 100 95 98 82 82 70 100
100 100 100 100 100 100 100 100 100 100 100 100 100 100 100 100 100 100 100 100 100 100 100 100 90 100 95 100 99 100 100 100 100 100 79 98 99 84 84 86 79 84 97
100 100 100 100 100 100 100 100 100 100 100 100 100 100 100 100 100 100 100 100 100 100 100 100 100 100 100 100 100 100 100 97 100 100 70 89 97 89 89 76 100 85 91
99 100 100 100 100 100 100 100 100 100 100 93 99 100 100 100 100 100 100 100 100 100 100 100 100 100 100 100 100 100 98 99 100 100 92 98 100 99 77 88 88 72 45
100 100 100 100 100 100 100 100 99 98 81 98 94 94 100 92 92 99 100 100 91 100 87 100 99 97 100 100 100 100 100 100 100 100 100 100 99 86 97 59 63 37 23

GFSMA_250_rhum_096.txt.gz
RH
39 68 76 84 89 88 84 94 98 93 97 96 100 98 100 100 100 100 100 76 74 84 76 80 53 94 97 74 63 84 100 100 100 100 97 85 59 42 28 25 24 25 23
33 51 99 100 88 95 90 93 100 99 92 100 100 100 100 100 100 100 100 100 88 73 88 90 84 76 94 69 66 62 100 100 100 99 100 91 61 43 35 30 22 23 22
36 55 87 98 96 98 95 100 100 100 100 100 100 100 100 100 83 71 72 93 92 70 100 84 74 73 66 62 56 93 100 100 100 100 97 80 54 33 32 27 21 24 22
66 70 87 98 100 100 100 100 100 100 100 100 100 100 100 100 92 79 100 100 76 58 100 87 65 67 58 66 72 66 96 100 100 100 98 53 38 30 29 25 24 30 29
70 56 65 94 100 100 100 100 100 100 100 100 100 100 100 100 100 100 100 98 81 71 93 100 92 80 70 81 72 70 87 100 100 100 88 34 37 31 32 26 24 38 30
47 60 75 81 92 100 100 100 100 100 100 100 100 100 100 100 97 98 100 100 97 88 100 98 85 72 63 55 62 75 80 99 95 86 55 41 35 34 31 24 26 35 32
86 83 93 95 68 89 100 100 100 100 100 100 100 100 100 100 100 100 100 100 100 100 70 92 91 75 68 71 61 67 94 56 53 43 45 34 40 35 29 24 31 29 35
100 100 100 100 100 100 87 96 100 100 100 100 100 100 100 99 100 100 100 100 100 88 71 60 93 100 82 64 50 36 69 43 43 64 61 49 41 32 33 27 27 31 32
100 100 100 100 100 100 100 100 100 100 100 100 100 100 93 88 100 96 98 98 100 100 100 98 100 100 100 89 70 65 94 89 95 68 54 54 51 44 36 29 29 29 38
100 85 100 100 100 100 100 100 100 100 100 100 100 100 100 100 100 100 100 100 100 100 100 100 100 100 100 95 59 81 100 74 90 66 57 79 61 46 33 27 29 35 42
100 100 100 100 100 100 100 100 100 100 92 93 100 100 93 100 100 100 100 99 100 100 99 90 84 95 95 85 95 77 96 84 75 64 77 76 62 40 35 32 41 51 49
100 100 100 100 100 100 100 100 100 100 100 100 100 100 100 100 100 70 69 87 100 78 84 79 88 100 100 100 100 99 80 61 52 60 66 61 49 38 40 37 60 79 72
64 82 100 100 100 100 100 100 99 100 100 100 100 100 100 100 100 85 86 100 95 78 91 81 100 100 99 63 76 79 55 82 87 63 46 59 53 44 44 42 54 53 78
98 100 100 100 100 100 100 100 100 100 93 97 100 100 93 100 85 100 100 100 100 100 100 100 100 99 92 84 69 61 67 72 53 46 53 71 78 50 34 47 71 95 68
100 100 100 100 100 100 100 100 100 100 100 100 100 100 98 72 100 100 100 93 100 94 91 69 90 67 82 78 73 75 70 47 54 65 71 74 47 49 53 58 52 68 70
100 100 100 100 100 100 100 100 100 100 100 100 100 100 100 100 81 91 100 100 94 100 100 92 79 72 88 100 98 88 75 57 54 56 72 77 37 54 67 68 59 67 66
100 100 100 100 100 100 100 97 100 100 100 99 100 100 100 100 100 100 98 100 92 97 95 100 100 100 100 100 98 87 78 64 61 81 87 98 37 36 58 73 80 84 86
100 100 100 100 100 100 100 100 100 100 100 100 86 100 92 100 100 100 100 100 100 100 100 100 100 100 100 100 99 80 87 73 66 67 68 55 43 42 62 86 80 95 100
100 100 100 100 100 100 100 100 100 100 100 100 92 99 100 100 84 86 97 100 100 100 100 100 100 100 100 79 75 62 80 83 58 85 65 55 56 64 59 73 80 98 100
100 100 100 100 100 100 100 100 100 100 100 100 100 100 100 100 100 100 100 100 100 100 95 82 79 75 75 66 53 70 72 86 91 79 63 100 88 82 82 100 100 100 88
100 100 100 100 100 100 100 100 100 100 100 100 100 100 100 99 98 99 100 100 95 81 66 74 61 55 86 69 56 78 93 80 94 100 100 99 90 92 100 100 100 68 88
100 100 100 100 100 100 100 100 100 100 100 100 100 100 100 100 100 100 96 81 88 80 69 74 67 75 54 85 73 85 97 100 95 100 100 91 100 100 100 100 99 81 100
100 100 100 100 100 100 100 100 100 100 100 100 100 99 100 100 90 99 100 100 97 100 98 100 95 99 95 89 100 100 100 100 100 100 100 100 100 100 100 94 97 100 98
100 100 100 100 100 100 100 100 100 100 100 100 100 100 100 100 98 100 100 100 100 100 100 100 100 100 100 100 100 100 100 100 100 100 100 97 100 100 100 100 98 91 97
100 100 100 100 100 100 100 100 100 100 100 100 100 100 100 100 100 100 100 100 100 100 100 100 100 100 100 100 100 100 100 100 100 100 98 100 100 100 100 100 100 100 99
100 100 100 100 100 100 100 100 100 100 100 100 100 100 100 100 100 100 100 100 100 100 100 100 100 100 100 100 100 100 100 100 100 100 100 100 100 100 100 100 100 100 100

GFSMA_250_rhum_099.txt.gz
RH
19 17 24 39 66 77 75 72 82 89 84 80 87 93 98 100 99 100 100 100 100 100 99 98 63 85 63 70 85 96 99 76 66 89 92 100 100 100 100 66 38 33 28
34 15 15 19 23 58 76 79 82 74 86 92 85 89 93 96 100 100 100 100 100 100 73 64 73 83 64 75 94 80 72 52 62 67 100 100 100 100 100 78 40 33 31
41 24 15 16 16 23 69 86 96 93 84 95 100 100 99 100 100 100 100 100 91 100 100 71 80 81 69 84 81 70 67 55 48 59 83 100 100 89 81 57 46 42 36
49 42 22 19 16 21 61 70 92 98 100 100 100 100 100 100 100 100 100 100 99 98 100 100 86 69 61 83 99 100 84 66 56 54 67 100 100 90 53 39 42 46 43
48 48 26 19 14 40 88 92 88 99 100 100 100 100 100 100 100 100 100 100 97 83 74 73 86 72 52 84 100 96 86 77 64 58 56 68 68 60 54 40 50 51 48
30 34 27 20 20 19 64 83 54 100 100 100 100 100 100 100 100 100 100 100 100 95 100 100 100 66 45 66 100 100 98 78 82 55 51 42 51 50 54 72 64 48 50
22 24 27 26 43 56 92 100 95 79 100 100 97 100 100 100 100 100 100 100 100 99 100 100 98 64 75 66 68 79 100 89 67 64 78 62 60 88 100 91 54 36 62
23 30 24 37 71 100 100 100 100 100 96 99 100 100 100 100 100 100 100 100 100 100 100 100 90 91 88 75 69 95 100 100 98 100 100 80 83 66 97 62 33 42 64
50 26 31 27 40 91 100 100 100 100 98 100 100 100 100 100 100 100 100 100 100 100 100 92 88 100 100 94 90 82 62 100 100 100 86 86 93 78 67 38 33 47 42
34 40 32 28 46 51 76 100 100 100 100 100 100 100 92 100 100 100 100 100 100 100 96 100 100 100 90 93 100 100 100 98 99 100 100 100 98 72 59 41 37 45 51
39 37 43 38 70 100 100 100 100 100 100 100 100 100 100 100 100 100 100 89 76 80 98 100 100 83 66 73 76 100 85 89 90 100 97 100 82 68 61 44 37 49 38
27 45 50 100 100 100 100 100 100 100 93 100 100 100 100 100 100 99 90 97 100 97 99 99 100 80 61 55 92 96 83 100 88 84 72 73 64 69 55 42 49 37 33
28 68 98 100 100 100 100 100 100 100 100 100 100 100 100 100 99 100 85 99 100 96 93 98 97 100 80 90 100 100 65 100 96 86 70 61 62 68 52 53 46 58 47
32 48 78 100 100 100 100 100 100 100 100 100 92 90 100 100 100 100 100 82 100 100 91 74 82 82 77 100 100 89 57 71 81 54 98 65 53 69 67 51 48 49 34
33 45 83 91 100 100 100 100 100 100 100 100 100 100 100 97 93 100 100 96 96 94 100 99 76 90 99 73 76 75 89 82 100 100 64 75 85 80 67 48 88 40 47
23 44 69 66 64 66 94 99 100 100 100 100 95 97 92 100 76 100 100 94 76 65 67 90 84 100 88 84 86 94 91 100 78 96 94 100 100 89 67 73 46 47 59
32 41 45 53 53 88 100 100 100 100 100 100 100 100 100 100 100 99 97 100 95 87 86 94 100 100 100 100 100 100 100 100 93 100 100 91 77 77 69 53 54 40 98
73 60 53 49 47 64 100 100 100 100 100 100 100 100 100 100 100 100 100 100 100 100 100 100 100 100 100 100 99 100 99 99 100 100 99 100 86 85 60 54 42 80 45
94 74 68 58 60 91 100 100 100 100 100 100 100 100 98 100 100 100 97 100 100 100 100 100 100 100 100 100 100 100 88 90 100 100 100 96 82 66 60 64 49 63 54
100 100 88 93 99 100 100 100 100 100 100 100 100 100 100 100 100 100 100 100 100 100 100 100 100 100 100 100 85 100 100 100 100 100 100 80 69 56 48 68 69 82 99
100 100 100 96 99 100 100 100 100 100 100 100 100 100 100 100 100 100 100 100 100 98 90 96 96 80 74 84 100 99 100 97 100 95 77 65 50 49 76 73 81 100 100
100 100 100 100 100 100 100 100 100 100 100 100 100 100 100 100 100 100 100 98 100 100 99 98 100 100 77 100 100 75 61 85 76 62 77 61 73 98 98 100 100 100 100
100 100 100 100 100 100 100 100 100 100 100 100 100 100 100 100 100 100 100 100 100 98 89 100 100 100 94 70 67 95 79 76 78 100 94 94 97 100 100 100 100 100 100
100 100 100 100 100 100 100 100 100 100 100 100 100 100 100 100 100 100 100 100 100 100 100 100 100 100 100 100 100 100 100 90 98 100 100 100 100 100 100 100 100 100 100
100 100 100 100 100 100 100 100 100 100 100 100 100 100 100 100 100 100 100 100 100 100 100 100 100 100 100 100 100 100 100 100 100 100 100 100 100 100 100 100 100 99 100
100 100 100 100 100 100 100 100 100 100 100 100 100 100 100 100 100 100 100 100 100 100 100 100 100 100 100 100 100 100 100 100 100 100 100 100 100 100 100 100 97 100 100

GFSMA_250_rhum_102.txt.gz
RH
42 42 34 32 26 26 34 44 54 62 73 76 73 77 89 85 80 93 96 100 100 100 100 100 91 100 99 91 62 60 67 57 68 69 63 58 54 85 100 100 100 100 57
88 70 55 49 39 33 36 32 36 50 69 84 77 72 73 93 94 88 94 92 100 100 100 100 100 100 100 87 70 85 63 59 76 68 77 70 63 62 77 80 100 92 56
72 84 86 75 55 48 39 31 34 46 81 88 91 85 84 84 100 98 100 99 100 100 100 100 99 94 94 70 47 66 66 55 75 97 98 81 82 72 65 51 56 68 63
35 55 70 67 68 68 57 44 33 26 26 51 73 89 96 97 100 100 100 100 100 100 100 100 100 100 98 86 85 80 73 55 65 90 86 84 90 86 66 69 73 51 70
26 28 32 35 62 79 55 48 46 31 30 33 42 68 98 98 100 100 100 100 100 100 100 100 99 98 100 100 84 96 87 59 63 81 95 100 79 87 87 96 100 96 79
38 28 25 23 37 41 29 30 44 40 35 25 28 34 77 100 100 100 100 100 100 100 100 100 100 98 100 100 100 81 69 63 64 74 58 99 94 95 94 96 100 96 80
33 28 33 32 34 34 30 32 43 47 30 30 70 49 95 100 100 100 100 100 100 100 100 100 100 100 100 100 100 91 72 61 51 77 88 100 88 89 100 100 100 100 100
51 29 24 32 33 34 36 31 29 28 26 29 52 88 99 100 87 91 100 100 100 100 100 100 100 100 100 95 100 97 84 68 56 76 82 93 78 80 99 100 100 100 100
52 46 28 34 43 31 38 24 23 27 26 45 60 82 90 100 100 100 96 100 100 100 100 100 100 100 100 99 83 48 64 95 98 72 92 100 100 83 63 95 100 93 65
55 66 63 44 44 56 44 40 39 31 41 63 68 100 100 100 98 100 100 100 100 100 100 100 96 98 96 79 65 59 46 98 99 100 75 74 99 71 37 74 66 63 76
51 55 48 49 53 56 63 47 36 40 49 67 85 100 100 100 89 100 100 100 100 100 99 72 100 98 100 100 100 58 100 100 100 95 41 64 64 61 55 100 99 75 69
32 32 36 35 65 53 64 77 32 25 42 44 88 100 100 100 100 100 100 100 100 100 100 100 100 100 98 95 92 100 89 95 95 58 74 83 94 100 61 54 95 65 98
26 22 13 30 74 55 62 86 45 35 32 45 90 100 100 100 100 100 100 100 100 100 100 100 100 100 97 100 100 98 68 97 89 97 100 100 88 92 56 73 95 89 72
10 10 31 60 58 59 76 63 53 48 66 97 100 100 100 100 100 100 100 100 100 100 100 100 89 98 98 92 97 90 100 98 99 100 100 100 64 65 94 100 100 85 83
32 44 49 43 46 44 46 43 90 100 100 92 87 100 100 100 100 100 100 100 100 100 99 83 100 100 97 100 100 100 100 98 100 62 93 100 92 100 100 83 79 69 78
37 36 34 37 33 26 24 78 100 99 100 100 100 99 100 100 100 100 100 100 100 100 95 100 90 100 66 68 100 97 100 75 73 82 68 64 88 94 100 80 86 82 100
23 23 23 20 18 20 39 90 100 100 100 100 100 99 100 100 100 100 100 100 100 100 100 92 90 85 100 100 100 96 94 91 72 82 98 100 100 99 71 99 100 100 100
14 14 15 20 26 66 92 100 100 100 100 100 100 100 100 100 100 100 100 100 100 100 100 100 79 84 90 78 76 72 87 100 100 100 100 100 100 100 100 100 100 100 100
26 38 50 75 51 76 78 99 100 100 100 100 100 100 99 100 100 100 99 100 100 100 100 100 100 100 100 100 100 100 100 82 98 96 100 100 100 100 100 100 100 89 88
67 76 100 100 100 100 100 97 98 97 96 96 97 100 100 100 100 100 100 100 100 100 100 100 100 100 100 100 100 100 100 94 100 100 100 100 100 99 97 100 85 81 58
96 100 100 100 100 100 100 100 100 100 100 100 100 100 100 100 100 100 100 100 100 100 100 99 100 100 100 100 100 100 100 99 100 93 87 60 74 83 100 90 76 58 55
100 100 100 100 100 100 100 100 100 100 100 100 100 100 100 100 100 100 100 100 100 100 100 100 100 100 100 100 100 100 100 96 94 100 99 95 97 95 76 44 70 47 82
97 98 99 100 100 100 100 100 100 100 100 100 100 100 100 100 100 100 100 100 100 100 99 97 98 100 100 100 100 96 88 98 100 99 82 79 66 63 87 71 93 99 88
96 100 96 91 88 96 96 100 100 100 99 100 100 100 100 100 100 100 100 100 100 100 100 100 100 94 85 81 68 85 94 92 76 73 90 74 90 99 100 100 100 100 100
69 68 72 84 91 92 99 95 81 89 100 97 100 100 100 100 100 100 100 100 100 100 100 100 100 100 100 100 100 100 100 100 100 100 100 100 100 100 100 100 100 100 100
75 77 79 80 80 76 88 95 97 96 99 100 100 100 100 100 100 100 100 100 100 100 100 100 100 100 100 100 100 100 100 100 100 100 100 100 100 100 100 100 100 100 100

GFSMA_250_rhum_105.txt.gz
RH
100 84 79 72 58 47 34 26 24 28 54 75 77 76 76 68 69 74 72 83 89 86 93 99 92 92 93 100 100 100 100 75 68 72 64 55 64 63 74 73 83 78 54
96 97 88 85 90 80 56 63 54 48 40 33 36 63 85 80 79 81 86 82 81 98 100 100 100 100 100 100 100 88 100 90 70 81 74 58 60 79 96 64 84 92 84
86 100 98 100 94 95 78 94 88 89 60 59 48 41 47 71 99 100 98 100 97 97 100 100 100 100 100 100 100 100 88 84 96 98 78 86 66 82 77 88 80 92 98
60 65 99 97 99 90 72 74 89 78 65 65 70 48 60 49 78 100 100 100 100 100 100 100 100 100 100 100 100 100 100 100 94 87 92 83 68 80 99 99 68 84 74
36 34 62 60 84 83 61 50 68 74 52 41 38 58 59 53 43 84 100 100 100 100 100 100 100 100 100 100 100 100 80 85 93 97 93 76 63 67 76 96 100 85 100
33 36 48 46 49 43 38 37 45 47 40 36 56 54 37 39 55 33 38 72 90 100 100 100 100 100 100 100 100 97 100 86 71 75 88 95 74 62 50 76 96 64 53
31 39 43 46 41 36 36 40 45 48 35 38 33 32 28 37 51 56 43 46 54 78 99 100 100 100 100 100 100 100 89 89 80 72 61 77 83 65 53 64 80 89 87
30 33 51 52 32 31 36 41 48 53 42 45 32 30 35 37 49 65 52 40 50 52 95 100 100 100 100 100 100 100 100 91 75 82 59 63 74 65 64 58 76 66 82
34 32 45 48 42 42 51 51 52 65 75 53 40 42 36 36 33 41 60 100 95 100 100 100 100 99 100 100 100 100 100 78 75 66 71 57 56 100 80 70 62 49 70
28 31 33 40 49 50 51 50 56 65 72 82 56 51 44 47 26 41 88 100 100 86 98 100 100 100 100 100 100 94 78 82 99 99 86 70 75 100 96 78 64 95 72
27 31 34 40 44 53 50 52 55 59 69 78 59 54 50 56 49 74 100 100 100 100 100 100 100 100 100 100 92 100 84 100 100 100 90 91 83 87 100 96 70 80 99
22 30 33 34 39 46 48 48 55 67 65 54 56 56 65 70 72 58 93 93 100 100 100 98 94 100 100 100 99 95 100 100 100 99 100 100 100 100 95 100 73 89 70
22 28 33 34 36 40 54 54 61 67 70 42 50 45 92 72 72 66 72 90 98 100 100 100 100 100 94 93 100 92 100 100 100 100 90 80 100 96 100 85 100 96 73
26 28 33 33 32 48 64 57 60 66 52 38 29 68 77 80 71 52 52 81 96 93 100 100 100 100 100 100 100 100 100 100 100 100 100 100 100 98 98 100 100 68 74
26 26 30 35 38 48 55 49 54 46 24 19 58 90 64 74 65 61 75 100 100 100 100 100 100 100 100 96 100 100 98 100 100 100 99 92 82 97 100 100 80 67 92
13 18 25 32 34 36 39 37 19 14 24 77 92 70 71 62 52 72 77 100 100 100 100 100 100 100 100 100 100 100 95 89 100 100 90 76 94 100 100 100 64 39 54
21 22 22 25 25 19 13 15 28 60 92 95 83 59 55 68 82 88 100 100 100 100 100 100 100 100 100 100 100 100 100 100 100 100 90 78 100 100 77 58 53 93 100
10 11 12 12 13 18 36 50 64 62 61 55 44 38 71 100 100 100 100 100 100 100 100 100 100 100 100 100 100 100 100 100 94 84 83 100 97 90 76 99 100 82 82
17 19 22 25 27 31 34 37 41 36 35 52 72 77 100 100 100 100 100 100 100 100 100 100 88 85 98 93 93 100 100 91 92 100 100 99 74 100 100 100 72 96 100
16 15 16 20 22 22 30 42 49 86 71 81 100 100 100 100 100 100 100 100 100 100 100 100 100 100 100 100 100 100 100 100 100 100 100 100 94 100 77 100 98 94 100
40 44 48 63 59 55 62 100 91 97 95 99 100 100 100 100 100 100 100 100 100 100 100 100 100 100 100 100 99 100 100 100 100 100 100 100 97 96 100 100 100 98 91
71 72 85 70 72 87 83 84 100 100 100 100 100 100 100 96 100 100 100 100 100 100 100 100 100 100 100 100 100 100 100 100 100 100 90 100 100 100 100 92 84 81 72
81 80 86 89 77 66 81 91 91 97 99 98 97 100 100 100 100 100 100 100 100 100 100 100 100 100 100 100 100 100 100 100 100 100 100 100 100 97 81 73 68 63 46
72 71 72 75 86 74 75 76 77 84 100 95 87 100 100 100 100 98 100 100 100 100 100 100 100 100 100 100 100 100 100 100 100 100 100 88 90 77 68 60 51 58 54
67 67 68 67 67 69 71 73 72 73 63 68 80 100 100 94 100 100 100 100 100 100 100 100 100 100 100 100 100 100 97 99 98 79 81 88 81 100 96 98 98 90 94
82 86 83 85 87 87 84 86 86 86 84 80 87 81 72 70 76 98 92 93 100 100 100 100 100 100 100 100 100 100 100 100 100 100 100 100 100 100 100 100 100 100 100

GFSMA_250_rhum_108.txt.gz
RH
98 96 100 90 89 86 96 83 62 56 59 41 31 32 35 68 97 99 97 94 98 79 71 85 97 93 98 99 92 95 100 100 100 100 90 82 85 99 81 76 70 83 100
100 95 96 97 93 82 91 88 87 78 68 76 55 36 30 27 35 74 95 100 100 98 96 92 82 87 86 97 100 100 100 100 100 100 98 75 80 88 70 93 68 60 71
100 100 99 97 100 96 96 100 97 97 88 90 84 66 69 68 63 64 56 50 59 100 100 100 100 100 97 91 97 99 100 100 100 100 100 93 64 72 90 99 81 69 95
52 47 99 100 97 100 98 100 100 99 95 86 86 80 76 90 81 62 51 76 88 64 76 99 100 100 100 100 93 95 98 100 100 100 87 71 86 75 82 85 95 80 90
32 28 45 78 79 97 97 96 87 96 100 96 81 68 52 63 73 48 48 59 69 61 63 60 100 100 100 100 100 97 99 100 100 95 98 90 72 72 61 66 99 94 72
39 18 31 46 53 46 64 68 76 83 72 75 86 66 46 46 47 36 37 33 32 40 43 54 53 100 100 100 100 100 100 100 100 100 96 88 90 87 67 65 72 94 90
36 32 23 43 39 38 43 49 51 53 43 54 55 49 55 57 54 45 42 47 41 39 50 60 71 46 48 85 100 100 100 100 100 100 100 99 100 87 74 62 58 100 72
28 21 24 23 24 27 40 45 46 49 52 53 48 47 44 53 68 64 48 60 54 46 57 54 58 62 62 74 90 91 100 100 100 100 90 87 84 79 86 69 56 64 96
22 15 30 23 24 25 30 40 42 52 49 43 43 61 56 64 72 71 73 64 64 54 63 70 63 78 71 80 97 100 100 100 100 99 85 87 87 98 98 96 63 57 96
14 15 21 27 24 34 32 30 36 46 43 53 49 55 56 61 68 69 67 70 76 66 68 62 60 88 100 100 100 100 100 100 100 99 100 94 100 100 100 100 75 84 82
14 16 17 25 27 32 32 33 30 38 43 40 51 52 53 61 64 63 60 77 60 55 62 71 62 72 84 100 100 100 100 100 100 98 99 100 100 95 100 99 89 94 100
17 18 21 21 29 26 26 33 38 36 40 40 39 51 53 53 59 58 56 76 82 54 46 82 82 100 100 100 100 100 100 100 100 100 100 100 100 100 100 100 100 86 72
13 21 25 26 32 32 31 29 33 34 35 40 41 39 40 47 52 56 70 80 83 61 42 84 92 99 100 97 100 100 99 100 100 100 98 88 65 100 100 95 99 100 100
7 10 17 23 32 43 43 38 38 42 36 42 47 46 40 42 43 66 79 86 84 49 53 92 88 100 100 100 100 100 100 100 100 100 100 100 99 100 100 100 100 100 100
8 8 8 12 24 39 38 45 54 58 39 36 38 49 47 46 52 64 75 77 66 48 48 100 99 97 95 100 100 100 100 100 100 98 87 100 100 92 100 100 100 100 89
8 8 8 9 12 19 30 38 40 46 49 44 43 41 43 49 57 53 66 50 54 72 74 99 100 90 100 100 100 100 100 100 100 100 100 100 100 100 100 95 100 100 96
9 9 8 9 10 11 13 18 29 43 51 46 42 39 41 45 47 42 35 35 81 100 96 100 100 100 100 100 100 100 100 100 100 100 100 100 100 100 97 100 88 100 93
9 10 10 10 11 11 12 12 14 17 21 24 31 37 39 33 38 42 66 99 100 100 100 100 100 100 100 100 100 100 100 100 100 100 100 100 100 100 100 93 85 72 91
12 13 13 14 16 19 20 21 22 25 28 30 28 29 30 41 74 89 90 95 100 100 97 100 100 100 100 100 100 100 100 100 100 100 100 100 100 99 100 98 95 72 67
13 13 14 14 15 15 15 16 17 18 21 32 40 53 57 58 69 85 72 66 73 73 92 100 100 100 100 100 100 100 100 100 100 100 100 100 95 100 88 77 84 55 88
16 16 16 16 17 19 21 22 22 21 23 23 25 40 33 38 66 62 66 65 80 90 100 100 100 99 100 100 100 100 100 100 100 100 100 100 100 98 100 100 93 84 91
62 53 43 51 52 50 48 57 59 59 74 82 73 65 81 81 94 100 88 100 100 100 100 100 100 100 100 96 100 100 100 100 87 93 96 96 100 100 97 90 100 100 100
78 77 58 51 52 54 64 76 79 86 92 92 82 79 87 100 100 100 100 100 100 100 100 100 100 100 100 100 100 100 100 100 100 100 100 100 100 100 100 100 100 100 100
66 64 65 62 64 59 59 65 79 88 84 79 84 88 87 90 89 87 86 96 96 100 96 94 100 100 100 100 100 100 100 100 100 100 100 100 100 100 94 100 95 92 88
60 63 65 66 67 69 65 65 65 65 66 68 72 77 82 84 77 77 87 100 100 100 100 100 99 98 98 100 100 100 100 100 100 100 98 100 100 100 100 100 100 97 74
72 75 75 80 80 80 80 78 82 85 81 78 74 76 75 69 69 71 67 63 66 75 80 95 100 100 100 100 100 100 100 100 100 100 100 100 100 100 100 100 100 100 100

GFSMA_250_rhum_111.txt.gz
RH
100 100 100 100 100 98 98 99 100 96 76 65 76 66 57 45 38 34 39 58 90 93 95 100 98 97 94 94 91 88 79 70 69 73 98 100 100 100 100 97 76 74 80
93 100 100 100 100 100 96 99 100 99 83 74 64 63 63 70 63 62 47 34 35 36 44 67 92 100 100 99 83 89 93 83 77 84 81 100 100 97 98 81 59 63 63
73 88 82 93 100 100 100 100 93 97 90 93 84 78 72 72 68 66 74 71 79 88 80 74 72 72 73 68 98 100 100 94 87 82 88 98 100 100 96 90 70 64 69
41 68 75 70 97 100 100 100 100 100 99 98 92 85 96 89 83 70 70 69 66 55 84 66 52 50 65 79 82 88 100 100 100 98 100 100 100 100 94 85 80 87 80
40 31 61 50 84 93 100 99 100 100 100 100 100 99 99 100 89 89 81 86 73 52 50 52 41 36 31 39 45 54 70 97 100 100 100 100 100 100 94 87 94 94 99
28 33 35 39 55 65 72 86 73 77 100 100 100 100 99 96 90 83 85 86 70 60 58 50 42 40 33 37 40 46 70 69 84 100 100 100 100 100 100 100 99 96 88
24 22 28 35 60 50 46 56 47 46 92 93 79 95 100 93 88 82 69 66 61 52 51 48 44 40 54 43 39 38 64 73 71 73 100 100 100 100 100 100 89 94 96
11 17 20 28 33 50 29 32 32 41 42 56 66 55 62 62 60 60 54 63 67 55 46 58 71 63 58 52 43 40 50 70 70 72 89 100 100 100 100 95 94 86 100
10 16 16 17 24 41 30 26 22 26 36 46 59 52 46 56 60 60 57 61 62 59 59 61 70 66 64 57 63 57 60 64 71 79 100 100 100 100 100 95 90 92 100
8 12 18 16 23 51 26 25 18 20 28 39 57 68 53 43 47 54 57 59 60 71 63 56 56 63 66 60 87 69 63 62 97 92 100 100 100 99 97 97 100 100 100
7 11 18 24 26 40 38 29 15 18 27 26 26 37 39 35 32 48 55 54 52 57 64 56 54 62 63 62 74 90 69 63 81 93 100 100 100 100 88 100 100 100 100
5 6 10 17 14 22 29 36 33 19 22 26 36 31 30 38 38 35 36 50 49 48 48 60 55 59 56 65 73 90 81 70 75 76 76 98 100 100 100 100 100 100 100
4 4 6 9 12 18 26 29 40 39 45 29 29 41 44 47 47 37 31 35 37 46 48 47 52 58 52 65 80 88 90 74 100 100 100 100 100 100 98 100 100 99 100
4 5 5 6 7 11 19 31 42 39 40 42 37 38 39 46 49 50 46 40 39 43 47 49 57 55 58 63 70 82 80 73 100 100 100 100 100 100 100 100 100 100 98
5 5 6 6 6 7 9 16 27 40 37 39 41 44 44 55 61 52 49 51 52 47 56 59 62 64 65 70 60 69 72 65 96 100 100 100 100 100 100 80 100 100 100
7 7 7 6 6 8 8 9 10 15 30 43 48 48 49 51 50 54 64 58 60 53 48 63 62 59 60 64 74 80 71 78 94 100 100 100 100 100 100 100 100 100 100
6 6 7 7 8 9 9 10 11 11 13 15 21 27 32 36 45 53 60 59 63 69 70 64 63 62 66 68 77 77 86 100 100 92 100 100 100 96 100 100 100 100 100
5 5 6 6 8 10 11 11 11 11 12 12 13 13 12 13 19 26 36 45 41 58 73 63 58 58 59 66 68 95 100 100 100 100 100 100 100 100 100 100 100 100 100
9 8 8 8 9 9 10 10 11 12 13 14 14 14 14 14 15 14 15 20 25 28 30 31 36 46 50 61 76 100 100 100 100 100 100 100 100 100 100 100 100 96 100
13 13 13 13 13 13 13 13 14 14 15 16 16 17 17 19 22 24 27 29 31 34 36 44 52 62 75 100 100 100 100 100 100 100 100 100 100 100 100 100 100 100 100
15 15 15 15 15 16 16 17 18 18 20 20 21 21 21 21 22 27 28 33 60 68 67 75 88 86 98 100 100 100 100 100 100 100 100 100 100 100 100 100 100 99 100
52 47 44 36 26 24 22 22 22 21 20 20 20 23 25 30 35 37 62 69 74 66 67 88 92 98 78 86 100 99 100 100 100 100 100 100 100 100 100 100 100 100 100
55 60 62 65 64 62 69 69 73 67 70 71 67 64 67 62 70 67 82 89 98 100 100 92 100 100 100 94 100 100 100 100 100 100 100 100 100 100 100 100 100 100 100
47 49 57 60 60 72 84 82 72 74 69 73 79 93 99 96 98 100 100 100 98 97 100 100 100 100 99 100 98 98 100 100 100 100 100 100 100 100 100 100 100 100 100
51 52 56 59 61 61 62 63 64 66 68 71 71 67 64 68 72 71 76 75 80 86 83 80 98 100 100 100 100 100 100 100 94 100 100 100 100 100 100 100 100 100 100
64 64 62 60 58 58 58 58 57 59 62 63 66 63 62 60 58 57 60 60 58 61 60 58 60 73 92 99 100 91 99 97 98 92 100 100 100 100 100 100 100 100 100

GFSMA_250_rhum_114.txt.gz
RH
83 88 79 90 100 100 100 100 100 96 92 82 99 87 71 63 66 71 70 67 73 69 58 43 42 46 76 100 100 100 100 100 100 100 100 85 85 90 100 100 100 100 100
58 73 83 87 89 98 100 100 100 100 100 90 100 100 95 81 55 54 63 70 72 66 73 70 59 56 57 53 45 44 57 72 84 81 78 94 100 99 92 100 100 100 100
72 48 58 85 99 96 93 100 100 100 100 100 96 100 100 100 87 54 64 78 76 85 78 80 76 71 58 93 91 68 53 45 55 79 86 86 100 100 100 100 100 100 100
47 52 40 47 70 94 96 86 97 99 100 100 98 92 98 100 100 99 91 92 86 80 82 86 75 76 70 45 43 46 41 33 27 39 54 65 80 99 100 100 100 100 94
27 34 39 38 38 54 75 96 99 92 96 100 100 100 100 100 100 100 100 100 94 89 82 85 76 79 72 54 56 55 52 43 36 34 31 35 55 79 92 100 100 100 100
14 17 26 30 32 34 45 65 92 96 82 79 98 98 99 94 94 100 100 100 100 99 87 88 86 75 70 62 60 54 52 61 53 44 37 34 56 65 74 95 100 100 100
11 10 13 19 28 34 26 36 64 48 75 76 67 95 100 94 95 86 100 99 100 100 100 95 89 78 68 64 59 58 56 56 54 51 50 41 39 50 63 72 90 96 100
7 8 10 12 15 23 32 32 38 53 39 55 56 54 82 92 90 70 72 100 83 83 78 74 64 69 74 74 70 57 62 62 53 58 54 63 42 42 49 59 78 100 100
7 9 11 11 12 15 21 37 38 52 74 31 41 37 54 72 77 74 54 74 84 78 63 59 64 63 61 61 65 68 69 65 56 64 56 56 62 66 52 59 92 100 100
5 7 14 7 10 16 19 21 32 48 73 66 44 28 37 47 62 49 67 65 68 90 89 61 53 59 59 58 55 51 56 62 60 60 60 64 70 70 72 74 90 94 96
7 7 9 6 8 13 17 20 22 26 36 43 58 44 40 30 32 32 43 70 67 71 75 76 54 51 47 52 54 47 49 47 54 59 60 64 77 87 84 85 98 100 100
6 12 7 7 7 6 8 16 20 24 30 40 41 55 37 20 23 22 25 35 47 66 74 80 54 47 47 48 54 50 52 51 47 49 53 65 79 86 78 84 91 97 100
7 7 8 6 6 6 5 7 10 18 28 34 49 63 43 34 34 27 24 34 38 40 47 60 52 42 46 48 53 50 50 50 49 49 50 69 72 74 80 99 99 100 100
5 6 6 4 5 5 5 5 6 8 14 26 41 52 53 42 44 40 32 31 39 34 35 44 46 47 58 60 54 48 51 51 54 56 66 78 70 78 89 85 99 100 100
4 4 3 3 4 5 6 6 6 7 8 11 19 32 50 52 52 48 47 42 48 43 57 58 49 49 51 55 61 60 60 55 67 56 75 72 68 72 77 88 100 100 100
6 5 6 7 8 11 10 8 7 7 8 8 10 16 27 40 43 42 57 62 63 56 53 56 65 62 47 56 66 70 75 74 77 85 72 70 76 73 79 87 97 100 100
10 13 12 11 9 9 9 8 8 8 8 8 8 9 10 12 14 16 21 28 37 46 45 45 54 65 67 62 61 62 65 76 74 89 84 86 80 76 81 86 100 100 100
8 7 7 7 6 6 6 7 8 8 9 9 10 12 12 12 13 14 15 18 15 16 19 24 29 33 38 39 38 47 64 80 77 80 79 85 88 100 100 99 100 100 100
12 13 14 12 10 9 8 8 9 9 10 11 12 12 12 11 11 11 12 13 14 14 15 15 14 15 17 18 20 24 29 36 50 70 65 79 100 100 100 100 100 100 100
10 11 11 10 10 10 10 8 8 9 10 11 12 12 13 13 14 15 15 16 16 17 17 16 15 17 18 18 21 25 32 51 58 71 96 100 100 100 100 100 100 100 100
34 18 13 12 11 10 10 12 12 12 10 10 11 12 13 13 14 15 16 17 17 16 16 17 18 22 29 39 50 51 59 61 70 80 97 100 99 100 100 100 100 100 100
34 38 46 49 53 46 22 16 14 14 15 16 17 17 18 19 19 20 22 25 25 25 26 29 34 28 43 58 59 73 84 87 98 100 100 100 100 100 100 100 100 100 100
53 48 48 47 42 49 49 55 59 51 34 30 29 28 28 27 28 32 30 30 33 30 28 31 45 52 81 100 80 78 94 87 100 100 94 100 100 100 100 100 100 100 100
56 56 56 55 54 52 53 57 52 55 61 62 70 75 76 68 65 71 71 71 69 66 70 58 65 75 70 95 92 95 94 87 100 98 94 99 95 100 100 100 100 100 100
52 51 52 51 53 54 54 53 54 55 56 60 67 72 64 60 56 60 66 74 72 74 82 93 93 86 100 87 91 93 100 100 100 100 100 100 100 100 88 100 100 100 100
36 44 46 49 51 49 49 52 55 56 56 55 55 57 57 57 63 65 58 60 59 62 73 79 74 81 87 92 94 85 77 79 93 100 100 100 100 100 100 100 100 100 95

GFSMA_250_rhum_120.txt.gz
RH
37 41 41 44 42 41 61 56 62 71 67 54 54 60 51 83 92 90 88 78 77 69 66 65 78 77 79 73 64 68 69 70 62 65 76 72 81 84 72 56 45 38 35
29 31 35 38 36 34 34 38 50 52 69 73 71 71 74 62 89 86 94 100 99 67 73 68 74 83 75 72 57 63 73 72 75 75 69 67 53 57 55 49 53 44 39
25 24 23 26 31 34 42 38 35 43 50 52 70 78 74 75 71 92 96 100 98 88 84 84 80 75 76 73 72 76 76 78 71 77 60 67 49 44 42 54 62 56 53
26 24 23 23 24 26 30 38 43 40 42 37 45 65 83 79 74 79 84 100 100 89 76 78 83 70 77 85 93 82 97 85 80 80 74 70 55 49 49 54 64 56 53
20 19 20 22 21 20 27 28 32 39 38 33 42 56 79 89 92 84 89 96 93 94 97 84 96 73 82 92 99 100 99 96 86 85 90 86 75 62 52 57 56 61 56
12 12 16 17 18 12 14 22 25 28 31 32 30 34 46 67 94 100 83 100 100 86 80 100 96 92 98 100 100 100 100 96 100 93 89 83 86 70 62 59 62 58 57
6 6 6 6 6 6 6 8 15 22 30 31 25 33 38 44 77 98 89 100 100 100 94 100 98 100 100 91 100 100 100 100 100 100 100 99 88 81 73 66 68 63 56
4 4 4 5 5 5 6 6 6 8 16 20 19 26 36 46 44 70 95 98 94 100 100 93 95 96 100 100 98 100 100 100 100 97 96 100 98 89 72 68 69 70 76
3 4 4 4 4 5 6 6 6 6 8 12 16 19 32 43 48 48 55 70 78 91 97 90 91 88 80 91 100 100 100 100 100 100 99 88 91 99 94 83 67 63 66
2 2 2 3 3 4 5 6 6 6 7 8 8 10 11 22 41 62 50 41 49 64 65 72 76 72 87 72 88 91 82 86 100 99 99 94 94 95 96 88 84 80 80
2 2 2 2 3 3 4 5 6 8 8 10 10 9 8 10 17 34 65 70 51 44 56 82 66 81 63 60 58 61 80 92 90 84 100 100 100 100 93 89 97 86 90
2 2 2 2 2 3 3 5 9 11 14 12 12 10 10 8 10 11 15 39 60 67 76 92 100 80 88 55 48 59 58 59 71 73 78 95 100 100 100 100 92 90 84
2 2 2 2 2 2 3 5 8 16 39 18 17 20 12 7 8 8 10 16 24 57 94 100 100 99 74 58 52 44 52 54 58 61 61 64 82 96 90 100 87 86 90
4 3 3 3 3 3 3 4 6 10 31 36 41 25 8 8 8 9 9 12 13 18 30 83 100 100 95 68 50 52 40 42 56 53 57 66 57 65 69 87 92 92 98
5 4 4 4 4 4 3 4 5 8 29 49 51 26 12 7 8 17 9 8 10 17 15 14 36 78 99 84 89 76 57 52 48 62 66 73 72 75 71 60 72 72 78
6 6 6 6 6 6 7 14 11 14 15 16 16 16 16 17 11 14 8 7 8 9 12 14 14 21 39 56 74 89 71 68 48 47 52 68 60 64 68 74 71 66 63
10 10 16 16 17 11 9 9 11 11 9 12 27 30 24 24 17 13 11 16 15 18 9 16 24 21 18 18 23 23 30 46 35 46 56 56 49 55 56 63 59 58 55
24 20 19 21 34 46 24 34 20 15 14 16 17 17 24 34 42 34 39 33 26 26 35 45 38 32 27 18 18 20 25 32 33 35 40 42 42 41 40 45 49 34 26
32 36 38 39 48 65 86 70 64 63 52 58 45 48 46 53 44 41 42 45 25 16 17 19 34 35 26 20 16 16 20 24 18 19 30 35 25 21 32 28 18 17 19
21 20 28 38 42 48 40 35 51 71 81 100 85 75 76 55 62 49 30 24 20 14 12 15 19 20 20 18 16 13 14 16 21 19 17 14 17 20 17 16 16 18 20
18 27 30 21 19 28 38 41 38 32 22 17 20 23 21 19 19 17 15 13 11 10 9 8 10 13 16 15 13 14 14 16 18 17 16 17 18 18 20 19 19 22 23
20 18 16 16 22 29 20 15 19 28 35 33 28 24 24 22 15 13 12 11 12 10 9 11 9 9 10 11 12 13 14 16 16 17 19 21 20 22 22 23 26 29 25
20 19 19 18 16 14 13 15 20 19 13 12 19 28 30 24 22 23 27 26 18 12 12 13 13 12 14 14 14 15 16 17 18 19 18 20 19 22 24 33 28 46 47
18 18 17 16 15 13 13 12 11 11 11 13 15 11 11 19 31 32 29 25 23 26 24 20 18 17 17 17 19 20 20 22 25 25 21 26 25 27 27 34 53 55 66
18 15 14 12 11 11 11 10 10 9 9 9 8 9 14 16 13 15 30 36 33 28 28 28 28 28 22 22 23 26 28 33 33 38 28 39 42 48 56 66 61 67 90
20 13 12 11 10 8 8 8 8 7 7 8 9 8 8 9 14 14 12 16 31 34 35 35 36 36 38 37 33 33 29 30 37 41 42 31 48 44 52 65 76 82 84

GFSMA_250_rhum_123.txt.gz
RH
44 40 36 40 39 35 32 33 38 48 44 37 39 41 37 34 43 57 69 65 59 88 84 79 73 72 59 74 75 86 84 78 65 68 66 72 69 63 68 60 52 57 58
44 39 35 36 33 30 31 26 27 33 40 48 39 36 40 41 37 37 54 76 74 74 100 98 84 97 69 56 63 64 66 74 76 73 75 76 68 75 61 64 51 52 52
33 33 28 26 27 28 27 27 27 28 31 37 45 42 37 42 45 52 45 44 61 77 90 100 99 99 100 82 72 66 73 72 71 76 69 74 77 79 73 66 55 52 54
31 31 27 24 24 21 21 24 26 27 32 32 40 43 43 40 40 42 59 54 48 61 75 91 96 100 99 89 81 81 83 66 82 84 74 79 81 83 75 69 71 62 60
20 18 17 18 18 16 16 18 20 24 26 27 32 38 43 48 46 43 43 50 58 82 84 88 88 100 100 94 94 82 92 88 87 93 98 98 90 85 80 77 78 69 72
7 7 7 8 12 14 14 12 8 9 10 16 23 30 33 38 44 44 40 48 47 73 99 100 85 79 81 100 100 97 100 93 83 88 100 100 99 95 95 88 88 89 78
5 5 4 4 5 5 6 6 6 6 5 6 8 13 24 30 32 37 37 45 50 50 89 100 100 100 94 62 100 94 88 89 99 96 90 100 100 100 100 100 100 97 96
4 4 4 4 4 4 5 5 6 7 7 6 7 7 8 12 10 11 28 32 50 70 80 95 98 100 100 96 100 100 100 100 86 80 100 93 100 100 100 100 100 100 100
2 3 3 3 3 3 3 4 4 5 6 7 7 7 7 9 10 9 12 22 38 66 85 92 98 93 100 100 100 100 100 100 96 94 95 98 91 100 100 100 100 100 100
3 2 2 2 2 2 2 3 3 4 5 6 7 8 8 9 9 11 14 16 18 52 80 100 100 100 94 100 100 100 100 100 98 92 98 96 96 91 96 100 100 100 100
4 3 3 3 2 2 2 3 3 3 4 5 6 8 9 10 11 11 13 16 19 27 75 96 100 100 100 100 94 100 99 80 90 98 92 99 83 88 90 100 100 100 100
5 4 3 3 3 2 2 2 2 3 3 4 6 8 10 11 12 9 10 14 18 20 24 45 73 98 100 99 94 92 95 90 94 99 74 71 85 84 91 94 100 99 100
6 6 5 4 4 3 2 2 3 2 3 4 5 7 12 10 13 10 11 11 12 19 19 18 19 30 54 80 100 100 100 96 84 81 52 57 82 82 90 94 100 100 99
10 7 6 5 4 4 4 3 3 3 3 4 5 8 7 15 18 20 15 15 15 10 12 15 15 13 18 33 62 96 100 100 100 100 100 78 82 84 74 86 93 91 91
14 12 8 6 5 4 4 4 4 3 4 4 6 7 10 12 14 55 46 15 11 10 11 12 14 16 15 17 18 24 35 85 100 100 100 100 97 74 59 63 68 100 88
18 18 13 10 6 6 5 5 5 5 4 4 5 7 37 45 39 41 38 23 12 9 9 12 20 38 23 16 15 16 17 18 39 83 87 68 95 96 93 82 86 88 88
20 19 18 19 15 11 9 8 11 10 8 10 18 48 37 42 35 38 40 28 20 15 10 14 14 18 26 22 21 32 28 20 16 16 24 37 42 56 64 70 67 70 75
18 18 19 20 19 21 16 17 20 28 35 30 18 16 18 41 46 29 21 15 16 15 12 11 21 31 40 36 42 54 41 37 38 27 35 38 51 41 49 96 67 60 38
22 18 18 20 20 24 22 21 27 32 32 45 45 46 52 45 25 22 15 18 33 40 44 50 70 55 49 49 59 52 42 53 76 79 81 74 60 44 31 34 57 36 20
31 24 18 18 18 20 22 24 27 25 28 33 31 30 35 50 54 58 54 60 69 73 72 54 53 45 54 60 62 61 44 38 48 38 38 31 29 27 34 27 41 62 33
40 36 33 23 17 16 16 18 22 22 19 24 23 25 36 33 31 38 42 46 46 47 45 42 41 32 22 20 22 27 30 22 18 18 24 30 30 31 27 27 23 31 44
45 42 38 32 28 22 18 15 13 13 15 18 18 18 23 22 24 26 26 21 20 18 16 16 15 15 13 11 10 9 10 10 11 11 19 24 27 30 26 24 25 26 41
42 40 36 32 28 26 21 16 14 14 12 10 11 13 15 16 18 20 20 20 24 25 23 22 22 20 18 16 14 12 11 10 10 11 12 21 20 27 28 26 24 25 25
46 37 35 30 24 22 23 17 13 12 10 10 10 9 9 10 12 12 12 15 17 16 17 23 26 24 26 23 20 21 14 12 12 13 11 19 17 24 34 37 34 33 26
58 52 37 29 24 18 18 14 12 10 10 9 8 7 7 7 8 8 10 11 11 10 12 16 17 22 30 30 29 28 27 23 15 14 13 16 22 23 29 38 39 36 36
55 53 40 32 27 20 19 14 11 10 10 8 7 6 6 6 6 6 6 7 8 9 10 10 11 19 17 18 27 34 38 36 36 39 20 16 22 22 25 31 32 40 42